[[{"header":{"parameterUnit":"m.s-1","parameterCategory":1,"la1":30.6,"la2":29.2853,"lo1":-89.7004,"lo2":-87.6739,"dy":0.0162,"dx":0.0183,"nx":112,"ny":82,"refTime":"2023-06-06T12:00:00:Z","depth":0,"parameterNumber":2,"parameterNumberName":"U-component_of_WINDS"},"data":[0.0,0.0,0.0,0.0,0.0,0.0,0.0,0.0,0.0,0.0,0.0,0.0,0.0,0.0,0.0,0.0,0.0,0.0,0.0,0.0,0.0,0.0,0.0,0.0,0.0,0.0,0.0,0.0,0.0,0.0,0.0,0.0,0.0,0.0,0.0,0.0,0.0,0.0,0.0,0.0,0.0,0.0,0.0,0.0,0.0,0.0,0.0,0.0,0.0,0.0,0.0,0.0,0.0,0.0,0.0,0.0,0.0,0.0,0.0,0.0,0.0,0.0,0.0,0.0,0.0,0.0,0.0,0.0,0.0,0.0,0.0,0.0,0.0,0.0,0.0,0.0,0.0,0.0,0.0,0.0,0.0,0.0,0.0,0.0,0.0,0.0,0.0,0.0,0.0,0.0,0.0,0.0,0.0,0.0,0.0,0.0,0.0,0.0,0.0,0.0,0.0,0.0,0.0,0.0,0.0,0.0,0.0,0.0,0.0,0.0,0.0,0.0,0.0,0.0,0.0,0.0,0.0,0.0,0.0,0.0,0.0,0.0,0.0,0.0,0.0,0.0,0.0,0.0,0.0,0.0,0.0,0.0,0.0,0.0,0.0,0.0,0.0,0.0,0.0,0.0,0.0,0.0,0.0,0.0,0.0,0.0,0.0,0.0,0.0,0.0,0.0,0.0,0.0,0.0,0.0,0.0,0.0,0.0,0.0,0.0,0.0,0.0,0.0,0.0,0.0,0.0,0.0,0.0,0.0,0.0,0.0,0.0,0.0,0.0,0.0,0.0,0.0,0.0,0.0,0.0,0.0,0.0,0.0,0.0,0.0,0.0,0.0,0.0,0.0,0.0,0.0,0.0,0.0,0.0,0.0,0.0,0.0,0.0,0.0,0.0,0.0,0.0,0.0,0.0,0.0,0.0,0.0,0.0,0.0,0.0,0.0,0.0,0.0,0.0,0.0,0.0,0.0,0.0,0.0,0.0,0.0,0.0,0.0,0.0,0.0,0.0,0.0,0.0,0.0,0.0,0.0,0.0,0.0,0.0,0.0,0.0,0.0,0.0,0.0,0.0,0.0,0.0,0.0,0.0,0.0,0.0,0.0,0.0,0.0,0.0,0.0,0.0,0.0,0.0,0.0,0.0,0.0,0.0,0.0,0.0,0.0,0.0,0.0,0.0,0.0,0.0,0.0,0.0,0.0,0.0,0.0,0.0,0.0,0.0,0.0,0.0,0.0,0.0,0.0,0.0,0.0,0.0,0.0,0.0,0.0,0.0,0.0,0.0,0.0,0.0,0.0,0.0,0.0,0.0,0.0,0.0,0.0,0.0,0.0,0.0,0.0,0.0,0.0,0.0,0.0,0.0,0.0,0.0,0.0,0.0,0.0,0.0,0.0,0.0,0.0,0.0,0.0,0.0,0.0,0.0,0.0,0.0,0.0,0.0,0.0,0.0,0.0,0.0,0.0,0.0,0.0,0.0,0.0,0.0,0.0,0.0,0.0,0.0,0.0,0.0,0.0,0.0,0.0,0.0,0.0,0.0,0.0,0.0,0.0,0.0,0.0,0.0,0.0,0.0,0.0,0.0,0.0,0.0,0.0,0.0,0.0,0.0,0.0,0.0,0.0,0.0,0.0,0.0,0.0,0.0,0.0,0.0,0.0,0.0,0.0,0.0,0.0,0.0,0.0,0.0,0.0,0.0,0.0,0.0,0.0,0.0,0.0,0.0,0.0,0.0,0.0,0.0,0.0,0.0,0.0,0.0,0.0,0.0,0.0,0.0,0.0,0.0,0.0,0.0,0.0,0.0,0.0,0.0,0.0,0.0,0.0,0.0,0.0,0.0,0.0,0.0,0.0,0.0,0.0,0.0,0.0,0.0,0.0,0.0,0.0,0.0,0.0,0.0,0.0,0.0,0.0,0.0,0.0,0.0,0.0,0.0,0.0,0.0,0.0,0.0,0.0,0.0,0.0,0.0,0.0,0.0,0.0,0.0,0.0,0.0,0.0,0.0,0.0,0.0,0.0,0.0,0.0,0.0,0.0,0.0,0.0,0.0,0.0,0.0,0.0,0.0,0.0,0.0,0.0,0.0,0.0,0.0,0.0,0.0,0.0,0.0,0.0,0.0,0.0,0.0,0.0,0.0,0.0,0.0,0.0,0.0,0.0,0.0,0.0,0.0,0.0,0.0,0.0,0.0,0.0,0.0,0.0,0.0,0.0,0.0,0.0,0.0,0.0,0.0,0.0,0.0,0.0,0.0,0.0,0.0,0.0,0.0,0.0,0.0,0.0,0.0,0.0,0.0,0.0,0.0,0.0,0.0,0.0,0.0,0.0,0.0,0.0,0.0,0.0,0.0,0.0,0.0,0.0,0.0,0.0,0.0,0.0,0.0,0.0,0.0,0.0,0.0,0.0,0.0,0.0,0.0,0.0,0.0,0.0,0.0,0.0,0.0,0.0,0.0,0.0,0.0,0.0,0.0,0.0,0.0,0.0,0.0,0.0,0.0,0.0,0.0,0.0,0.0,0.0,0.0,0.0,0.0,0.0,0.0,0.0,0.0,0.0,0.0,0.0,0.0,0.0,0.0,0.0,0.0,0.0,0.0,0.0,0.0,0.0,0.0,0.0,0.0,0.0,0.0,0.0,0.0,0.0,0.0,0.0,0.0,0.0,0.0,0.0,0.0,0.0,0.0,0.0,0.0,0.0,0.0,0.0,0.0,0.0,0.0,0.0,0.0,0.0,0.0,0.0,0.0,0.0,0.0,0.0,0.0,0.0,0.0,0.0,0.0,0.0,0.0,0.0,0.0,0.0,0.0,0.0,0.0,0.0,0.0,0.0,0.0,0.0,0.0,0.0,0.0,0.0,0.0,0.0,0.0,0.0,0.0,0.0,0.0,0.0,0.0,0.0,0.0,0.0,0.0,0.0,0.0,0.0,0.0,0.0,0.0,0.0,0.0,0.0,0.0,0.0,0.0,0.0,0.0,0.0,0.0,0.0,0.0,0.0,0.0,0.0,0.0,0.0,0.0,0.0,0.0,0.0,0.0,0.0,0.0,0.0,0.0,0.0,0.0,0.0,0.0,0.0,0.0,0.0,0.0,0.0,0.0,0.0,0.0,0.0,0.0,0.0,0.0,0.0,0.0,0.0,0.0,0.0,0.0,0.0,0.0,0.0,0.0,0.0,0.0,0.0,0.0,0.0,0.0,0.0,0.0,0.0,0.0,0.0,0.0,0.0,0.0,0.0,0.0,0.0,0.0,0.0,0.0,0.0,0.0,0.0,0.0,0.0,0.0,0.0,0.0,0.0,0.0,0.0,0.0,0.0,0.0,0.0,0.0,0.0,0.0,0.0,0.0,0.0,0.0,0.0,0.0,0.0,0.0,0.0,0.0,0.0,0.0,0.0,0.0,0.0,0.0,0.0,0.0,0.0,0.0,0.0,0.0,0.0,0.0,0.0,0.0,0.0,0.0,0.0,0.0,0.0,0.0,0.0,0.0,0.0,0.0,0.0,0.0,0.0,0.0,0.0,0.0,0.0,0.0,0.0,0.0,0.0,0.0,0.0,0.0,0.0,0.0,0.0,0.0,0.0,0.0,0.0,0.0,0.0,0.0,0.0,0.0,0.0,0.0,0.0,0.0,0.0,0.0,0.0,0.0,0.0,0.0,0.0,0.0,0.0,0.0,0.0,0.0,0.0,0.0,0.0,0.0,0.0,0.0,0.0,0.0,0.0,0.0,0.0,0.0,0.0,0.0,0.0,0.0,0.0,0.0,0.0,0.0,0.0,0.0,0.0,0.0,0.0,0.0,0.0,0.0,0.0,0.0,0.0,0.0,0.0,0.0,0.0,0.0,0.0,0.0,0.0,0.0,0.0,0.0,0.0,0.0,0.0,0.0,0.0,0.0,0.0,0.0,0.0,0.0,0.0,0.0,0.0,0.0,0.0,0.0,0.0,0.0,0.0,0.0,0.0,0.0,0.0,0.0,0.0,0.0,0.0,0.0,0.0,0.0,0.0,0.0,0.0,0.0,0.0,0.0,0.0,0.0,0.0,0.0,0.0,0.0,0.0,0.0,0.0,0.0,0.0,0.0,0.0,0.0,0.0,0.0,0.0,0.0,0.0,0.0,0.0,0.0,0.0,0.0,0.0,0.0,0.0,0.0,0.0,0.0,0.0,0.0,0.0,0.0,0.0,0.0,0.0,0.0,0.0,0.0,0.0,0.0,0.0,0.0,0.0,0.0,0.0,0.0,0.0,0.0,0.0,0.0,0.0,0.0,0.0,0.0,0.0,0.0,0.0,0.0,0.0,0.0,0.0,0.0,0.0,0.0,0.0,0.0,0.0,0.0,0.0,0.0,0.0,0.0,0.0,0.0,0.0,0.0,0.0,0.0,0.0,0.0,0.0,0.0,0.0,0.0,0.0,0.0,0.0,0.0,0.0,0.0,0.0,0.0,0.0,0.0,0.0,0.0,0.0,0.0,0.0,0.0,0.0,0.0,0.0,0.0,0.0,0.0,0.0,0.0,0.0,0.0,0.0,0.0,0.0,0.0,0.0,0.0,0.0,0.0,0.0,0.0,0.0,0.0,0.0,0.0,0.0,0.0,0.0,0.0,0.0,0.0,0.0,0.0,0.0,0.0,0.0,0.0,0.0,0.0,0.0,0.0,0.0,0.0,0.0,0.0,0.0,0.0,0.0,0.0,0.0,0.0,0.0,0.0,0.0,0.0,0.0,0.0,0.0,0.0,0.0,0.0,0.0,0.0,0.0,0.0,0.0,0.0,0.0,0.0,0.0,0.0,0.0,0.0,0.0,0.0,0.0,0.0,0.0,0.0,0.0,0.0,0.0,0.0,0.0,0.0,0.0,0.0,0.0,0.0,0.0,0.0,0.0,0.0,0.0,0.0,0.0,0.0,0.0,0.0,0.0,0.0,0.0,0.0,0.0,0.0,0.0,0.0,0.0,0.0,0.0,0.0,0.0,0.0,0.0,0.0,0.0,0.0,0.0,0.0,0.0,0.0,0.0,0.0,0.0,0.0,0.0,0.0,0.0,0.0,0.0,0.0,0.0,0.0,0.0,0.0,0.0,0.0,0.0,0.0,0.0,0.0,0.0,0.0,0.0,0.0,0.0,0.0,0.0,0.0,0.0,0.0,0.0,0.0,0.0,0.0,0.0,0.0,0.0,0.0,0.0,0.0,0.0,0.0,0.0,0.0,0.0,0.0,0.0,0.0,0.0,0.0,0.0,0.0,0.0,0.0,0.0,0.0,0.0,0.0,0.0,0.0,0.0,0.0,0.0,0.0,0.0,0.0,0.0,0.0,0.0,0.0,0.0,0.0,0.0,0.0,0.0,0.0,0.0,0.0,0.0,0.0,0.0,0.0,0.0,0.0,0.0,0.0,0.0,0.0,0.0,0.0,0.0,0.0,0.0,0.0,0.0,0.0,0.0,0.0,0.0,0.0,0.0,0.0,0.0,0.0,0.0,0.0,0.0,0.0,0.0,0.0,0.0,0.0,0.0,0.0,0.0,0.0,0.0,0.0,0.0,0.0,0.0,0.0,0.0,0.0,0.0,0.0,0.0,0.0,0.0,0.0,0.0,0.0,0.0,0.0,0.0,0.0,0.0,0.0,0.0,0.0,0.0,0.0,0.0,0.0,0.0,0.0,-3.8296,-3.8759,0.0,0.0,0.0,0.0,0.0,0.0,0.0,0.0,0.0,0.0,0.0,0.0,0.0,0.0,0.0,0.0,0.0,0.0,0.0,0.0,0.0,0.0,0.0,0.0,0.0,0.0,0.0,0.0,0.0,0.0,0.0,0.0,0.0,0.0,0.0,0.0,0.0,0.0,0.0,0.0,0.0,0.0,0.0,0.0,0.0,0.0,0.0,0.0,0.0,0.0,0.0,0.0,0.0,0.0,0.0,0.0,0.0,0.0,0.0,0.0,0.0,0.0,0.0,0.0,0.0,0.0,0.0,0.0,0.0,0.0,0.0,0.0,0.0,0.0,0.0,0.0,0.0,0.0,0.0,0.0,0.0,0.0,0.0,0.0,0.0,0.0,0.0,0.0,0.0,0.0,0.0,0.0,0.0,0.0,0.0,0.0,0.0,0.0,0.0,0.0,0.0,0.0,0.0,0.0,0.0,0.0,0.0,0.0,0.0,0.0,-3.9123,-3.9294,0.0,0.0,0.0,0.0,0.0,0.0,0.0,0.0,0.0,0.0,0.0,0.0,0.0,0.0,0.0,0.0,0.0,0.0,0.0,0.0,0.0,0.0,0.0,0.0,0.0,0.0,0.0,0.0,0.0,0.0,0.0,0.0,0.0,0.0,0.0,0.0,0.0,0.0,0.0,0.0,0.0,0.0,0.0,0.0,0.0,0.0,0.0,0.0,0.0,0.0,0.0,0.0,0.0,0.0,0.0,0.0,0.0,0.0,0.0,0.0,0.0,0.0,0.0,0.0,0.0,0.0,0.0,0.0,0.0,0.0,0.0,0.0,0.0,0.0,0.0,0.0,0.0,0.0,0.0,0.0,0.0,0.0,0.0,0.0,0.0,0.0,0.0,0.0,0.0,0.0,0.0,0.0,0.0,0.0,0.0,0.0,0.0,0.0,0.0,0.0,0.0,0.0,0.0,0.0,-4.2739,-4.3181,-4.6471,-4.5855,-4.4047,-4.1306,-4.0074,-3.9551,-3.9276,-3.6009,0.0,0.0,0.0,0.0,0.0,0.0,0.0,0.0,0.0,0.0,0.0,0.0,0.0,0.0,0.0,0.0,0.0,0.0,0.0,0.0,0.0,0.0,0.0,0.0,0.0,0.0,0.0,0.0,0.0,0.0,0.0,0.0,0.0,0.0,0.0,0.0,0.0,0.0,0.0,0.0,0.0,0.0,0.0,0.0,0.0,0.0,0.0,0.0,0.0,0.0,0.0,0.0,0.0,0.0,0.0,0.0,0.0,0.0,0.0,0.0,0.0,0.0,0.0,0.0,0.0,0.0,0.0,0.0,0.0,0.0,0.0,0.0,0.0,0.0,0.0,0.0,0.0,0.0,0.0,0.0,0.0,0.0,-3.9316,-3.972,0.0,0.0,0.0,0.0,0.0,0.0,0.0,0.0,0.0,0.0,0.0,0.0,0.0,-4.1258,-4.4239,-4.4259,-4.472,-4.5586,-4.5124,-4.6721,-4.9913,-4.6951,-4.5336,-4.4841,-4.3482,0.0,-4.2616,-3.9386,0.0,0.0,0.0,0.0,0.0,0.0,0.0,0.0,0.0,0.0,0.0,0.0,0.0,0.0,0.0,0.0,0.0,0.0,0.0,0.0,0.0,0.0,0.0,0.0,0.0,0.0,0.0,0.0,0.0,0.0,0.0,0.0,0.0,0.0,0.0,0.0,0.0,0.0,0.0,0.0,0.0,0.0,0.0,0.0,0.0,0.0,0.0,0.0,0.0,0.0,0.0,0.0,0.0,0.0,0.0,0.0,0.0,0.0,0.0,0.0,0.0,0.0,0.0,0.0,0.0,0.0,0.0,0.0,0.0,0.0,0.0,0.0,0.0,0.0,0.0,0.0,0.0,0.0,0.0,0.0,0.0,-3.998,-4.4785,-4.6699,-4.3759,-4.0039,0.0,0.0,0.0,0.0,0.0,0.0,0.0,0.0,0.0,-4.1123,-4.2604,-4.5009,-4.8432,-4.8471,-4.8471,-4.8471,-4.8471,-4.924,-5.0644,-4.9144,-4.7968,-4.6993,-4.4535,-4.4525,-4.5957,-4.2708,-3.9478,-3.656,0.0,0.0,0.0,0.0,-3.7459,-3.8487,-3.7055,-3.7496,-3.8707,-3.8707,0.0,0.0,0.0,0.0,0.0,0.0,0.0,-3.689,-3.834,-1.9455,0.0,0.0,0.0,0.0,0.0,0.0,0.0,0.0,0.0,0.0,0.0,0.0,0.0,0.0,0.0,0.0,0.0,0.0,0.0,0.0,0.0,0.0,0.0,0.0,0.0,0.0,0.0,0.0,0.0,0.0,0.0,0.0,0.0,0.0,0.0,0.0,0.0,0.0,0.0,0.0,0.0,0.0,0.0,0.0,0.0,0.0,0.0,0.0,0.0,0.0,0.0,0.0,0.0,0.0,0.0,0.0,0.0,0.0,0.0,-4.2832,-4.6582,-5.0898,-4.6816,-4.1641,0.0,0.0,0.0,0.0,0.0,0.0,-3.8463,-4.0595,-4.3355,-4.6797,-4.6894,-4.8125,-5.0664,-5.0702,-5.0702,-5.0702,-5.0702,-5.0702,-5.0664,-4.9779,-4.8555,-4.6948,-4.4525,-4.4856,-4.6893,-4.4488,-4.2084,-3.9845,-3.9019,-3.8707,-3.8707,-3.8707,-3.8707,-3.8707,-3.8707,-3.8707,-3.8707,-3.8707,-3.9953,-4.0735,-3.6792,0.0,0.0,0.0,0.0,-3.7895,-3.7895,-1.9038,0.0,0.0,0.0,0.0,0.0,0.0,0.0,0.0,0.0,0.0,0.0,0.0,0.0,0.0,0.0,0.0,0.0,0.0,0.0,0.0,0.0,0.0,0.0,0.0,0.0,0.0,0.0,0.0,0.0,0.0,0.0,0.0,0.0,0.0,0.0,0.0,0.0,0.0,0.0,0.0,0.0,0.0,0.0,0.0,0.0,0.0,0.0,0.0,0.0,0.0,0.0,0.0,0.0,0.0,0.0,0.0,0.0,0.0,0.0,0.0,0.0,-5.0605,-4.2598,0.0,0.0,0.0,0.0,-4.0684,-4.3945,-4.5592,-4.5128,-4.5274,-4.6894,-5.0337,-5.0433,-5.0529,-5.0702,-5.0702,-5.0702,-5.0702,-5.0702,-5.0702,-5.0587,-4.7336,-4.5081,-4.3718,-4.3552,-4.3571,-4.3718,-4.3552,-4.3387,-4.2947,-3.9882,-3.8707,-3.8707,-3.8707,-3.8707,-3.8707,-3.8707,-3.8707,-3.8707,-3.8707,-3.7449,-3.597,-3.5656,-3.552,0.0,0.0,-3.5694,-3.5783,-3.5783,-1.7985,0.0,0.0,0.0,0.0,0.0,0.0,0.0,0.0,0.0,0.0,0.0,0.0,0.0,0.0,0.0,0.0,0.0,0.0,0.0,0.0,0.0,0.0,0.0,0.0,0.0,0.0,0.0,0.0,0.0,0.0,0.0,0.0,0.0,0.0,0.0,0.0,0.0,0.0,0.0,0.0,0.0,0.0,0.0,0.0,0.0,0.0,0.0,0.0,0.0,0.0,0.0,0.0,0.0,0.0,0.0,0.0,0.0,0.0,0.0,0.0,0.0,-5.0586,-4.4277,0.0,-4.5488,-4.3926,-4.4062,-4.7519,-4.8887,-4.9391,-4.8911,-4.8875,-4.9433,-5.0644,-5.0702,-5.0702,-5.0702,-5.0702,-5.0702,-5.0702,-5.0702,-4.9548,-4.7375,-4.6144,-4.4834,-4.3497,-4.3497,-4.3497,-4.3497,-4.3497,-4.3497,-4.3387,-4.2231,-4.0524,-3.8707,-3.8707,-3.8707,-3.8707,-3.8707,-3.8707,-3.8707,-3.8707,-3.7268,-3.5622,-3.5622,-3.5622,-3.5622,-3.5622,-3.5622,-3.5924,-3.7248,-1.8878,0.0,0.0,0.0,0.0,0.0,0.0,0.0,0.0,0.0,0.0,0.0,0.0,0.0,0.0,0.0,0.0,0.0,0.0,0.0,0.0,0.0,0.0,0.0,0.0,0.0,0.0,0.0,0.0,0.0,0.0,0.0,0.0,0.0,0.0,0.0,0.0,0.0,0.0,0.0,0.0,0.0,0.0,0.0,0.0,0.0,0.0,0.0,0.0,0.0,0.0,0.0,0.0,0.0,0.0,0.0,0.0,0.0,0.0,0.0,-4.0742,-4.5039,-5.0723,-4.8437,-4.8183,-5.2715,-5.0039,-4.9453,-5.2891,-5.3144,-5.2434,-5.0779,-5.0702,-5.0702,-5.0702,-5.0702,-5.0702,-5.0702,-5.0702,-5.0702,-5.0683,-4.9529,-4.7778,-4.5586,-4.5586,-4.508,-4.4175,-4.3712,-4.3497,-4.3497,-4.3497,-4.3497,-4.3497,-4.3497,-4.2194,-4.0322,-4.0322,-3.9625,-3.8707,-3.8707,-3.8707,-3.8707,-3.8707,-3.7773,-3.6666,-3.6666,-3.6666,-3.6504,-3.581,-3.5622,-3.5924,-3.7323,-2.4898,-0.998,-0.1911,0.0,0.0,0.0,0.0,0.0,0.0,0.0,0.0,0.0,0.0,0.0,0.0,0.0,0.0,0.0,0.0,0.0,0.0,0.0,0.0,0.0,0.0,0.0,0.0,0.0,0.0,0.0,0.0,0.0,0.0,0.0,0.0,0.0,0.0,0.0,0.0,0.0,0.0,0.0,0.0,0.0,0.0,0.0,0.0,0.0,0.0,0.0,0.0,0.0,0.0,0.0,0.0,0.0,0.0,0.0,0.0,-4.1284,-4.4297,-4.7695,-5.1016,-5.4375,-5.6445,-5.6445,-5.3379,-5.2851,-5.6348,-5.6581,-5.4846,-5.0894,-5.0702,-5.0702,-5.0702,-5.0702,-5.0702,-5.0702,-5.0702,-5.0644,-5.0491,-4.7182,-4.5586,-4.5586,-4.5586,-4.5586,-4.5531,-4.4146,-4.3582,-4.3563,-4.3513,-4.3497,-4.3497,-4.3497,-4.3497,-4.3479,-4.3387,-4.1368,-3.8707,-3.8707,-3.8707,-3.8707,-3.8707,-3.8707,-3.8707,-3.8707,-3.8658,-3.8201,-3.6165,-3.5622,-3.5622,-3.5622,-3.5622,-2.96,-0.5683,0.0,0.0,0.0,0.0,0.0,0.0,0.0,0.0,0.0,0.0,0.0,0.0,0.0,0.0,0.0,0.0,0.0,0.0,0.0,0.0,0.0,0.0,0.0,0.0,0.0,0.0,0.0,0.0,0.0,0.0,0.0,0.0,0.0,0.0,0.0,0.0,0.0,0.0,0.0,0.0,0.0,0.0,0.0,0.0,0.0,0.0,0.0,0.0,0.0,0.0,0.0,0.0,0.0,0.0,-4.2035,-4.435,-4.4838,-4.7832,-5.0351,-5.1289,-5.2246,-5.2832,-5.2832,-5.1953,-5.2851,-5.6348,-5.6193,-5.4407,-5.0895,-5.0702,-5.0702,-5.0702,-5.0702,-5.0702,-5.0702,-5.0702,-4.9452,-4.699,-4.6047,-4.5586,-4.5586,-4.5586,-4.5586,-4.5586,-4.5203,-4.5014,-4.4928,-4.3912,-4.3497,-4.3497,-4.3497,-4.3497,-4.3204,-4.0873,-3.946,-3.8707,-3.8707,-3.8707,-3.8707,-3.8707,-3.8707,-3.8707,-3.8707,-3.7667,-3.6357,-3.5766,-3.5622,-3.5622,-3.5622,-3.5622,-2.96,-0.5683,0.0,0.0,0.0,0.0,0.0,0.0,0.0,0.0,0.0,0.0,0.0,0.0,0.0,0.0,0.0,0.0,0.0,0.0,0.0,0.0,0.0,0.0,0.0,0.0,0.0,0.0,0.0,0.0,0.0,0.0,0.0,0.0,0.0,0.0,0.0,0.0,0.0,0.0,0.0,0.0,0.0,0.0,0.0,0.0,0.0,0.0,0.0,0.0,0.0,0.0,0.0,0.0,0.0,0.0,-4.5674,-4.8109,-4.8396,-5.0156,-5.1406,-5.1406,-5.1406,-5.1406,-5.1406,-5.2715,-5.4414,-5.6445,-5.4929,-5.2967,-5.0818,-5.0702,-5.0702,-5.0702,-5.0702,-5.001,-4.8567,-4.8548,-4.7567,-4.5586,-4.5586,-4.5586,-4.5586,-4.5586,-4.5586,-4.5586,-4.5586,-4.4778,-4.3363,-4.2025,-4.1479,-4.1625,0.0,0.0,0.0,0.0,-3.8707,-3.8707,-3.8707,-3.8707,-3.8707,-3.8707,-3.8707,-3.8707,-3.8707,-3.7861,-3.6706,-3.5854,-3.5622,-3.5622,-3.5622,-3.5622,-2.96,-0.5683,0.0,0.0,0.0,0.0,0.0,0.0,0.0,0.0,0.0,0.0,0.0,0.0,0.0,0.0,0.0,0.0,0.0,0.0,0.0,0.0,0.0,0.0,0.0,0.0,0.0,0.0,0.0,0.0,0.0,0.0,0.0,0.0,0.0,0.0,0.0,0.0,0.0,0.0,0.0,0.0,0.0,0.0,0.0,0.0,0.0,0.0,0.0,0.0,0.0,0.0,0.0,0.0,0.0,0.0,-4.8906,-5.1406,-5.1406,-5.1406,-5.1406,-5.1406,-5.1406,-5.1406,-5.1406,-5.4199,-5.6015,-5.6015,-5.3102,-5.114,-5.0721,-5.0702,0.0,0.0,0.0,-4.9048,-4.5624,-4.5586,-4.5586,-4.5586,-4.5586,-4.5586,-4.5586,-4.5586,-4.5374,-4.5009,-4.5009,-4.3227,-4.0211,-3.9154,-3.8707,-3.8982,-4.1827,-4.1203,-3.8707,-3.8707,-3.8707,-3.8707,-3.8707,0.0,0.0,-3.8707,-3.8707,-3.8707,-3.8707,-3.8707,-3.8285,-3.619,-3.5385,-3.5115,-3.5115,-3.5115,-2.9178,-0.5599,0.0,0.0,0.0,0.0,0.0,0.0,0.0,0.0,0.0,0.0,0.0,0.0,0.0,0.0,0.0,0.0,0.0,0.0,0.0,0.0,0.0,0.0,0.0,0.0,0.0,0.0,0.0,0.0,0.0,0.0,0.0,0.0,0.0,0.0,0.0,0.0,0.0,0.0,0.0,0.0,0.0,0.0,0.0,0.0,0.0,0.0,0.0,0.0,0.0,0.0,0.0,0.0,0.0,-4.5857,-4.9117,-5.1406,-5.1406,-5.1406,-5.1406,-5.1406,-5.1406,-5.1406,-5.1406,-5.2012,-5.2402,-5.2402,-5.1425,-5.0805,-5.0702,-5.0702,-5.0702,-5.0702,-5.0702,-4.9048,-4.5624,-4.5586,-4.5586,-4.5586,-4.5586,0.0,-4.5586,-4.5586,-4.4085,-4.1489,-4.1489,-4.0554,-3.9036,-3.8792,-3.8707,-3.8762,-3.9386,-3.9258,-3.8707,-3.8707,-3.8707,-3.8707,-3.8707,-3.8707,-3.8707,-3.8707,-3.8707,-3.8707,-3.8707,-3.8707,0.0,-3.619,-3.3897,-3.2053,-3.2053,-3.2053,-2.664,-0.5108,0.0,0.0,0.0,0.0,0.0,0.0,0.0,0.0,0.0,0.0,0.0,0.0,0.0,0.0,0.0,0.0,0.0,0.0,0.0,0.0,0.0,0.0,0.0,0.0,0.0,0.0,0.0,0.0,0.0,0.0,0.0,0.0,0.0,0.0,0.0,0.0,0.0,0.0,0.0,0.0,0.0,0.0,0.0,0.0,0.0,0.0,0.0,0.0,0.0,-3.6582,-3.8281,0.0,-4.6855,-4.8574,-5.0293,-5.1406,-5.1406,-5.1406,-5.1406,-5.1406,-5.1406,-5.1406,-5.1406,-5.1406,-5.1406,-5.1406,-5.0965,-5.0702,-5.0702,-5.0702,-5.0702,-5.0702,-5.0702,-4.9048,-4.5624,-4.5586,-4.5586,-4.5586,-4.5586,-4.5586,-4.5586,-4.5586,-4.372,-4.0489,-4.0489,-4.0157,-3.9552,-3.896,-3.8707,-3.8707,-3.8707,-3.8707,-3.8707,-3.8707,-3.8707,-3.8707,-3.8707,-3.8707,-3.8707,-3.8707,-3.8707,-3.8707,-3.8707,-3.8707,-3.8136,-3.5455,-3.302,-3.119,-3.119,-3.119,-2.593,-0.4973,0.0,0.0,0.0,0.0,0.0,0.0,0.0,0.0,0.0,0.0,0.0,0.0,0.0,0.0,0.0,0.0,0.0,0.0,0.0,0.0,0.0,0.0,0.0,0.0,0.0,0.0,0.0,0.0,0.0,0.0,0.0,0.0,0.0,0.0,0.0,0.0,0.0,0.0,0.0,0.0,0.0,0.0,0.0,0.0,0.0,-3.6675,-4.1191,-4.1191,-4.1738,-4.2187,-4.2187,-4.498,-4.8183,-5.0957,-5.1406,-5.1406,-5.1406,-5.1406,-5.1406,-5.1406,-5.1406,-5.1406,-5.1406,-5.1406,-5.1406,-5.1406,-5.1055,-5.0786,-5.0702,-5.0702,-5.0394,-4.9721,-4.9702,-4.8375,-4.5624,-4.5586,-4.5259,-4.4605,-4.4605,-4.4605,-4.4605,-4.4605,-4.3104,-4.0489,-4.0248,-4.0157,-4.0063,-3.91,-3.8707,-3.8707,-3.8707,-3.8707,-3.8707,-3.8707,-3.8707,-3.8707,-3.8707,-3.8707,-3.8707,-3.8707,-3.8707,-3.8707,-3.8707,-3.8707,-3.8028,-3.4724,-3.2791,-3.162,-3.1291,-3.119,-2.6945,-1.0064,-0.296,0.0,0.0,0.0,0.0,0.0,0.0,0.0,0.0,0.0,0.0,0.0,0.0,0.0,0.0,0.0,0.0,0.0,0.0,0.0,0.0,0.0,0.0,0.0,0.0,0.0,0.0,0.0,0.0,0.0,0.0,0.0,0.0,0.0,0.0,0.0,0.0,0.0,-3.1273,-3.3885,-3.5641,-3.8623,-3.5411,-3.2134,0.0,-3.8207,-4.1191,-4.1191,-4.3613,-4.5723,-4.5723,-4.8516,-5.0957,-5.1348,-5.1406,-5.1406,-5.1406,-5.1406,-5.1406,-5.1406,-5.1406,-5.1406,-5.1406,-5.1406,-5.1406,-5.1406,-5.1343,-5.114,-5.0721,-5.0702,-4.9298,-4.6259,-4.6163,-4.599,-4.5586,-4.5586,-4.4066,-4.1066,-4.1066,-4.1066,-4.1066,-4.1066,-4.0854,-4.0438,-3.9377,-3.8902,-3.8873,-3.875,-3.8707,-3.8707,-3.8707,-3.8707,-3.8707,-3.8707,-3.8707,-3.8707,-3.8707,-3.8707,-3.8707,-3.8707,-3.8707,-3.8707,-3.8707,-3.8707,-3.8028,-3.4724,-3.3662,-3.3148,-3.1582,-3.119,-3.0598,-2.8264,-1.3515,0.0,0.0,0.0,0.0,0.0,0.0,0.0,0.0,0.0,0.0,0.0,0.0,0.0,0.0,0.0,0.0,0.0,0.0,0.0,0.0,0.0,0.0,0.0,0.0,0.0,0.0,0.0,0.0,0.0,0.0,0.0,0.0,0.0,0.0,0.0,0.0,0.0,-2.9769,-3.1751,-3.3353,-3.6738,-3.693,-3.6642,-3.8084,-3.9654,-4.1364,-4.3355,-4.49,-4.5982,-4.6246,-4.9082,-5.1406,-5.1406,-5.1406,-5.1406,-5.1406,-5.1406,-5.1406,-5.1406,-5.1406,-5.1406,-5.1406,-5.1406,-5.1406,-5.1406,-5.1147,-5.0907,-5.0721,-4.8798,-4.7067,-4.5643,-4.5586,-4.4624,-4.2643,-4.2624,-4.1912,-4.0489,-4.0489,-4.0489,-4.0489,-4.0489,-4.012,-3.9408,-3.8931,-3.8707,-3.8707,-3.8707,-3.8707,-3.8707,-3.8707,-3.8707,-3.8707,-3.8707,-3.8707,-3.8707,-3.8707,-3.8707,-3.8707,-3.8707,-3.8707,-3.8707,-3.8707,-3.8707,-3.8028,-3.4724,-3.3807,-3.3634,-3.2885,-3.195,-3.119,-3.119,-1.5223,0.0,0.0,0.0,0.0,0.0,0.0,0.0,0.0,0.0,0.0,0.0,0.0,0.0,0.0,0.0,0.0,0.0,0.0,0.0,0.0,0.0,0.0,0.0,0.0,0.0,0.0,0.0,0.0,0.0,0.0,0.0,0.0,0.0,0.0,0.0,0.0,0.0,-2.7053,-2.9476,-3.2,-3.4798,-3.8027,-4.0489,-4.0489,-4.0489,-4.12,-4.3682,-4.4932,-4.5703,-4.604,-4.8133,-5.0145,-5.123,-5.1406,-5.1406,-5.1406,-5.1406,-5.1406,-5.1406,-5.0566,-5.0351,-5.1308,-5.0547,-4.998,-4.998,-4.9681,-4.944,-4.9298,-4.6951,-4.5586,-4.5586,-4.4682,-4.2989,-4.0508,-4.0489,-4.0489,-4.0489,-4.0489,-4.0489,-4.0489,-4.0157,-3.9529,-3.8707,-3.8707,-3.8707,-3.8707,-3.8707,-3.8707,-3.8707,-3.8707,-3.8707,-3.8707,-3.8707,-3.8707,-3.8707,-3.8707,-3.8707,-3.8707,-3.8707,-3.8707,-3.8707,-3.8707,-3.8707,-3.8028,-3.4724,-3.3807,-3.3807,-3.3807,-3.2854,-3.1914,-3.1914,-1.5575,0.0,0.0,0.0,0.0,0.0,0.0,0.0,0.0,0.0,0.0,0.0,0.0,0.0,0.0,0.0,0.0,0.0,0.0,0.0,0.0,0.0,0.0,0.0,0.0,0.0,0.0,0.0,0.0,0.0,0.0,0.0,0.0,0.0,0.0,0.0,0.0,0.0,-2.4318,-2.8911,-3.4006,-3.52,-3.8027,-4.0489,-4.0489,-4.0489,-4.0527,-4.0623,-4.3278,-4.5603,-4.5637,-4.5714,-4.701,-5.0793,-5.1406,-5.1406,-5.1406,-5.1406,-5.1406,-5.1406,-4.8476,-4.7754,-5.1074,-4.8398,-4.6445,-4.6445,-4.6445,-4.624,-4.5772,-4.5643,-4.5586,-4.5586,-4.2374,-4.0585,-4.0489,-4.0489,-4.0489,-4.0489,-4.0489,-4.0489,-4.0473,-3.9294,-3.8719,-3.8707,-3.8707,-3.8707,-3.8707,-3.8707,-3.8707,-3.8707,-3.8707,-3.8707,-3.8707,-3.8707,-3.8707,-3.8707,-3.8707,-3.8707,-3.8707,-3.8707,-3.8707,-3.8707,-3.8707,-3.8707,-3.8028,-3.4724,-3.3807,-3.3807,-3.3807,-3.3762,-3.3734,-3.3734,-1.6455,0.0,0.0,0.0,0.0,0.0,0.0,0.0,0.0,0.0,0.0,0.0,0.0,0.0,0.0,0.0,0.0,0.0,0.0,0.0,0.0,0.0,0.0,0.0,0.0,0.0,0.0,0.0,0.0,0.0,0.0,0.0,0.0,0.0,0.0,0.0,0.0,0.0,-2.3955,-2.8888,-3.3876,-3.4265,-3.5779,-3.7777,-3.9988,-4.0489,-4.0489,-4.0489,-4.1412,-4.2999,-4.5585,-4.5808,-4.6118,-4.7747,-4.9922,-5.1406,-5.1406,-5.1406,-5.0566,-4.8281,-4.6992,-4.6758,-4.7891,-4.6973,-4.6308,-4.6308,-4.6013,-4.5764,-4.5603,-4.5586,-4.5586,-4.5586,-4.447,-4.2777,-4.0508,-4.0489,-4.0489,-4.0489,-4.0489,-4.0489,-4.0473,-3.9242,-3.8707,-3.8707,-3.8707,-3.8707,-3.8707,-3.8707,-3.8707,-3.8707,-3.8707,-3.8707,-3.8707,-3.8707,-3.8707,-3.8707,-3.8707,-3.8707,-3.8707,-3.8707,-3.8707,-3.8303,-3.6119,-3.5459,-3.522,-3.41,-3.3807,-3.3807,-3.3807,-3.3807,-3.3504,-3.2332,-1.5644,0.0,0.0,0.0,0.0,0.0,0.0,0.0,0.0,0.0,0.0,0.0,0.0,0.0,0.0,0.0,0.0,0.0,0.0,0.0,0.0,0.0,0.0,0.0,0.0,0.0,0.0,0.0,0.0,0.0,0.0,0.0,0.0,0.0,0.0,0.0,0.0,0.0,-2.5915,-3.0188,-3.3807,-3.3807,-3.4656,-3.6392,-3.9738,-4.0489,-4.0489,-4.0489,-4.0489,-4.0893,-4.2208,-4.2194,-4.2883,-4.5616,-4.8932,-5.121,-5.1386,-5.1406,-5.0586,-4.8379,-4.7031,-4.6777,-4.8008,-4.7012,-4.6308,-4.6308,-4.5869,-4.5586,-4.5586,-4.5586,-4.5586,-4.5586,-4.4412,-4.272,-4.0508,-4.0489,-4.0489,-4.0489,-4.0489,-4.0489,-4.0473,-3.9242,-3.8707,-3.8707,-3.8707,-3.8707,-3.8707,-3.8707,-3.8707,-3.8707,-3.8707,-3.8707,-3.8707,-3.8707,-3.8707,-3.8707,-3.8707,-3.8707,-3.8707,-3.8707,-3.7918,-3.656,-3.4449,-3.3807,-3.3807,-3.3807,-3.3807,-3.3807,-3.3807,-3.3807,-3.3372,-3.162,-2.0923,-0.91,-0.1607,0.0,0.0,0.0,0.0,0.0,0.0,0.0,0.0,0.0,0.0,0.0,0.0,0.0,0.0,0.0,0.0,0.0,0.0,0.0,0.0,0.0,0.0,0.0,0.0,0.0,0.0,0.0,0.0,0.0,0.0,0.0,0.0,0.0,0.0,0.0,-2.9748,-3.2533,-3.3815,-3.385,-3.4696,-3.6392,-3.9738,-4.0489,-4.0489,-4.0489,-4.0489,-3.9411,-3.5892,-3.5378,-3.7661,-4.4259,-4.8048,-5.0332,-5.0814,-5.1172,-5.1406,-5.1406,-4.8535,-4.7832,-5.1094,-4.8301,-4.6308,-4.6308,-4.589,-4.5618,-4.5603,-4.5586,-4.5509,-4.5336,-4.2181,-4.0489,-4.0489,-4.0489,-4.0489,-4.0489,-4.0489,-4.0489,-4.0473,-3.9242,-3.8707,-3.8707,-3.8707,-3.8707,-3.8707,-3.8707,-3.8707,-3.8707,-3.8707,-3.8707,-3.8707,-3.8707,-3.8707,-3.8689,-3.8505,-3.856,-3.867,-3.8505,-3.634,-3.3807,-3.3807,-3.3807,-3.3807,-3.3807,-3.3807,-3.3807,-3.3807,-3.3807,-3.3372,-3.1714,-3.1329,-2.5567,-0.4539,0.0,0.0,0.0,0.0,0.0,0.0,0.0,0.0,0.0,0.0,0.0,0.0,0.0,0.0,0.0,0.0,0.0,0.0,0.0,0.0,0.0,0.0,0.0,0.0,0.0,0.0,0.0,0.0,0.0,0.0,0.0,0.0,0.0,0.0,0.0,-3.175,-3.3476,-3.4012,-3.4851,-3.5304,-3.6392,-3.9738,-4.0489,-4.0489,-4.0489,-4.0489,-3.87,-3.2795,-3.3782,-3.6892,-4.1104,-4.2527,-4.3266,-4.3725,-4.8183,-5.1406,-5.1406,-5.0625,-5.0449,-5.1328,-4.8301,-4.6308,-4.6308,-4.6192,-4.5974,-4.5637,-4.5586,-4.4432,-4.1873,-4.095,-4.0489,-4.0489,-4.0489,-4.0489,-4.0489,-4.0489,-4.0489,-4.0473,-3.9242,-3.8707,-3.8707,-3.8707,-3.8707,-3.8707,-3.8707,-3.8707,-3.8707,-3.8707,-3.8707,-3.8707,-3.8707,-3.8707,-3.8358,-3.5899,-3.6652,-3.8303,-3.5844,-3.4486,-3.3807,-3.3807,-3.3807,-3.3807,-3.3807,-3.3807,-3.3807,-3.3807,-3.3807,-3.3707,-3.3237,-3.3148,-2.7067,-0.48,0.0,0.0,0.0,0.0,0.0,0.0,0.0,0.0,0.0,0.0,0.0,0.0,0.0,0.0,0.0,0.0,0.0,0.0,0.0,0.0,0.0,0.0,0.0,0.0,0.0,0.0,0.0,0.0,0.0,0.0,0.0,0.0,0.0,0.0,0.0,-3.1477,-3.2311,-3.2826,-3.497,-3.5493,-3.5988,-3.7873,-3.8315,-3.8315,-3.8315,-3.7103,-3.5353,-3.3064,-3.4205,-3.7084,-4.195,-4.3989,-4.5144,-4.562,-4.8984,-5.1406,-5.1406,-5.1406,-5.0801,-4.9316,-4.7422,-4.6308,-4.6308,-4.6308,-4.5436,-4.3461,-4.3355,-4.247,-4.0546,-4.0489,-4.0489,-4.0489,-4.0489,-4.0489,-4.0489,-4.0489,-4.0489,-4.0473,-3.9242,-3.8707,-3.8707,-3.8707,-3.8707,-3.8707,-3.8707,-3.8707,-3.8707,-3.8707,-3.8707,-3.8542,-3.7092,-3.656,-3.6285,-3.4431,-3.5018,-3.6248,-3.4394,-3.3807,-3.3807,-3.3807,-3.3807,-3.3807,-3.3807,-3.3807,-3.3807,-3.3807,-3.3237,-3.2663,-3.2663,-3.1644,-2.5051,-0.4443,0.0,0.0,0.0,0.0,0.0,0.0,0.0,0.0,0.0,0.0,0.0,0.0,0.0,0.0,0.0,0.0,0.0,0.0,0.0,0.0,0.0,0.0,0.0,0.0,0.0,0.0,0.0,0.0,0.0,0.0,0.0,0.0,0.0,0.0,0.0,-3.0256,-3.0398,-3.1114,-3.4133,-3.5218,-3.5577,-3.5577,-3.487,-3.4198,-3.4154,-3.2513,-3.1975,-3.4936,-3.5493,-3.7565,-4.3893,-4.7778,-5.0322,-5.1195,-5.0975,-5.0723,-5.0723,-5.0723,-4.9551,-4.6582,-4.6308,-4.6308,-4.6308,-4.5879,-4.4109,-4.0684,-4.0489,-4.0489,-4.0489,-4.0489,-4.0489,-4.0489,-4.0489,-4.0489,-4.0489,-4.0489,-4.0489,-4.0473,-3.9242,-3.8707,-3.8707,-3.8707,-3.8707,-3.8707,-3.8707,-3.8707,-3.867,-3.823,-3.8046,-3.7698,-3.4853,-3.3807,-3.3807,-3.3807,-3.3807,-3.3807,-3.3807,-3.3807,-3.3807,-3.3807,-3.3807,-3.3807,-3.3807,-3.3807,-3.3807,-3.3807,-3.2695,-3.1487,-3.1269,-2.889,-2.1786,-0.3873,0.0,0.0,0.0,0.0,0.0,0.0,0.0,0.0,0.0,0.0,0.0,0.0,0.0,0.0,0.0,0.0,0.0,0.0,0.0,0.0,0.0,0.0,0.0,0.0,0.0,0.0,0.0,0.0,0.0,0.0,0.0,0.0,0.0,0.0,0.0,-3.0858,-3.0398,-3.0616,-3.1473,-3.381,-3.5901,-3.5901,-3.1504,-2.7344,-2.7103,-3.109,-3.4801,-3.5378,-3.5493,-3.6796,-4.0739,-4.4239,-4.7503,-5.0414,-4.873,-4.7187,-4.7187,-4.7187,-4.6953,-4.6367,-4.6308,-4.6308,-4.6308,-4.3672,-4.1627,-4.0554,-4.0489,-4.0489,-4.0489,-4.0489,-4.0489,-4.0489,-4.0489,-4.0489,-4.0489,-4.0489,-4.0489,-4.0473,-3.9242,-3.8707,-3.8707,-3.8707,-3.8707,-3.8707,-3.8707,-3.8707,-3.8432,-3.5716,-3.4651,-3.4578,-3.4009,-3.3807,-3.3807,-3.3807,-3.3807,-3.3807,-3.3807,-3.3807,-3.3807,-3.3807,-3.3807,-3.3807,-3.3807,-3.3807,-3.3807,-3.3807,-3.3578,-3.2996,-3.1562,-2.889,-2.1786,-0.3873,0.0,0.0,0.0,0.0,0.0,0.0,0.0,0.0,0.0,0.0,0.0,0.0,0.0,0.0,0.0,0.0,0.0,0.0,0.0,0.0,0.0,0.0,0.0,0.0,0.0,0.0,0.0,0.0,0.0,0.0,0.0,0.0,0.0,0.0,0.0,-3.0701,-3.0537,-3.0654,-3.0646,-3.187,-3.3122,-3.3317,-2.9375,-2.6188,-2.7866,-3.0826,-3.3608,-3.5194,-3.5493,-3.5449,-3.5276,-4.1066,-4.6163,-4.7817,-4.8366,-4.802,-4.6482,-4.6308,-4.6308,-4.6308,-4.6308,-4.6308,-4.6308,-4.3125,-4.1003,-4.0534,-4.0489,-4.0489,-4.0489,-4.0489,-4.0489,-4.0489,-4.0489,-4.0489,-4.0489,-4.0489,-4.0489,-4.0489,-3.9905,-3.9275,-3.8707,-3.8707,-3.8707,-3.8707,-3.8707,-3.7698,-3.5991,-3.4412,-3.3807,-3.3807,-3.3807,-3.3807,-3.3807,-3.3807,-3.3807,-3.3807,-3.3807,-3.3807,-3.3807,-3.3807,-3.3807,-3.3807,-3.3807,-3.3807,-3.3807,-3.3807,-3.3807,-3.3372,-3.162,-2.1769,-1.0453,-0.1861,0.0,0.0,0.0,0.0,0.0,0.0,0.0,0.0,0.0,0.0,0.0,0.0,0.0,0.0,0.0,0.0,0.0,0.0,0.0,0.0,0.0,0.0,0.0,0.0,0.0,0.0,0.0,0.0,0.0,0.0,0.0,0.0,0.0,0.0,0.0,-3.1574,-3.1211,-3.0899,-3.1388,-3.1494,-3.1369,-3.0903,-2.8159,-2.6699,-3.0176,-3.1484,-3.2709,-3.5071,-3.5493,-3.4609,-3.1917,-3.8219,-4.3682,-4.4412,-4.7545,-4.8899,-4.6579,-4.6308,-4.6308,-4.6308,-4.5644,-4.5215,-4.5215,-4.2626,-4.0896,-4.0515,-4.0489,-4.0489,-4.0489,-4.0489,-4.0489,-4.0489,-4.0489,-4.0489,-4.0489,-4.0489,-4.0489,-4.0489,-4.0489,-3.9965,-3.9064,-3.8822,-3.8707,-3.8707,-3.8707,-3.7184,-3.478,-3.4064,-3.3807,-3.3807,-3.3807,-3.3807,-3.3807,-3.3807,-3.3807,-3.3807,-3.3807,-3.3807,-3.3807,-3.3807,-3.3807,-3.3807,-3.3807,-3.3532,-3.3237,-3.3237,-3.3237,-3.2737,-3.0702,-1.7676,-0.4668,-0.0829,0.0,0.0,0.0,0.0,0.0,0.0,0.0,0.0,0.0,0.0,0.0,0.0,0.0,0.0,0.0,0.0,0.0,0.0,0.0,0.0,0.0,0.0,0.0,0.0,0.0,0.0,0.0,0.0,0.0,0.0,0.0,0.0,0.0,0.0,0.0,-3.5396,-3.3015,-3.1179,-3.427,-3.5032,-3.4231,-3.1152,-2.7984,-2.6699,-3.0176,-3.3379,-3.5522,-3.5488,-3.5493,-3.5397,-3.507,-3.5834,-3.7488,-4.0527,-4.4277,-4.6597,-4.6328,-4.6308,-4.6308,-4.6308,-4.3496,-4.168,-4.168,-4.0974,-4.0559,-4.0504,-4.0489,-4.0489,-4.0489,-4.0489,-4.0489,-4.0489,-4.0489,-4.0489,-4.0489,-4.0489,-4.0489,-4.0489,-4.0489,-4.0438,-4.0266,-3.9181,-3.8707,-3.8707,-3.8707,-3.8524,-3.7955,-3.4963,-3.3807,-3.3807,-3.3807,-3.3807,-3.3807,-3.3807,-3.3807,-3.3807,-3.3807,-3.3807,-3.3807,-3.3807,-3.3807,-3.3807,-3.3807,-3.2663,-3.1428,-3.1428,-3.1428,-3.0691,-2.7775,-2.5642,-1.979,-0.3518,0.0,0.0,0.0,0.0,0.0,0.0,0.0,0.0,0.0,0.0,0.0,0.0,0.0,0.0,0.0,0.0,0.0,0.0,0.0,0.0,0.0,0.0,0.0,0.0,0.0,0.0,0.0,0.0,0.0,0.0,0.0,0.0,0.0,0.0,0.0,-3.5355,-3.4906,-3.4043,-3.5206,-3.5493,-3.4589,-3.1167,-2.7843,-2.6491,-3.0154,-3.3613,-3.5896,-3.5546,-3.5493,-3.5493,-3.5493,-3.5493,-3.5968,-3.7296,-4.233,-4.5971,-4.6268,-4.6308,-4.6308,-4.6308,-4.3203,-4.1191,-4.1191,-4.0781,-4.0489,-4.0489,-4.0489,-4.0489,-4.0489,-4.0489,-4.0489,-4.0489,-4.0489,-4.0489,-4.0489,-4.0489,-4.0489,-4.0489,-4.0489,-4.0489,-4.0422,-3.9216,-3.7588,-3.5752,-3.5752,-3.6927,-3.8377,-3.5073,-3.3807,-3.3807,-3.3807,-3.3807,-3.3807,-3.3807,-3.3807,-3.3807,-3.3807,-3.3807,-3.3807,-3.3807,-3.3807,-3.3578,-3.2533,-3.175,-3.1466,-3.25,-3.0627,-2.818,-2.6979,-2.6691,-2.1786,-0.3873,0.0,0.0,0.0,0.0,0.0,0.0,0.0,0.0,0.0,0.0,0.0,0.0,0.0,0.0,0.0,0.0,0.0,0.0,0.0,0.0,0.0,0.0,0.0,0.0,0.0,0.0,0.0,0.0,0.0,0.0,0.0,0.0,0.0,0.0,0.0,-3.6072,-3.6684,-3.6184,-3.6981,-3.7081,-3.5565,-3.0129,-2.7092,-2.646,-3.0133,-3.3613,-3.5896,-3.5546,-3.5493,-3.5493,-3.5493,-3.5493,-3.5493,-3.5493,-4.0591,-4.4423,-4.4743,-4.4785,-4.4785,-4.4785,-4.2617,-4.1191,-4.1191,-4.0896,-4.0648,-4.0504,-4.0489,-4.0489,-4.0489,-4.0489,-4.0489,-4.0489,-4.0489,-4.0489,-4.0489,-4.0489,-4.0489,-4.0489,-4.0489,-3.995,-3.8962,-3.776,-3.5936,-3.3807,-3.3807,-3.5165,-3.7019,-3.4706,-3.3807,-3.3807,-3.3807,-3.3807,-3.3807,-3.3807,-3.3807,-3.3807,-3.3807,-3.3807,-3.3623,-3.2669,-3.2702,-3.2791,-3.1562,-3.0548,-3.0135,-3.1398,-2.9197,-2.6691,-2.6691,-2.6691,-2.1786,-0.3873,0.0,0.0,0.0,0.0,0.0,0.0,0.0,0.0,0.0,0.0,0.0,0.0,0.0,0.0,0.0,0.0,0.0,0.0,0.0,0.0,0.0,0.0,0.0,0.0,0.0,0.0,0.0,0.0,0.0,0.0,0.0,0.0,0.0,0.0,0.0,-3.8618,-3.8268,-3.6836,-4.0273,-4.0801,-3.7796,-2.7659,-2.5532,-2.6699,-3.0176,-3.3613,-3.5896,-3.5546,-3.5493,-3.5493,-3.5493,-3.5493,-3.5493,-3.5493,-3.8811,-4.125,-4.125,-4.125,-4.125,-4.125,-4.1211,-4.1191,-4.1191,-4.1191,-4.0998,-4.0515,-4.0489,-4.0489,-4.0489,-4.0489,-4.0489,-4.0489,-4.0489,-4.0489,-4.0489,-4.0489,-4.0489,-4.0489,-4.0489,-3.8681,-3.5504,-3.4344,-3.3825,-3.3807,-3.3807,-3.3825,-3.3844,-3.3807,-3.3807,-3.3807,-3.3807,-3.3807,-3.3807,-3.3807,-3.3807,-3.3807,-3.3807,-3.3807,-3.322,-3.0026,-3.0074,-3.123,-3.119,-2.9042,-2.6742,-2.6775,-2.6742,-2.6691,-2.6691,-2.6691,-2.1786,-0.3873,0.0,0.0,0.0,0.0,0.0,0.0,0.0,0.0,0.0,0.0,0.0,0.0,0.0,0.0,0.0,0.0,0.0,0.0,0.0,0.0,0.0,0.0,0.0,0.0,0.0,0.0,0.0,0.0,0.0,0.0,0.0,0.0,0.0,0.0,0.0,-3.5238,-3.6545,-3.6836,-4.0332,-4.1097,-3.8263,-2.7927,-2.7472,-2.957,-3.0664,-3.3613,-3.5974,-3.5857,-3.565,-3.5493,-3.5493,-3.5685,-3.6664,-3.9052,-4.0439,-4.0312,-3.793,-3.9746,-4.1191,-4.1191,-4.1191,-4.1072,-4.0752,-4.1012,-4.1003,-4.0534,-4.0489,-4.0489,-4.0489,-4.0489,-4.0489,-4.0489,-4.0489,-3.9354,-3.7084,-3.7084,-3.7084,-3.7084,-3.7084,-3.6507,-3.5446,-3.4288,-3.3807,-3.3807,-3.3807,-3.2504,-3.0522,-3.0522,-3.0522,-3.0522,-3.0522,-3.1916,-3.3495,-3.1292,-3.0522,-3.0522,-3.0522,-2.9808,-2.8771,-2.7749,-2.7753,-2.8112,-2.8112,-2.7435,-2.6691,-2.6691,-2.6691,-2.6691,-2.6691,-2.6691,-2.1786,-0.3873,0.0,0.0,0.0,0.0,0.0,0.0,0.0,0.0,0.0,0.0,0.0,0.0,0.0,0.0,0.0,0.0,0.0,0.0,0.0,0.0,0.0,0.0,0.0,0.0,0.0,0.0,0.0,0.0,0.0,0.0,0.0,0.0,0.0,0.0,0.0,-3.0963,-3.2927,-3.4609,-3.6777,-3.7305,-3.5625,-2.9141,-2.9336,-3.1269,-3.2559,-3.4512,-3.5996,-3.5996,-3.5836,-3.5685,-3.5685,-3.5857,-3.6758,-3.8926,-3.9238,-3.9394,-3.9824,-4.0664,-4.1191,-4.1191,-4.1191,-4.1007,-4.053,-4.0762,-4.0263,-3.8691,-3.8604,-3.8604,-3.8604,-3.9835,-3.9892,-3.8623,-3.8604,-3.7565,-3.5493,-3.5493,-3.5493,-3.5468,-3.4147,-3.3374,-3.301,-3.2298,-3.199,0.0,-3.199,-3.0815,-2.8994,-2.8994,-2.8994,-2.8994,-2.8994,-3.0283,-3.1715,-2.969,-2.8994,-2.8994,-2.8994,-2.7946,-2.6691,-2.6691,-2.6691,-2.6691,-2.6691,-2.6691,-2.6691,-2.6691,-2.6691,-2.6691,-2.6691,-2.6691,-2.3646,-1.2483,-0.477,0.0,0.0,0.0,0.0,0.0,0.0,0.0,0.0,0.0,0.0,0.0,0.0,0.0,0.0,0.0,0.0,0.0,0.0,0.0,0.0,0.0,0.0,0.0,0.0,0.0,0.0,0.0,0.0,0.0,0.0,0.0,0.0,0.0,0.0,0.0,-2.8437,-3.0898,-3.0898,-3.0898,-3.0898,-3.0898,-3.0898,0.0,-3.498,-3.582,-3.5996,-3.5996,-3.5996,-3.5996,-3.5996,-3.5996,-3.5996,-3.5996,-3.6426,-3.9023,-4.5195,-4.3125,-4.1191,-4.1191,-4.1191,-4.1016,-4.0577,-4.0534,-3.9142,-3.6026,-3.5641,-3.5493,-3.5493,-3.8277,-3.8392,-3.5545,-3.5493,-3.5493,-3.5507,-3.5243,-3.5128,-3.5032,-3.184,-2.988,-2.8975,-2.8755,-2.8645,-2.8645,-2.8645,-2.8645,-2.8645,-2.8645,-2.8792,-2.8957,-2.8737,-2.8792,-2.8994,-2.8994,-2.8994,-2.8957,-2.8718,-2.7691,-2.6502,-2.6403,-2.6522,-2.6691,-2.6691,-2.6691,-2.6691,-2.6691,-2.6691,-2.6691,-2.6691,-2.6691,-2.6691,-2.6691,-1.2635,0.0,0.0,0.0,0.0,0.0,0.0,0.0,0.0,0.0,0.0,0.0,0.0,0.0,0.0,0.0,0.0,0.0,0.0,0.0,0.0,0.0,0.0,0.0,0.0,0.0,0.0,0.0,0.0,0.0,0.0,0.0,0.0,0.0,0.0,-2.9808,0.0,-3.0898,-3.0898,-3.0898,-3.0898,0.0,-3.0898,-3.1133,-3.1934,-3.418,-3.5996,-3.5996,-3.5996,-3.5996,-3.5996,-3.5996,-3.5996,-3.5996,-4.0547,-4.3516,-4.2519,-4.1699,-4.1191,-4.1191,-4.1191,-4.115,-4.1042,-4.071,-4.0162,-3.9373,-3.6892,-3.5493,-3.5493,-3.3737,-3.366,-3.5474,-3.5493,-3.5493,-3.5468,-3.284,-3.159,-3.1571,-3.0763,-2.988,-2.8847,-2.641,-2.5328,-2.5328,-2.5328,-2.5328,-2.5328,-2.5328,-2.6833,-2.87,-2.6245,-2.6888,-2.8994,-2.8994,-2.8994,-2.859,-2.6135,-2.5066,-2.4605,-2.3635,-2.4915,-2.6691,-2.6691,-2.6691,-2.6691,-2.6691,-2.6691,-2.6691,-2.6691,-2.6691,-2.6691,-2.6691,-1.2635,0.0,0.0,0.0,0.0,0.0,0.0,0.0,0.0,0.0,0.0,0.0,0.0,0.0,0.0,0.0,0.0,0.0,0.0,0.0,0.0,0.0,0.0,0.0,0.0,0.0,0.0,0.0,0.0,0.0,0.0,0.0,0.0,0.0,0.0,-3.0614,-3.0774,-3.1289,-3.2851,-3.3242,-3.3242,-3.3242,-3.2031,-3.1348,-3.293,-3.4707,-3.5996,-3.5996,-3.5996,-3.5996,-3.5996,-3.5996,-3.6562,-3.8164,-4.1601,-4.3262,-4.1426,-3.9785,-3.9434,-4.1035,-4.1191,-4.0547,-3.8926,-3.8442,-3.82,-3.82,-3.6488,-3.5493,-3.5493,-3.2167,-3.1282,-3.3128,-3.3147,-3.3147,-3.3128,-3.1282,-3.0398,-3.0398,-2.9943,-2.8866,-2.7187,-2.5097,-2.419,-2.419,-2.419,-2.419,-2.419,-2.419,-2.5254,-2.6594,-2.4832,-2.5309,-2.6814,-2.6814,-2.6814,-2.6521,-2.4777,-2.419,-2.3955,-2.2694,-2.341,-2.4678,-2.4678,-2.5659,-2.6387,-2.5033,-2.4678,-2.5017,-2.637,-2.6691,-2.6319,-2.4966,-1.7067,-0.8204,-0.1336,0.0,0.0,0.0,0.0,0.0,0.0,0.0,0.0,0.0,0.0,0.0,0.0,0.0,0.0,0.0,0.0,0.0,0.0,0.0,0.0,0.0,0.0,0.0,0.0,0.0,0.0,0.0,0.0,0.0,0.0,0.0,0.0,-3.0398,-3.0639,-3.1719,-3.5156,-3.5996,-3.5996,-3.5996,-3.3359,-3.1719,-3.4629,-3.5173,-3.5302,-3.5827,-3.5925,-3.6105,-3.6699,-3.6797,-3.7637,-4.0078,-4.041,-4.0215,-3.9687,-3.748,-3.7168,-4.0117,-4.041,-3.918,-3.6211,-3.5685,-3.5262,-3.4743,-3.4705,-3.4705,-3.4705,-3.1898,-3.0398,-3.0398,-3.0398,-3.0398,-3.0398,-3.0398,-3.0398,-3.0367,-2.9026,-2.7296,-2.5253,-2.4526,-2.419,-2.419,-2.419,-2.419,-2.419,-2.419,-2.3896,-2.3511,-2.4025,-2.419,-2.419,-2.419,-2.419,-2.419,-2.419,-2.419,-2.3955,-2.2694,-2.231,-2.231,-2.231,-2.4103,-2.5456,-2.2953,-2.231,-2.3054,-2.5998,-2.6691,-2.5879,-2.2953,-2.2665,-1.842,-0.2994,0.0,0.0,0.0,0.0,0.0,0.0,0.0,0.0,0.0,0.0,0.0,0.0,0.0,0.0,0.0,0.0,0.0,0.0,0.0,0.0,0.0,0.0,0.0,0.0,0.0,0.0,0.0,0.0,0.0,0.0,0.0,0.0,-3.0398,-3.0639,-3.1719,-3.5156,-3.5996,-3.5996,-3.5996,-3.3359,-3.1055,-3.1562,-3.147,-3.2134,-3.504,-3.5581,-3.6638,-3.9878,-4.0391,-3.9551,-3.7148,-3.6797,-3.5723,-3.2832,-3.4551,-3.6211,-3.6758,-3.6797,-3.6582,-3.6035,-3.5685,-3.4224,-3.134,-3.1167,-3.1167,-3.1167,-3.0667,-3.0398,-3.0398,-3.0398,-3.0398,-3.0398,-3.0398,-3.0398,-3.0302,-2.7259,-2.565,-2.5253,-2.4526,-2.419,-2.419,-2.419,-2.419,-2.419,-2.419,-2.2501,-2.0391,-2.3162,-2.419,-2.419,-2.419,-2.419,-2.419,-2.419,-2.419,-2.3955,-2.2694,-2.231,-2.231,-2.231,-2.2649,-2.2868,-2.2429,-2.231,-2.3054,-2.5998,-2.6691,-2.5879,-2.2953,-2.4255,-2.0856,-0.3383,0.0,0.0,0.0,0.0,0.0,0.0,0.0,0.0,0.0,0.0,0.0,0.0,0.0,0.0,0.0,0.0,0.0,0.0,0.0,0.0,0.0,0.0,0.0,0.0,0.0,0.0,0.0,0.0,0.0,0.0,0.0,0.0,-2.9898,-3.0639,-3.2168,-3.748,-3.7383,-3.5527,-3.3672,-3.2031,-3.0855,-3.0675,-3.051,-3.0879,-3.2436,-3.5738,-3.823,-3.8371,-3.9961,-4.0644,-3.9043,-3.8809,-3.8223,-3.6641,-3.6191,-3.5996,-3.5996,-3.5996,-3.5234,-3.3379,-3.2928,-3.2051,-3.0475,-3.0398,-3.0398,-3.0398,-2.861,-2.7629,-2.7629,-2.7629,-2.7629,-2.7629,-2.7629,-2.744,-2.6997,-2.542,-2.4712,-2.4584,-2.2467,-2.1547,-2.1547,-2.1547,-2.1547,-2.1547,-2.1547,-2.0629,-1.9473,-2.0996,-2.1547,-2.1547,-2.1547,-2.2703,-2.419,-2.419,-2.419,-2.3955,-2.2694,-2.231,-2.231,-2.231,-2.231,-2.231,-2.231,-2.231,-2.2649,-2.4002,-2.4323,-2.3951,-2.2598,-2.3376,-2.1887,-1.365,-0.5531,0.0,0.0,0.0,0.0,0.0,0.0,0.0,0.0,0.0,0.0,0.0,0.0,0.0,0.0,0.0,0.0,0.0,0.0,0.0,0.0,0.0,0.0,0.0,0.0,0.0,0.0,0.0,0.0,0.0,0.0,0.0,-2.8586,-2.9494,-3.1152,-3.7266,-3.8008,-3.6502,-3.3779,-3.3142,-3.2839,-3.181,-3.0956,-3.0398,-3.0398,-3.6026,-3.9908,-3.7593,-3.9453,-4.1191,-4.1191,-4.1191,-4.0898,-4.0078,-3.7637,-3.5996,-3.5996,-3.5273,-3.3711,-3.1094,-3.0656,-3.0492,-3.039,-2.9629,-2.9206,-2.9206,-2.6668,-2.5303,-2.5303,-2.5303,-2.5303,-2.5303,-2.5303,-2.4904,-2.419,-2.419,-2.3786,-2.2905,-2.0391,-1.9305,-1.9305,-1.9305,-1.9305,-1.9305,-1.9305,-1.9305,-1.9305,-1.9305,-1.9305,-1.9305,-1.9305,-2.1437,-2.419,-2.419,-2.3676,-2.3011,-2.2807,-2.2552,-2.231,-2.231,-2.231,-2.231,-2.231,-2.231,-2.231,-2.231,-2.231,-2.231,-2.231,-2.231,-2.231,-2.231,-1.0233,0.0,0.0,0.0,0.0,0.0,0.0,0.0,0.0,0.0,0.0,0.0,0.0,0.0,0.0,0.0,0.0,0.0,0.0,0.0,0.0,0.0,0.0,0.0,0.0,0.0,0.0,0.0,0.0,0.0,0.0,0.0,-2.5973,-2.6054,-2.6973,-3.0703,-3.6269,-4.0648,-3.9959,-3.9813,-3.8912,-3.5776,-3.2609,-3.0398,-3.0398,-3.6287,-4.1073,-4.0859,-4.1035,-4.1191,-4.1191,-4.1191,-4.0,-3.6758,-3.6152,-3.5996,-3.5996,-3.3125,-3.1152,-3.0918,-3.0878,-3.0724,-3.0414,-2.7379,-2.5668,-2.5668,-2.5418,-2.5303,-2.5303,-2.5303,-2.5303,-2.5303,-2.5303,-2.4904,-2.419,-2.419,-2.2538,-1.9638,-1.9399,-1.9305,-1.9305,-1.9305,-1.9305,-1.9305,-1.9305,-1.9305,-1.9305,-1.9305,-1.9305,-1.9305,-1.9305,-2.1437,-2.419,-2.419,-2.2134,-2.0207,-2.316,-2.3236,-2.231,-2.231,-2.231,-2.231,-2.231,-2.231,-2.231,-2.231,-2.231,-2.231,-2.231,-2.231,-2.231,-2.231,-1.0233,0.0,0.0,0.0,0.0,0.0,0.0,0.0,0.0,0.0,0.0,0.0,0.0,0.0,0.0,0.0,0.0,0.0,0.0,0.0,0.0,0.0,0.0,0.0,0.0,0.0,0.0,0.0,0.0,0.0,0.0,0.0,-2.5703,-2.5703,-2.6016,-2.7344,-3.1269,-3.4691,-3.4306,-3.7469,-4.0142,-3.8873,-3.7584,-3.5391,-3.1179,-3.282,-3.5488,-3.7617,-3.7969,-3.7969,-3.7969,-3.7969,-3.748,-3.6152,-3.4121,-3.2832,-3.2832,-3.166,-3.0,-2.7832,-2.9668,-2.9897,-2.7604,-2.608,-2.5303,-2.5303,-2.5303,-2.5303,-2.5303,-2.5303,-2.4245,-2.2207,-2.4303,-2.4904,-2.4135,-2.2079,-2.0464,-1.9305,-1.9305,-1.9305,-1.9305,-1.9305,-1.9305,-1.9305,-1.9305,-1.9305,-1.9305,-1.9305,-1.9305,-1.9305,-1.9305,-2.1437,-2.3859,-2.1822,-2.0299,-1.9528,-2.0776,-2.1684,-2.231,-2.231,-2.231,-2.231,-2.231,-2.231,-2.231,-2.231,-2.231,-2.231,-2.231,-2.231,-2.2852,-2.4678,-2.0467,-1.3075,-0.1911,0.0,0.0,0.0,0.0,0.0,0.0,0.0,0.0,0.0,0.0,0.0,0.0,0.0,0.0,0.0,0.0,0.0,0.0,0.0,0.0,0.0,0.0,0.0,0.0,0.0,0.0,0.0,0.0,0.0,-2.5703,-2.5703,-2.6211,-2.8418,-2.9922,-3.0832,-3.06,-3.5712,-4.0489,-4.0489,-4.0489,-3.8791,-3.3199,-3.1396,-3.1535,-3.3984,-3.5293,-3.5625,-3.4531,-3.4394,-3.4394,-3.4394,-3.1348,-2.9258,-2.9258,-2.9258,-2.8262,-2.5879,-2.791,-2.8223,-2.582,-2.5531,-2.5383,-2.5293,-2.4265,-2.3707,-2.3707,-2.3707,-2.2573,-2.0331,-2.263,-2.3462,-2.289,-2.0425,-1.9305,-1.9305,-1.9305,-1.9305,-1.9305,-1.9305,-1.9305,-1.9305,-1.9305,-1.9305,-1.9305,-1.9305,-1.9305,-1.9305,-1.9305,-2.0758,-2.2281,-2.0023,-1.9305,-1.9305,-1.9305,-2.0035,-2.1092,-2.204,-2.231,-2.231,-2.231,-2.231,-2.231,-2.231,-2.231,-2.2564,-2.3494,-2.297,-2.274,-2.4215,-2.5144,-2.0234,-0.2977,0.0,0.0,0.0,0.0,0.0,0.0,0.0,0.0,0.0,0.0,0.0,0.0,0.0,0.0,0.0,0.0,0.0,0.0,0.0,0.0,0.0,0.0,0.0,0.0,0.0,0.0,0.0,0.0,0.0,-2.5742,-2.5742,-2.7383,-3.4238,-3.3437,-3.0957,-3.0996,-3.5931,-4.0504,-4.0504,-4.0485,-3.9533,-3.6454,-3.2895,-3.0519,-3.0853,-3.373,-3.4766,-3.1387,-3.0879,-3.0859,-3.0859,-2.7793,-2.5703,-2.5703,-2.5703,-2.5703,-2.5703,-2.5703,-2.5703,-2.5703,-2.5703,-2.5587,-2.5303,-2.2053,-2.0312,-2.0312,-2.0312,-2.0312,-2.0312,-2.0312,-2.0312,-2.0277,-1.9606,-1.9305,-1.9305,-1.9305,-1.9305,-1.9305,-1.9305,-1.9305,-1.9305,-1.9305,-1.9305,-1.9305,-1.9305,-1.9305,-1.9305,-1.9305,-1.9305,-1.9289,-1.9289,-1.9289,-1.9305,-1.9305,-1.8607,-1.8437,-2.1431,-2.2276,-2.2276,-2.2276,-2.2293,-2.231,-2.231,-2.231,-2.3105,-2.6031,-2.4357,-2.1751,-2.005,-2.1784,-1.8583,-0.2888,-0.009,0.0,0.0,0.0,0.0,0.0,0.0,0.0,0.0,0.0,0.0,0.0,0.0,0.0,0.0,0.0,0.0,0.0,0.0,0.0,0.0,0.0,0.0,0.0,0.0,0.0,0.0,0.0,0.0,-2.8691,-2.9355,-2.9844,-3.1894,-3.3457,-3.5137,-3.7598,-3.9613,-4.0903,-4.0568,-3.8811,-3.5584,-2.9823,-2.9851,-3.0774,-3.0878,-3.1758,-3.2051,-3.1035,-2.8789,-2.7246,-2.7246,-2.6328,-2.5703,-2.5703,-2.5703,-2.5703,-2.5703,-2.5703,-2.5703,-2.5703,-2.5703,-2.5587,-2.5303,-2.2053,-2.0312,-2.0312,-2.0312,-2.0312,-2.0312,-2.0312,-2.0312,-2.0277,-1.9606,-1.9305,-1.9305,-1.9305,-1.9305,-1.9305,-1.9305,-1.9305,-1.9305,-1.9305,-1.9305,-1.9305,-1.9305,-1.9305,-1.9305,-1.9305,-1.9305,-1.9178,-1.8475,-1.8717,-1.9305,-1.9305,-1.8607,-1.7997,-1.887,-1.9147,-1.9147,-1.9147,-2.072,-2.231,-2.231,-2.231,-2.2547,-2.3427,-2.1939,-2.0311,-1.9782,-2.0318,-1.9361,-1.4689,-0.6149,0.0,0.0,0.0,0.0,0.0,0.0,0.0,0.0,0.0,0.0,0.0,0.0,0.0,0.0,0.0,0.0,0.0,0.0,0.0,0.0,0.0,0.0,0.0,0.0,0.0,0.0,0.0,0.0,-2.8262,-2.8828,-2.8828,-2.8828,-3.2441,-3.6543,-3.8652,-3.7973,-3.7203,-3.8298,-3.6093,-3.2695,-2.8535,-2.9473,-3.0898,-3.0898,-2.9746,-2.8828,-2.8828,-2.7031,-2.5195,-2.3848,-2.3672,-2.3672,-2.3672,-2.3672,-2.3649,-2.3556,-2.4787,-2.4962,-2.3628,-2.355,-2.3485,-2.3321,-2.1342,-2.0312,-2.0312,-2.0312,-2.0312,-2.0312,-2.0312,-2.0162,-1.9888,-1.9472,-1.9305,-1.9305,-1.9305,-1.9305,-1.9305,-1.9305,-1.9305,-1.9305,-1.9305,-1.9046,-1.8699,-1.8699,-1.8699,-1.8699,-1.8699,-1.8699,-1.8607,-1.7997,-1.8214,-1.8699,-1.8699,-1.8275,-1.7811,-1.7811,-1.7811,-1.7811,-1.7811,-1.9164,-2.0822,-2.204,-2.1397,-2.0636,-2.1171,-2.1007,-2.0532,-1.9854,-1.969,-1.969,-1.969,-0.8738,0.0,0.0,0.0,0.0,0.0,0.0,0.0,0.0,0.0,0.0,0.0,0.0,0.0,0.0,0.0,0.0,0.0,0.0,0.0,0.0,0.0,0.0,0.0,0.0,0.0,0.0,0.0,0.0,-2.5661,-2.5894,-2.6206,-2.6517,-3.1327,-3.5996,-3.5996,-3.3126,-3.1337,-3.4448,-3.2842,-3.0801,-3.0488,-3.043,-3.043,-3.043,-2.7773,-2.5703,-2.5703,-2.5703,-2.4551,-2.1426,-2.0781,-2.0605,-2.0605,-2.0605,-2.0523,-2.0323,-2.3111,-2.3515,-2.0465,-2.0312,-2.0312,-2.0312,-2.0312,-2.0312,-2.0312,-2.0312,-2.0312,-2.0312,-2.0312,-1.996,-1.9305,-1.9305,-1.9305,-1.9305,-1.9305,-1.9305,-1.9305,-1.9305,-1.9305,-1.9305,-1.9305,-1.8681,-1.7811,-1.7811,-1.7811,-1.7811,-1.7811,-1.7811,-1.7811,-1.7811,-1.7811,-1.7811,-1.7811,-1.7811,-1.7811,-1.7811,-1.7811,-1.7811,-1.7811,-1.7811,-1.8572,-2.16,-2.001,-1.812,-1.9267,-2.0846,-2.1645,-2.0208,-1.9945,-1.9889,-1.9726,-0.9883,-0.1573,-0.0203,0.0,0.0,0.0,0.0,0.0,0.0,0.0,0.0,0.0,0.0,0.0,0.0,0.0,0.0,0.0,0.0,0.0,0.0,0.0,0.0,0.0,0.0,0.0,0.0,0.0,0.0,-2.5383,-2.734,-3.0037,-3.2714,-3.472,-3.5996,-3.5996,-3.3296,-3.0992,-3.175,-3.1361,-3.0059,-2.7324,-2.6816,-2.6816,-2.6816,-2.6191,-2.5703,-2.5703,-2.5703,-2.543,-2.4687,-2.2227,-2.0605,-2.0605,-2.0605,-2.0523,-2.0323,-2.0966,-2.1062,-2.035,-2.0312,-2.0312,-2.0312,-2.0312,-2.0312,-2.0312,-2.0312,-2.0312,-2.0312,-2.0312,-1.996,-1.9305,-1.9305,-1.9305,-1.9305,-1.9305,-1.9305,-1.9305,-1.9305,-1.9305,-1.9305,-1.9305,-1.8681,-1.7811,-1.7811,-1.7811,-1.7811,-1.7811,-1.7811,-1.7811,-1.7811,-1.7811,-1.7811,-1.7811,-1.7811,-1.7811,-1.7811,-1.7811,-1.7811,-1.7811,-1.7811,-1.8572,-2.16,-2.001,-1.7889,-1.8137,-1.9303,-2.0532,-2.1554,-2.1751,-2.1291,-1.9945,-1.8495,-1.3532,-0.1759,0.0,0.0,0.0,0.0,0.0,0.0,0.0,0.0,0.0,0.0,0.0,0.0,0.0,0.0,0.0,0.0,0.0,0.0,0.0,0.0,0.0,0.0,0.0,0.0,0.0,0.0,-2.5303,-2.7802,-3.1205,-3.4647,-3.564,-3.5327,-3.3685,-3.2065,-3.0898,-3.0898,-2.957,-2.7851,-2.6035,-2.5703,-2.5703,-2.5703,-2.4336,-2.3262,-2.3262,-2.3262,-2.3262,-2.3262,-2.168,-2.0605,-2.0605,-2.0605,-2.0523,-2.0323,-2.0312,-2.0312,-2.0312,-2.0312,-2.0312,-2.0312,-2.0312,-2.0312,-2.0312,-2.0312,-2.0312,-2.0312,-2.0312,-1.996,-1.9305,-1.9305,-1.9305,-1.9305,-1.9305,-1.9305,-1.9305,-1.9305,-1.9305,-1.9259,-1.8771,-1.8255,-1.7811,-1.7811,-1.7811,-1.7811,-1.7811,-1.7811,-1.7811,-1.7811,-1.7811,-1.7811,-1.7811,-1.7811,-1.7811,-1.7811,-1.7811,-1.7811,-1.7811,-1.7811,-1.8217,-1.9773,-1.8944,-1.7811,-1.7811,-1.9476,-2.0794,-2.026,-2.1329,-2.202,-2.1103,-1.5768,-0.8982,-0.1167,0.0,0.0,0.0,0.0,0.0,0.0,0.0,0.0,0.0,0.0,0.0,0.0,0.0,0.0,0.0,0.0,0.0,0.0,0.0,0.0,0.0,0.0,0.0,0.0,0.0,0.0,-2.5303,-2.7685,-3.1024,-3.4601,-3.4928,-3.3681,-3.1008,-3.0607,-3.0806,-3.0806,-2.8083,-2.5703,-2.5703,-2.5703,-2.5508,-2.4922,-2.2441,-2.0605,-2.0605,-2.0605,-2.0605,-2.0605,-2.0605,-2.0605,-2.0605,-2.0605,-2.0523,-2.0323,-2.0312,-2.0312,-2.0312,-2.0312,-2.0312,-2.0312,-2.0312,-2.0312,-2.0312,-2.0312,-2.0312,-2.0312,-2.0312,-2.0011,-1.9476,-1.9346,-1.9305,-1.9305,-1.9305,-1.9305,-1.9305,-1.9305,-1.9305,-1.9227,-1.8378,-1.7954,-1.7811,-1.7811,-1.7811,-1.7811,-1.7811,-1.7811,-1.7811,-1.7811,-1.7811,-1.7811,-1.7811,-1.7811,-1.7811,-1.7811,-1.7635,-1.7502,-1.7743,-1.7811,-1.7811,-1.7811,-1.7811,-1.7811,-1.7811,-1.9773,-2.0788,-1.8285,-2.0247,-2.231,-2.231,-1.1792,-0.2618,-0.0344,0.0,0.0,0.0,0.0,0.0,0.0,0.0,0.0,0.0,0.0,0.0,0.0,0.0,0.0,0.0,0.0,0.0,0.0,0.0,0.0,0.0,0.0,0.0,0.0,0.0,0.0,-2.5303,-2.7198,-3.02,-3.4427,-3.2672,-2.9958,-3.033,-3.0428,-3.0462,-3.0462,-2.7921,-2.5703,-2.5703,-2.5703,-2.4727,-2.1758,-2.0898,-2.0605,-2.0605,-2.0605,-2.0605,-2.0605,-2.0605,-2.0605,-2.0605,-2.0605,-2.0523,-2.0323,-2.0312,-2.0312,-2.0312,-2.0312,-2.0312,-2.0312,-2.0312,-2.0312,-2.0312,-2.0312,-2.0312,-2.0312,-2.0312,-2.026,-2.0153,-1.9553,-1.9305,-1.9305,-1.9305,-1.9305,-1.9305,-1.9305,-1.9305,-1.9289,-1.9162,-1.857,-1.7811,-1.7811,-1.7811,-1.7811,-1.7811,-1.7811,-1.7811,-1.7811,-1.7811,-1.7811,-1.7811,-1.7811,-1.7811,-1.7811,-1.696,-1.6324,-1.7502,-1.7811,-1.7811,-1.7811,-1.7811,-1.7811,-1.7811,-1.8132,-1.8285,-1.7873,-2.0247,-2.231,-2.231,-1.9379,-1.3205,-0.1721,0.0,0.0,0.0,0.0,0.0,0.0,0.0,0.0,0.0,0.0,0.0,0.0,0.0,0.0,0.0,0.0,0.0,0.0,0.0,0.0,0.0,0.0,0.0,0.0,0.0,0.0,-2.7,-2.8177,-2.9466,-3.1391,-3.0416,-2.9115,-2.9514,-2.9625,-2.9098,-2.7304,-2.5831,-2.4976,-2.5389,-2.5601,-2.5215,-2.3691,-2.3457,-2.2793,-2.0879,-2.0605,-2.0605,-2.0605,-2.0605,-2.0605,-2.0605,-2.0605,-2.0561,-2.0471,-2.0467,-2.0467,-2.0467,-2.0366,-2.0347,-2.0464,-2.036,-2.0312,-2.0312,-2.0312,-2.0312,-2.0312,-2.0312,-2.0312,-2.0285,-2.0001,-1.9657,-1.9305,-1.9305,-1.9305,-1.9305,-1.9305,-1.9305,-1.9305,-1.9305,-1.8681,-1.7811,-1.7811,-1.7811,-1.7811,-1.7811,-1.7811,-1.7811,-1.7811,-1.7811,-1.7811,-1.7811,-1.7811,-1.7635,-1.6901,-1.6799,-1.7052,-1.7658,-1.7811,-1.7811,-1.7811,-1.7811,-1.7811,-1.7811,-1.7811,-1.7589,-1.6825,-1.7752,-1.9122,-2.0591,-2.0208,-1.5216,-0.199,0.0,0.0,0.0,0.0,0.0,0.0,0.0,0.0,0.0,0.0,0.0,0.0,0.0,0.0,0.0,0.0,0.0,0.0,0.0,0.0,0.0,0.0,0.0,0.0,0.0,0.0,-2.7278,-2.7787,-2.7967,-2.8792,-2.8994,-2.8994,-2.8994,-2.8374,-2.7108,-2.4685,-2.419,-2.4426,-2.5171,-2.5465,-2.5629,-2.5683,-2.5703,-2.4805,-2.2246,-2.1152,-2.0605,-2.0605,-2.0605,-2.0605,-2.0605,-2.0605,-2.0605,-2.0605,-2.0605,-2.0605,-2.0605,-2.0457,-2.0441,-2.0605,-2.0453,-2.0347,-2.0312,-2.0312,-2.0312,-2.0312,-2.0312,-2.0312,-2.0312,-2.0312,-2.0021,-1.954,-1.9361,-1.9305,-1.9305,-1.9305,-1.9305,-1.9305,-1.9305,-1.8681,-1.7811,-1.7811,-1.7811,-1.7811,-1.7811,-1.7811,-1.7811,-1.7811,-1.7811,-1.7811,-1.7811,-1.7811,-1.7572,-1.6591,-1.6783,-1.7368,-1.7704,-1.7811,-1.7811,-1.7811,-1.7811,-1.7721,-1.7384,-1.7296,-1.7101,-1.6448,-1.6024,-1.6428,-1.8392,-1.9241,-1.6353,-0.6478,-0.2158,0.0,0.0,0.0,0.0,0.0,0.0,0.0,0.0,0.0,0.0,0.0,0.0,0.0,0.0,0.0,0.0,0.0,0.0,0.0,0.0,0.0,0.0,0.0,0.0,0.0,-2.4411,-2.4447,-2.5181,-2.8246,-2.8994,-2.8994,-2.8994,-2.6649,-2.4392,-2.4226,-2.419,-2.4426,-2.5171,-2.5313,-2.5406,-2.566,-2.5703,-2.5644,-2.5469,-2.2637,-2.0605,-2.0605,-2.0605,-2.0605,-2.0605,-2.0605,-2.0605,-2.0605,-2.0605,-2.0605,-2.0605,-2.0585,-2.0585,-2.0605,-2.0585,-2.0486,-2.0292,-2.0312,-2.0312,-2.0312,-2.0312,-2.0312,-2.0312,-2.0312,-2.0277,-2.0216,-1.9567,-1.9305,-1.9305,-1.9305,-1.9305,-1.9305,-1.9305,-1.8681,-1.7811,-1.7811,-1.7811,-1.7811,-1.7811,-1.7811,-1.7811,-1.7811,-1.7811,-1.7811,-1.7811,-1.7811,-1.7789,-1.7704,-1.6825,-1.6203,-1.7479,-1.7811,-1.7811,-1.7811,-1.7811,-1.7455,-1.6191,-1.5898,-1.6258,-1.7455,-1.667,-1.5844,-1.5978,-1.8077,-1.9486,-1.8762,-0.802,0.0,0.0,0.0,0.0,0.0,0.0,0.0,0.0,0.0,0.0,0.0,0.0,0.0,0.0,0.0,0.0,0.0,0.0,0.0,0.0,0.0,0.0,0.0,0.0,0.0,-2.419,-2.419,-2.4483,-2.564,-2.5314,-2.4717,-2.4717,-2.3806,-2.3212,-2.4034,-2.419,-2.4284,-2.4559,-2.4968,-2.533,-2.5421,-2.5441,-2.5441,-2.5441,-2.4539,-2.3066,-2.0859,-2.0605,-2.0605,-2.0605,-2.0605,-2.0605,-2.0605,-2.0605,-2.0605,-2.0605,-2.0605,-2.0605,-2.0605,-2.0605,-2.0494,-2.0292,-2.0312,-2.0312,-2.0312,-2.0312,-2.0312,-2.0312,-2.0312,-2.0312,-2.0269,-1.9593,-1.9305,-1.9305,-1.9305,-1.9305,-1.9305,-1.9305,-1.9079,-1.8681,-1.804,-1.7811,-1.7811,-1.7811,-1.7811,-1.7811,-1.7811,-1.7811,-1.7811,-1.7811,-1.7811,-1.7811,-1.7811,-1.6834,-1.6108,-1.7455,-1.7811,-1.7811,-1.7811,-1.715,-1.6378,-1.5898,-1.5799,-1.5955,-1.6405,-1.6136,-1.5799,-1.5799,-1.7972,-1.9121,-1.7462,-0.739,0.0,0.0,0.0,0.0,0.0,0.0,0.0,0.0,0.0,0.0,0.0,0.0,0.0,0.0,0.0,0.0,0.0,0.0,0.0,0.0,0.0,0.0,0.0,0.0,0.0,-2.419,-2.3894,-2.3558,-2.3558,-2.2495,-2.1432,-2.1432,-2.1886,-2.2668,-2.3935,-2.419,-2.419,-2.419,-2.4604,-2.5024,-2.5253,-2.5303,-2.5303,-2.5303,-2.5453,-2.4313,-2.0901,-2.0492,-2.0492,-2.0492,-2.056,-2.0605,-2.0605,-2.0605,-2.0605,-2.0605,-2.0605,-2.0605,-2.0605,-2.0605,-2.0494,-2.0292,-2.0312,-2.0312,-2.0312,-2.0312,-2.0312,-2.0312,-2.0312,-2.0312,-2.0269,-1.9593,-1.9305,-1.9305,-1.9305,-1.9305,-1.9305,-1.9305,-1.9305,-1.9178,-1.8153,-1.7811,-1.7811,-1.7811,-1.7811,-1.7811,-1.7811,-1.7811,-1.7811,-1.7811,-1.7479,-1.7126,-1.7126,-1.6485,-1.6011,-1.6901,-1.7455,-1.7811,-1.7811,-1.7126,-1.634,-1.5898,-1.5799,-1.5799,-1.5799,-1.5799,-1.5799,-1.5799,-1.7252,-1.8122,-1.7252,-1.1122,-0.5012,-0.0569,0.0,0.0,0.0,0.0,0.0,0.0,0.0,0.0,0.0,0.0,0.0,0.0,0.0,0.0,0.0,0.0,0.0,0.0,0.0,0.0,0.0,0.0,0.0,0.0,0.0,0.0,-2.2254,-2.0895,-1.96,-1.9675,-2.1007,-2.2598,-2.3894,-2.417,-2.419,-2.419,-2.419,-2.4425,-2.516,-2.5264,-2.5264,-2.5264,-2.5264,-2.4044,-2.0688,-2.0389,-2.0408,-2.0312,-2.0474,-2.0586,-2.0605,-2.0605,-2.0605,-2.0605,-2.0605,-2.0605,-2.0605,-2.0605,-2.0516,-2.0308,-2.0292,-2.0312,-2.0312,-2.0312,-2.0312,-2.0312,-2.0312,-2.0312,-2.0269,-1.9593,-1.9305,-1.9305,-1.9305,-1.9305,-1.9305,-1.9305,-1.9289,-1.9146,-1.817,-1.7811,-1.7811,-1.7811,-1.7766,-1.7743,-1.7789,-1.7766,-1.7743,-1.7743,-1.6834,-1.5799,-1.5799,-1.5799,-1.5799,-1.5799,-1.6799,-1.7811,-1.7811,-1.7811,-1.7432,-1.6136,-1.5827,-1.5799,-1.5799,-1.5799,-1.5799,-1.5799,-1.5799,-1.6668,-1.9181,-1.963,-1.4944,-0.1691,0.0,0.0,0.0,0.0,0.0,0.0,0.0,0.0,0.0,0.0,0.0,0.0,0.0,0.0,0.0,0.0,0.0,0.0,0.0,0.0,0.0,0.0,0.0,-2.3067,0.0,0.0,0.0,0.0,0.0,-1.9256,-2.0085,-2.0894,-2.2493,-2.3558,-2.419,-2.419,-2.419,-2.4266,-2.4476,-2.451,-2.451,-2.451,-2.451,-2.346,-2.0647,-2.2438,-2.2957,-2.0542,-2.0347,-2.0441,-2.0585,-2.0605,-2.0605,-2.0605,-2.0605,-2.0605,-2.0605,-2.0605,-2.0564,-2.0523,-2.0365,-2.0312,-2.0312,-2.0312,-2.0312,-2.0312,-2.0312,-2.0312,-2.0269,-1.9593,-1.9305,-1.9305,-1.9305,-1.9305,-1.9305,-1.9305,-1.8859,-1.8173,-1.7905,-1.7811,-1.7811,-1.7811,-1.7175,-1.6512,-1.7479,-1.715,-1.6367,-1.6367,-1.608,-1.5799,-1.5799,-1.5799,-1.5799,-1.5799,-1.6799,-1.7811,-1.7811,-1.7811,-1.7704,-1.7337,-1.6485,-1.5799,-1.5799,-1.5799,-1.5799,-1.5799,-1.5799,-1.6053,-1.6773,-1.8512,-1.4944,-0.1691,0.0,0.0,0.0,0.0,0.0,0.0,0.0,0.0,0.0,0.0,0.0,0.0,0.0,0.0,0.0,0.0,0.0,0.0,0.0,0.0,0.0,0.0,0.0,-2.2642,-2.1751,-2.0959,-1.9945,0.0,0.0,-1.9331,-2.0277,-2.1055,-2.2077,-2.3312,-2.419,-2.419,-2.419,-2.419,-2.419,-2.419,-2.419,-2.419,-2.419,-2.3636,-2.2103,-2.3911,-2.4534,-2.2573,-2.238,-2.1847,-2.0561,-2.0558,-2.0605,-2.0605,-2.0525,-2.0501,-2.0605,-2.0605,-2.056,-2.0474,-2.036,-2.0312,-2.0312,-2.0312,-2.0312,-2.0312,-2.0312,-2.0153,-1.9866,-1.9476,-1.9305,-1.9305,-1.9305,-1.9305,-1.9305,-1.9305,-1.8681,-1.7811,-1.7811,-1.7811,-1.7811,-1.7811,-1.691,-1.5926,-1.6722,-1.6448,-1.5799,-1.5799,-1.5799,-1.5799,-1.5799,-1.5799,-1.5799,-1.5799,-1.6394,-1.6977,-1.6977,-1.6977,-1.6977,-1.6977,-1.6367,-1.5799,-1.5799,-1.6683,-1.7432,-1.7432,-1.6518,-1.5799,-1.5799,-1.8032,-1.6907,-0.9201,-0.3411,0.0,0.0,0.0,0.0,0.0,0.0,0.0,0.0,0.0,0.0,0.0,0.0,0.0,0.0,0.0,0.0,0.0,0.0,0.0,0.0,0.0,0.0,-2.2615,-2.1039,-1.969,-1.969,-1.969,0.0,-1.969,-2.0782,-2.1904,-2.2243,-2.3312,-2.419,-2.419,-2.419,-2.4151,-2.4014,-2.3994,-2.4034,-2.417,-2.4074,-2.4034,-2.417,-2.478,-2.5203,-2.5284,-2.5303,-2.3899,-2.0562,-2.0464,-2.0562,-2.0562,-2.0404,-2.0377,-2.0561,-2.0585,-2.0494,-2.0292,-2.0312,-2.0269,-2.0199,-2.0199,-2.0199,-2.0199,-2.0199,-1.9866,-1.9305,-1.9305,-1.9305,-1.9305,-1.9305,-1.9305,-1.9289,-1.9178,-1.8589,-1.7811,-1.7811,-1.7811,-1.7789,-1.7635,-1.6799,-1.5799,-1.5799,-1.5799,-1.5799,-1.5799,-1.5799,-1.5799,-1.5799,-1.5799,-1.5799,-1.5799,-1.5799,-1.5799,-1.5799,-1.5799,-1.5799,-1.5799,-1.5799,-1.5799,-1.5799,-1.7687,-1.9346,-1.963,-1.7777,-1.6233,-1.6233,-1.8227,-1.969,-1.969,-0.8169,0.0,0.0,0.0,0.0,0.0,0.0,0.0,0.0,0.0,0.0,0.0,0.0,0.0,0.0,0.0,0.0,0.0,0.0,0.0,0.0,0.0,0.0,-2.2377,-2.1039,-1.969,-1.969,-1.969,0.0,-1.969,-1.9172,-1.9384,-2.1803,-2.3312,-2.419,-2.419,-2.419,-2.3855,-2.2833,-2.2668,-2.3017,-2.4054,-2.333,-2.3042,-2.4074,-2.4321,-2.4651,-2.5243,-2.5303,-2.3899,-2.0562,-2.0339,-2.036,-2.036,-2.0311,-2.0323,-2.036,-2.0521,-2.0494,-2.0292,-2.0312,-2.0021,-1.9504,-1.9504,-1.9504,-1.9504,-1.9504,-1.9419,-1.9305,-1.9305,-1.9305,-1.9305,-1.9305,-1.9305,-1.9209,-1.8397,-1.7975,-1.7811,-1.7811,-1.7811,-1.7658,-1.6565,-1.6024,-1.5799,-1.5799,-1.5799,-1.5799,-1.5799,-1.5799,-1.5799,-1.5799,-1.5799,-1.5799,-1.5799,-1.5799,-1.5799,-1.5799,-1.5799,-1.5799,-1.5799,-1.5799,-1.5799,-1.5799,-1.6218,-1.7237,-1.9351,-1.9291,-1.8927,-1.8927,-1.9361,-1.969,-1.969,-0.8169,0.0,0.0,0.0,0.0,0.0,0.0,0.0,0.0,0.0,0.0,0.0,0.0,0.0,0.0,0.0,0.0,0.0,0.0,0.0,0.0,0.0,0.0,-2.231,-2.1645,-2.0991,-2.0991,-1.9874,0.0,0.0,-1.9416,-2.0483,-2.2006,-2.2807,-2.3445,-2.4074,-2.3685,-2.3042,-2.2405,-2.231,-2.2525,-2.3164,-2.2703,-2.2552,-2.3188,-2.3813,-2.4357,-2.4708,-2.3269,-2.1738,-2.0411,-2.0312,-2.0312,-2.0312,-2.0312,-2.0312,-2.0312,-2.0404,-2.041,-2.0292,-2.0312,-1.9952,-1.9305,-1.9305,-1.9305,-1.9305,-1.9305,-1.9305,-1.9305,-1.9305,-1.9305,-1.9305,-1.9305,-1.9305,-1.9193,-1.8194,-1.7811,-1.7811,-1.7811,-1.7811,-1.7612,-1.6258,-1.5799,-1.5799,-1.5799,-1.5799,-1.5799,-1.5799,-1.5799,-1.5799,-1.5799,-1.5799,-1.5799,-1.5799,-1.5799,-1.5799,-1.5799,-1.5799,-1.5799,-1.5799,-1.5799,-1.5799,-1.5799,-1.5799,-1.6638,-1.9241,-1.969,-1.969,-1.969,-1.969,-1.969,-1.969,-1.3914,-0.7301,-0.0703,0.0,0.0,0.0,0.0,0.0,0.0,0.0,0.0,0.0,0.0,0.0,0.0,0.0,0.0,0.0,0.0,0.0,0.0,0.0,0.0,-2.231,-2.231,-2.231,-2.231,-2.0044,-1.7941,0.0,0.0,0.0,-2.231,-2.1854,-2.1928,-2.3538,-2.2993,-2.231,-2.231,-2.231,-2.231,-2.231,-2.231,-2.231,-2.231,-2.3212,-2.3935,-2.417,-2.1216,-1.9513,-2.0069,-2.0225,-2.0312,-2.0312,-2.0312,-2.0312,-2.0312,-2.0312,-2.0312,-2.0312,-2.0162,-1.9843,-1.9305,-1.9305,-1.9305,-1.9305,-1.9305,-1.9305,-1.9305,-1.9305,-1.9305,-1.9305,-1.9305,-1.8843,-1.8145,-1.7904,-1.7811,-1.7811,-1.7811,-1.7811,-1.7612,-1.6258,-1.5799,-1.5799,-1.5799,-1.5799,-1.5799,-1.5799,-1.5799,-1.5799,-1.5799,-1.5799,-1.5799,-1.5799,-1.5799,-1.5799,-1.5799,-1.5799,-1.5799,-1.5799,-1.5799,-1.5799,-1.5799,-1.5799,-1.6473,-1.8602,-1.8961,-1.8961,-1.8961,-1.8961,-1.9121,-1.963,-1.969,-1.4633,-0.1406,0.0,0.0,0.0,0.0,0.0,0.0,0.0,0.0,0.0,0.0,0.0,0.0,0.0,0.0,0.0,0.0,0.0,0.0,0.0,0.0,-2.231,-2.231,-2.231,-2.231,-2.0044,-1.8504,-2.1194,0.0,-2.231,-2.231,0.0,-1.9178,-2.2002,0.0,0.0,-2.231,-2.231,-2.231,-2.231,-2.231,-2.231,-2.231,-2.2432,-2.2943,-2.4094,-2.1216,-1.9335,-1.9405,-1.9952,-2.0312,-2.0312,-2.0312,-2.0312,-2.0312,-2.0312,-2.0312,-2.0312,-1.9707,-1.9394,-1.9305,-1.9305,-1.9305,-1.9305,-1.9305,-1.9305,-1.9305,-1.9305,-1.9305,-1.9305,-1.9305,-1.7237,-1.4315,-1.6821,-1.7811,-1.7811,-1.7811,-1.7811,-1.7612,-1.6258,-1.5799,-1.5799,-1.5799,-1.5799,-1.5799,-1.5799,-1.5799,-1.5799,-1.5799,-1.5799,-1.5799,-1.5799,-1.5799,-1.5799,-1.5799,-1.5799,-1.5799,-1.5799,-1.5799,-1.5799,-1.5799,-1.5799,-1.5888,-1.6188,-1.6248,-1.6248,-1.6248,-1.6248,-1.7088,-1.939,-1.969,-1.4633,-0.1406,0.0,0.0,0.0,0.0,0.0,0.0,0.0,0.0,0.0,0.0,0.0,0.0,0.0,0.0,0.0,0.0,0.0,0.0,0.0,0.0,-2.1809,-2.1025,-1.9705,-1.9705,-2.0061,-2.0754,-2.2023,-2.231,-2.231,-2.231,0.0,0.0,0.0,0.0,0.0,0.0,-2.231,-2.231,-2.231,-2.231,-2.1651,-1.9908,-2.1245,-2.2807,-2.4074,-2.2942,-2.2134,-2.2134,-2.0639,-1.9888,-2.0277,-2.0312,-2.0312,-2.0312,-2.0312,-2.0312,-2.0312,-1.9632,-1.9305,-1.9305,-1.9305,-1.9305,-1.9305,-1.9305,-1.9305,-1.9305,-1.9305,-1.9305,-1.9127,-1.6819,-1.4912,-1.3701,-1.6661,-1.7811,-1.7811,-1.7811,-1.7811,-1.7612,-1.6258,-1.5799,-1.5799,-1.5799,-1.5799,-1.5799,-1.5799,-1.5799,-1.5799,-1.5799,-1.5799,-1.5799,-1.5799,-1.5799,-1.5799,-1.5799,-1.5799,-1.5799,-1.5799,-1.5799,-1.5799,-1.5799,-1.5799,-1.5799,-1.5799,-1.5799,-1.5799,-1.5799,-1.5799,-1.6203,-1.7312,-1.7681,-1.5241,-0.8397,-0.3068,0.0,0.0,0.0,0.0,0.0,0.0,0.0,0.0,0.0,0.0,0.0,0.0,0.0,0.0,0.0,0.0,0.0,0.0,0.0,-2.0483,-1.9486,-1.8014,-1.8843,-2.0686,-2.231,-2.231,-2.231,-2.2073,-2.1245,-1.9333,0.0,0.0,0.0,-1.8404,-2.0213,0.0,-2.1363,-2.2192,-2.231,-2.1498,-1.9299,-2.1684,-2.3564,-2.367,-2.3174,-2.3235,-2.4135,-2.1161,-1.9499,-2.0001,-2.0021,-2.0107,-2.0285,-2.0116,-2.0021,-2.0021,-1.954,-1.9305,-1.9305,-1.9305,-1.9305,-1.9305,-1.9305,-1.9146,-1.8876,-1.8876,-1.8876,-1.8608,-1.4916,-1.3396,-1.3616,-1.5764,-1.6593,-1.6695,-1.7507,-1.7811,-1.7658,-1.6696,-1.6108,-1.5799,-1.5799,-1.5799,-1.5799,-1.5799,-1.5799,-1.5799,-1.5799,-1.5799,-1.5799,-1.5799,-1.5799,-1.5799,-1.5799,-1.5799,-1.5799,-1.5799,-1.5799,-1.5799,-1.5799,-1.5799,-1.5799,-1.5799,-1.5799,-1.5799,-1.5799,-1.5389,-1.5255,-1.5741,-1.5681,-1.4963,-1.3373,-0.5284,0.0,0.0,0.0,0.0,0.0,0.0,0.0,0.0,0.0,0.0,0.0,0.0,0.0,0.0,0.0,0.0,0.0,0.0,0.0,-1.7929,-1.7879,-1.8481,-2.1448,-2.2243,-2.231,-2.231,-2.231,-2.1481,-1.8555,-1.7879,-1.7811,-1.7811,-1.7811,-1.7401,-1.6202,-1.7106,0.0,0.0,-2.231,-2.2276,-2.2175,-2.4763,-2.5471,-2.2621,-2.0604,-2.0776,-2.3951,-2.1161,-1.9305,-1.9335,-1.9335,-1.9632,-2.0277,-1.967,-1.9335,-1.9335,-1.9305,-1.9305,-1.9305,-1.9305,-1.9305,-1.9305,-1.9305,-1.8771,-1.7839,-1.7839,-1.7839,-1.7618,-1.4616,-1.3396,-1.3413,-1.3498,-1.3549,-1.3887,-1.6745,-1.7811,-1.7789,-1.7766,-1.6901,-1.5799,-1.5799,-1.5799,-1.5799,-1.5799,-1.5799,-1.5799,-1.5799,-1.5799,-1.5799,-1.5799,-1.5799,-1.5799,-1.5799,-1.5799,-1.5799,-1.5799,-1.5799,-1.5799,-1.5799,-1.5799,-1.5799,-1.5799,-1.5799,-1.5799,-1.5799,-1.4374,-1.3901,-1.558,-1.4346,-1.3273,-1.321,-0.5284,0.0,0.0,0.0,0.0,0.0,0.0,0.0,0.0,0.0,0.0,0.0,0.0,0.0,0.0,0.0,0.0,0.0,0.0,0.0,-2.0788,-1.9333,-1.8048,-1.908,-2.0839,-2.231,-2.231,-2.231,-2.1421,-1.8437,-1.7811,-1.7526,-1.6644,-1.7199,-1.7361,-1.6024,-1.6926,-1.8166,0.0,-2.2733,-2.5203,-2.5203,-2.4374,-2.341,-2.2412,-2.167,-2.1753,-2.2873,-2.0676,-1.9013,-1.8338,-1.8946,-1.9405,-1.9632,-1.9419,-1.9305,-1.9305,-1.9305,-1.9305,-1.9305,-1.9305,-1.9305,-1.9305,-1.9305,-1.8753,-1.7811,-1.7811,-1.6695,-1.48,-1.382,-1.3396,-1.3396,-1.3396,-1.3396,-1.3769,-1.6712,-1.7811,-1.7811,-1.7811,-1.691,-1.5799,-1.5799,-1.5799,-1.5799,-1.5799,-1.5799,-1.5799,-1.5799,-1.5799,-1.5799,-1.5799,-1.5799,-1.5799,-1.5799,-1.5799,-1.5799,-1.5799,-1.5799,-1.5799,-1.5799,-1.4876,-1.4084,-1.4084,-1.4084,-1.4084,-1.4084,-1.3581,-1.3425,-1.4,-1.3547,-1.3749,-1.5214,-1.1395,-0.6361,-0.0501,0.0,0.0,0.0,0.0,0.0,0.0,0.0,0.0,0.0,0.0,0.0,0.0,0.0,0.0,0.0,0.0,0.0,-2.231,-2.0889,-1.9401,-1.9401,-2.0061,-2.0991,-2.2073,-2.231,-2.1421,-1.8437,-1.7432,-1.6809,-1.5955,-1.6512,-1.6977,-1.6565,-1.816,-1.9401,0.0,-2.2716,-2.5524,-2.6573,-2.4103,-2.231,-2.231,-2.231,-2.187,-2.0788,-1.9496,-1.8949,-1.9375,-1.9324,-1.9305,-1.9305,-1.9305,-1.9305,-1.9305,-1.9305,-1.9305,-1.9305,-1.9305,-1.9305,-1.9289,-1.8946,-1.8417,-1.7738,-1.6695,-1.5155,-1.3396,-1.3396,-1.3396,-1.3396,-1.3396,-1.3396,-1.3769,-1.6712,-1.7811,-1.7811,-1.7811,-1.7224,-1.6432,-1.5955,-1.5799,-1.5799,-1.5799,-1.5799,-1.5799,-1.5799,-1.5799,-1.5799,-1.5799,-1.5799,-1.5799,-1.5799,-1.5799,-1.5799,-1.5799,-1.5799,-1.561,-1.5013,-1.3967,-1.3198,-1.3198,-1.3198,-1.3198,-1.3198,-1.3198,-1.3198,-1.3198,-1.3198,-1.3749,-1.5151,-1.4049,-0.9617,-0.0751,0.0,0.0,0.0,0.0,0.0,0.0,0.0,0.0,0.0,0.0,0.0,0.0,0.0,0.0,0.0,0.0,0.0]},{"header":{"parameterUnit":"m.s-1","parameterCategory":1,"la1":30.6,"la2":29.2853,"lo1":-89.7004,"lo2":-87.6739,"dy":0.0162,"dx":0.0183,"nx":112,"ny":82,"refTime":"2023-06-06T12:00:00:Z","depth":0,"parameterNumber":3,"parameterNumberName":"V-component_of_WINDS"},"data":[0.0,0.0,0.0,0.0,0.0,0.0,0.0,0.0,0.0,0.0,0.0,0.0,0.0,0.0,0.0,0.0,0.0,0.0,0.0,0.0,0.0,0.0,0.0,0.0,0.0,0.0,0.0,0.0,0.0,0.0,0.0,0.0,0.0,0.0,0.0,0.0,0.0,0.0,0.0,0.0,0.0,0.0,0.0,0.0,0.0,0.0,0.0,0.0,0.0,0.0,0.0,0.0,0.0,0.0,0.0,0.0,0.0,0.0,0.0,0.0,0.0,0.0,0.0,0.0,0.0,0.0,0.0,0.0,0.0,0.0,0.0,0.0,0.0,0.0,0.0,0.0,0.0,0.0,0.0,0.0,0.0,0.0,0.0,0.0,0.0,0.0,0.0,0.0,0.0,0.0,0.0,0.0,0.0,0.0,0.0,0.0,0.0,0.0,0.0,0.0,0.0,0.0,0.0,0.0,0.0,0.0,0.0,0.0,0.0,0.0,0.0,0.0,0.0,0.0,0.0,0.0,0.0,0.0,0.0,0.0,0.0,0.0,0.0,0.0,0.0,0.0,0.0,0.0,0.0,0.0,0.0,0.0,0.0,0.0,0.0,0.0,0.0,0.0,0.0,0.0,0.0,0.0,0.0,0.0,0.0,0.0,0.0,0.0,0.0,0.0,0.0,0.0,0.0,0.0,0.0,0.0,0.0,0.0,0.0,0.0,0.0,0.0,0.0,0.0,0.0,0.0,0.0,0.0,0.0,0.0,0.0,0.0,0.0,0.0,0.0,0.0,0.0,0.0,0.0,0.0,0.0,0.0,0.0,0.0,0.0,0.0,0.0,0.0,0.0,0.0,0.0,0.0,0.0,0.0,0.0,0.0,0.0,0.0,0.0,0.0,0.0,0.0,0.0,0.0,0.0,0.0,0.0,0.0,0.0,0.0,0.0,0.0,0.0,0.0,0.0,0.0,0.0,0.0,0.0,0.0,0.0,0.0,0.0,0.0,0.0,0.0,0.0,0.0,0.0,0.0,0.0,0.0,0.0,0.0,0.0,0.0,0.0,0.0,0.0,0.0,0.0,0.0,0.0,0.0,0.0,0.0,0.0,0.0,0.0,0.0,0.0,0.0,0.0,0.0,0.0,0.0,0.0,0.0,0.0,0.0,0.0,0.0,0.0,0.0,0.0,0.0,0.0,0.0,0.0,0.0,0.0,0.0,0.0,0.0,0.0,0.0,0.0,0.0,0.0,0.0,0.0,0.0,0.0,0.0,0.0,0.0,0.0,0.0,0.0,0.0,0.0,0.0,0.0,0.0,0.0,0.0,0.0,0.0,0.0,0.0,0.0,0.0,0.0,0.0,0.0,0.0,0.0,0.0,0.0,0.0,0.0,0.0,0.0,0.0,0.0,0.0,0.0,0.0,0.0,0.0,0.0,0.0,0.0,0.0,0.0,0.0,0.0,0.0,0.0,0.0,0.0,0.0,0.0,0.0,0.0,0.0,0.0,0.0,0.0,0.0,0.0,0.0,0.0,0.0,0.0,0.0,0.0,0.0,0.0,0.0,0.0,0.0,0.0,0.0,0.0,0.0,0.0,0.0,0.0,0.0,0.0,0.0,0.0,0.0,0.0,0.0,0.0,0.0,0.0,0.0,0.0,0.0,0.0,0.0,0.0,0.0,0.0,0.0,0.0,0.0,0.0,0.0,0.0,0.0,0.0,0.0,0.0,0.0,0.0,0.0,0.0,0.0,0.0,0.0,0.0,0.0,0.0,0.0,0.0,0.0,0.0,0.0,0.0,0.0,0.0,0.0,0.0,0.0,0.0,0.0,0.0,0.0,0.0,0.0,0.0,0.0,0.0,0.0,0.0,0.0,0.0,0.0,0.0,0.0,0.0,0.0,0.0,0.0,0.0,0.0,0.0,0.0,0.0,0.0,0.0,0.0,0.0,0.0,0.0,0.0,0.0,0.0,0.0,0.0,0.0,0.0,0.0,0.0,0.0,0.0,0.0,0.0,0.0,0.0,0.0,0.0,0.0,0.0,0.0,0.0,0.0,0.0,0.0,0.0,0.0,0.0,0.0,0.0,0.0,0.0,0.0,0.0,0.0,0.0,0.0,0.0,0.0,0.0,0.0,0.0,0.0,0.0,0.0,0.0,0.0,0.0,0.0,0.0,0.0,0.0,0.0,0.0,0.0,0.0,0.0,0.0,0.0,0.0,0.0,0.0,0.0,0.0,0.0,0.0,0.0,0.0,0.0,0.0,0.0,0.0,0.0,0.0,0.0,0.0,0.0,0.0,0.0,0.0,0.0,0.0,0.0,0.0,0.0,0.0,0.0,0.0,0.0,0.0,0.0,0.0,0.0,0.0,0.0,0.0,0.0,0.0,0.0,0.0,0.0,0.0,0.0,0.0,0.0,0.0,0.0,0.0,0.0,0.0,0.0,0.0,0.0,0.0,0.0,0.0,0.0,0.0,0.0,0.0,0.0,0.0,0.0,0.0,0.0,0.0,0.0,0.0,0.0,0.0,0.0,0.0,0.0,0.0,0.0,0.0,0.0,0.0,0.0,0.0,0.0,0.0,0.0,0.0,0.0,0.0,0.0,0.0,0.0,0.0,0.0,0.0,0.0,0.0,0.0,0.0,0.0,0.0,0.0,0.0,0.0,0.0,0.0,0.0,0.0,0.0,0.0,0.0,0.0,0.0,0.0,0.0,0.0,0.0,0.0,0.0,0.0,0.0,0.0,0.0,0.0,0.0,0.0,0.0,0.0,0.0,0.0,0.0,0.0,0.0,0.0,0.0,0.0,0.0,0.0,0.0,0.0,0.0,0.0,0.0,0.0,0.0,0.0,0.0,0.0,0.0,0.0,0.0,0.0,0.0,0.0,0.0,0.0,0.0,0.0,0.0,0.0,0.0,0.0,0.0,0.0,0.0,0.0,0.0,0.0,0.0,0.0,0.0,0.0,0.0,0.0,0.0,0.0,0.0,0.0,0.0,0.0,0.0,0.0,0.0,0.0,0.0,0.0,0.0,0.0,0.0,0.0,0.0,0.0,0.0,0.0,0.0,0.0,0.0,0.0,0.0,0.0,0.0,0.0,0.0,0.0,0.0,0.0,0.0,0.0,0.0,0.0,0.0,0.0,0.0,0.0,0.0,0.0,0.0,0.0,0.0,0.0,0.0,0.0,0.0,0.0,0.0,0.0,0.0,0.0,0.0,0.0,0.0,0.0,0.0,0.0,0.0,0.0,0.0,0.0,0.0,0.0,0.0,0.0,0.0,0.0,0.0,0.0,0.0,0.0,0.0,0.0,0.0,0.0,0.0,0.0,0.0,0.0,0.0,0.0,0.0,0.0,0.0,0.0,0.0,0.0,0.0,0.0,0.0,0.0,0.0,0.0,0.0,0.0,0.0,0.0,0.0,0.0,0.0,0.0,0.0,0.0,0.0,0.0,0.0,0.0,0.0,0.0,0.0,0.0,0.0,0.0,0.0,0.0,0.0,0.0,0.0,0.0,0.0,0.0,0.0,0.0,0.0,0.0,0.0,0.0,0.0,0.0,0.0,0.0,0.0,0.0,0.0,0.0,0.0,0.0,0.0,0.0,0.0,0.0,0.0,0.0,0.0,0.0,0.0,0.0,0.0,0.0,0.0,0.0,0.0,0.0,0.0,0.0,0.0,0.0,0.0,0.0,0.0,0.0,0.0,0.0,0.0,0.0,0.0,0.0,0.0,0.0,0.0,0.0,0.0,0.0,0.0,0.0,0.0,0.0,0.0,0.0,0.0,0.0,0.0,0.0,0.0,0.0,0.0,0.0,0.0,0.0,0.0,0.0,0.0,0.0,0.0,0.0,0.0,0.0,0.0,0.0,0.0,0.0,0.0,0.0,0.0,0.0,0.0,0.0,0.0,0.0,0.0,0.0,0.0,0.0,0.0,0.0,0.0,0.0,0.0,0.0,0.0,0.0,0.0,0.0,0.0,0.0,0.0,0.0,0.0,0.0,0.0,0.0,0.0,0.0,0.0,0.0,0.0,0.0,0.0,0.0,0.0,0.0,0.0,0.0,0.0,0.0,0.0,0.0,0.0,0.0,0.0,0.0,0.0,0.0,0.0,0.0,0.0,0.0,0.0,0.0,0.0,0.0,0.0,0.0,0.0,0.0,0.0,0.0,0.0,0.0,0.0,0.0,0.0,0.0,0.0,0.0,0.0,0.0,0.0,0.0,0.0,0.0,0.0,0.0,0.0,0.0,0.0,0.0,0.0,0.0,0.0,0.0,0.0,0.0,0.0,0.0,0.0,0.0,0.0,0.0,0.0,0.0,0.0,0.0,0.0,0.0,0.0,0.0,0.0,0.0,0.0,0.0,0.0,0.0,0.0,0.0,0.0,0.0,0.0,0.0,0.0,0.0,0.0,0.0,0.0,0.0,0.0,0.0,0.0,0.0,0.0,0.0,0.0,0.0,0.0,0.0,0.0,0.0,0.0,0.0,0.0,0.0,0.0,0.0,0.0,0.0,0.0,0.0,0.0,0.0,0.0,0.0,0.0,0.0,0.0,0.0,0.0,0.0,0.0,0.0,0.0,0.0,0.0,0.0,0.0,0.0,0.0,0.0,0.0,0.0,0.0,0.0,0.0,0.0,0.0,0.0,0.0,0.0,0.0,0.0,0.0,0.0,0.0,0.0,0.0,0.0,0.0,0.0,0.0,0.0,0.0,0.0,0.0,0.0,0.0,0.0,0.0,0.0,0.0,0.0,0.0,0.0,0.0,0.0,0.0,0.0,0.0,0.0,0.0,0.0,0.0,0.0,0.0,0.0,0.0,0.0,0.0,0.0,0.0,0.0,0.0,0.0,0.0,0.0,0.0,0.0,0.0,0.0,0.0,0.0,0.0,0.0,0.0,0.0,0.0,0.0,0.0,0.0,0.0,0.0,0.0,0.0,0.0,0.0,0.0,0.0,0.0,0.0,0.0,0.0,0.0,0.0,0.0,0.0,0.0,0.0,0.0,0.0,0.0,0.0,0.0,0.0,0.0,0.0,0.0,0.0,0.0,0.0,0.0,0.0,0.0,0.0,0.0,0.0,0.0,0.0,0.0,0.0,0.0,0.0,0.0,0.0,0.0,0.0,0.0,0.0,0.0,0.0,0.0,0.0,0.0,0.0,0.0,0.0,0.0,0.0,0.0,0.0,0.0,0.0,0.0,0.0,0.0,0.0,0.0,0.0,0.0,0.0,0.0,0.0,0.0,0.0,0.0,0.0,0.0,0.0,0.0,0.0,0.0,0.0,0.0,0.0,0.0,0.0,0.0,0.0,0.0,0.0,0.0,0.0,0.0,0.0,0.0,0.0,0.0,0.0,0.0,0.0,0.0,0.0,0.0,0.0,0.0,0.0,0.0,0.0,0.0,0.0,0.0,0.0,0.0,0.0,0.0,0.0,0.0,0.0,0.0,0.0,0.0,0.0,0.0,0.0,0.0,0.0,0.0,0.0,0.0,0.0,0.0,0.0,0.0,0.0,0.0,0.0,0.0,0.0,0.0,0.0,0.0,0.0,0.0,0.0,0.0,0.0,0.0,0.0,0.0,0.0,0.0,0.0,0.0,0.0,0.0,0.0,0.0,0.0,0.0,0.0,0.0,0.0,0.0,0.0,0.0,0.0,0.0,0.0,0.0,-0.6753,-0.9484,0.0,0.0,0.0,0.0,0.0,0.0,0.0,0.0,0.0,0.0,0.0,0.0,0.0,0.0,0.0,0.0,0.0,0.0,0.0,0.0,0.0,0.0,0.0,0.0,0.0,0.0,0.0,0.0,0.0,0.0,0.0,0.0,0.0,0.0,0.0,0.0,0.0,0.0,0.0,0.0,0.0,0.0,0.0,0.0,0.0,0.0,0.0,0.0,0.0,0.0,0.0,0.0,0.0,0.0,0.0,0.0,0.0,0.0,0.0,0.0,0.0,0.0,0.0,0.0,0.0,0.0,0.0,0.0,0.0,0.0,0.0,0.0,0.0,0.0,0.0,0.0,0.0,0.0,0.0,0.0,0.0,0.0,0.0,0.0,0.0,0.0,0.0,0.0,0.0,0.0,0.0,0.0,0.0,0.0,0.0,0.0,0.0,0.0,0.0,0.0,0.0,0.0,0.0,0.0,0.0,0.0,0.0,0.0,0.0,0.0,-0.9393,-1.1826,0.0,0.0,0.0,0.0,0.0,0.0,0.0,0.0,0.0,0.0,0.0,0.0,0.0,0.0,0.0,0.0,0.0,0.0,0.0,0.0,0.0,0.0,0.0,0.0,0.0,0.0,0.0,0.0,0.0,0.0,0.0,0.0,0.0,0.0,0.0,0.0,0.0,0.0,0.0,0.0,0.0,0.0,0.0,0.0,0.0,0.0,0.0,0.0,0.0,0.0,0.0,0.0,0.0,0.0,0.0,0.0,0.0,0.0,0.0,0.0,0.0,0.0,0.0,0.0,0.0,0.0,0.0,0.0,0.0,0.0,0.0,0.0,0.0,0.0,0.0,0.0,0.0,0.0,0.0,0.0,0.0,0.0,0.0,0.0,0.0,0.0,0.0,0.0,0.0,0.0,0.0,0.0,0.0,0.0,0.0,0.0,0.0,0.0,0.0,0.0,0.0,0.0,0.0,0.0,-0.7536,-0.7614,-0.8194,-0.8085,-0.7767,-0.7562,-1.2348,-1.4396,-1.4295,-1.3106,0.0,0.0,0.0,0.0,0.0,0.0,0.0,0.0,0.0,0.0,0.0,0.0,0.0,0.0,0.0,0.0,0.0,0.0,0.0,0.0,0.0,0.0,0.0,0.0,0.0,0.0,0.0,0.0,0.0,0.0,0.0,0.0,0.0,0.0,0.0,0.0,0.0,0.0,0.0,0.0,0.0,0.0,0.0,0.0,0.0,0.0,0.0,0.0,0.0,0.0,0.0,0.0,0.0,0.0,0.0,0.0,0.0,0.0,0.0,0.0,0.0,0.0,0.0,0.0,0.0,0.0,0.0,0.0,0.0,0.0,0.0,0.0,0.0,0.0,0.0,0.0,0.0,0.0,0.0,0.0,0.0,0.0,-0.0172,-0.0693,0.0,0.0,0.0,0.0,0.0,0.0,0.0,0.0,0.0,0.0,0.0,0.0,0.0,-0.7275,-0.7801,-0.7804,-0.7885,-0.8038,-0.7957,-0.8238,-0.8801,-0.8279,-0.7994,-0.821,-1.3294,0.0,-1.5511,-1.4335,0.0,0.0,0.0,0.0,0.0,0.0,0.0,0.0,0.0,0.0,0.0,0.0,0.0,0.0,0.0,0.0,0.0,0.0,0.0,0.0,0.0,0.0,0.0,0.0,0.0,0.0,0.0,0.0,0.0,0.0,0.0,0.0,0.0,0.0,0.0,0.0,0.0,0.0,0.0,0.0,0.0,0.0,0.0,0.0,0.0,0.0,0.0,0.0,0.0,0.0,0.0,0.0,0.0,0.0,0.0,0.0,0.0,0.0,0.0,0.0,0.0,0.0,0.0,0.0,0.0,0.0,0.0,0.0,0.0,0.0,0.0,0.0,0.0,0.0,0.0,0.0,0.0,0.0,0.0,0.0,0.0,0.0,0.0,0.0,-0.1624,-0.28,0.0,0.0,0.0,0.0,0.0,0.0,0.0,0.0,0.0,-0.7251,-0.7512,-0.7936,-0.854,-0.8547,-0.8547,-0.8547,-0.8547,-0.8682,-0.893,-0.8665,-1.0305,-1.3475,-1.5118,-1.6206,-1.6727,-1.5545,-1.4369,-1.3307,0.0,0.0,0.0,0.0,-1.3634,-1.4008,-1.3487,-1.3647,-1.4088,-1.4088,0.0,0.0,0.0,0.0,0.0,0.0,0.0,-1.3427,-1.3955,-0.7081,0.0,0.0,0.0,0.0,0.0,0.0,0.0,0.0,0.0,0.0,0.0,0.0,0.0,0.0,0.0,0.0,0.0,0.0,0.0,0.0,0.0,0.0,0.0,0.0,0.0,0.0,0.0,0.0,0.0,0.0,0.0,0.0,0.0,0.0,0.0,0.0,0.0,0.0,0.0,0.0,0.0,0.0,0.0,0.0,0.0,0.0,0.0,0.0,0.0,0.0,0.0,0.0,0.0,0.0,0.0,0.0,0.0,0.0,0.0,0.0,0.0,0.0,0.0,0.0,0.0,0.0,0.0,0.0,0.0,0.0,-0.2016,-0.5435,-0.7645,-0.8252,-0.8269,-0.8486,-0.8933,-0.894,-0.894,-0.894,-0.894,-0.894,-0.8933,-0.8777,-1.1769,-1.7088,-1.6206,-1.6326,-1.7068,-1.6192,-1.5317,-1.4502,-1.4202,-1.4088,-1.4088,-1.4088,-1.4088,-1.4088,-1.4088,-1.4088,-1.4088,-1.4088,-1.5437,-1.7501,-1.9873,0.0,0.0,0.0,0.0,-1.5794,-1.5794,-0.7934,0.0,0.0,0.0,0.0,0.0,0.0,0.0,0.0,0.0,0.0,0.0,0.0,0.0,0.0,0.0,0.0,0.0,0.0,0.0,0.0,0.0,0.0,0.0,0.0,0.0,0.0,0.0,0.0,0.0,0.0,0.0,0.0,0.0,0.0,0.0,0.0,0.0,0.0,0.0,0.0,0.0,0.0,0.0,0.0,0.0,0.0,0.0,0.0,0.0,0.0,0.0,0.0,0.0,0.0,0.0,0.0,0.0,0.0,0.0,0.0,0.0,0.0,0.0,0.0,0.0,0.0,0.0,0.0,0.0,-0.219,-0.735,-0.7779,-0.8269,-0.8876,-0.8893,-0.891,-0.894,-0.894,-0.894,-0.894,-0.894,-0.894,-0.892,-0.8347,-1.0927,-1.5912,-1.5852,-1.5858,-1.5912,-1.5852,-1.5792,-1.5631,-1.4516,-1.4088,-1.4088,-1.4088,-1.4088,-1.4088,-1.4088,-1.4088,-1.4088,-1.4088,-1.6968,-2.0351,-2.0586,-2.0508,0.0,0.0,-2.0401,-2.0245,-2.0245,-1.0175,0.0,0.0,0.0,0.0,0.0,0.0,0.0,0.0,0.0,0.0,0.0,0.0,0.0,0.0,0.0,0.0,0.0,0.0,0.0,0.0,0.0,0.0,0.0,0.0,0.0,0.0,0.0,0.0,0.0,0.0,0.0,0.0,0.0,0.0,0.0,0.0,0.0,0.0,0.0,0.0,0.0,0.0,0.0,0.0,0.0,0.0,0.0,0.0,0.0,0.0,0.0,0.0,0.0,0.0,0.0,0.0,0.0,0.0,0.0,0.0,0.0,0.0,0.0,0.0,0.0,0.0,0.0,0.0,0.0,-0.248,-0.8295,-0.8618,-0.8716,-0.893,-0.894,-0.894,-0.894,-0.894,-0.894,-0.894,-0.894,-0.8737,-0.8353,-0.8136,-1.0867,-1.5832,-1.5832,-1.5832,-1.5832,-1.5832,-1.5832,-1.5792,-1.5371,-1.475,-1.4088,-1.4088,-1.4088,-1.4088,-1.4088,-1.4088,-1.4088,-1.4088,-1.7082,-2.0566,-2.0566,-2.0566,-2.0566,-2.0566,-2.0566,-1.9913,-1.7172,-0.8258,0.0,0.0,0.0,0.0,0.0,0.0,0.0,0.0,0.0,0.0,0.0,0.0,0.0,0.0,0.0,0.0,0.0,0.0,0.0,0.0,0.0,0.0,0.0,0.0,0.0,0.0,0.0,0.0,0.0,0.0,0.0,0.0,0.0,0.0,0.0,0.0,0.0,0.0,0.0,0.0,0.0,0.0,0.0,0.0,0.0,0.0,0.0,0.0,0.0,0.0,0.0,0.0,0.0,0.0,0.0,0.0,0.0,0.0,0.0,0.0,0.0,0.0,0.0,0.0,0.0,0.0,0.0,0.0,0.0,-0.2633,-0.8611,-0.894,-0.894,-0.894,-0.894,-0.894,-0.894,-0.894,-0.894,-0.8937,-0.8733,-0.8425,-0.8038,-0.8038,-0.9891,-1.3295,-1.5051,-1.5832,-1.5832,-1.5832,-1.5832,-1.5832,-1.5832,-1.5357,-1.4676,-1.4676,-1.4422,-1.4088,-1.4088,-1.4088,-1.4088,-1.4088,-1.6034,-1.8381,-1.8381,-1.8381,-1.87,-2.0157,-2.0566,-1.9913,-1.7009,-1.1676,-0.5762,-0.1104,0.0,0.0,0.0,0.0,0.0,0.0,0.0,0.0,0.0,0.0,0.0,0.0,0.0,0.0,0.0,0.0,0.0,0.0,0.0,0.0,0.0,0.0,0.0,0.0,0.0,0.0,0.0,0.0,0.0,0.0,0.0,0.0,0.0,0.0,0.0,0.0,0.0,0.0,0.0,0.0,0.0,0.0,0.0,0.0,0.0,0.0,0.0,0.0,0.0,0.0,0.0,0.0,0.0,0.0,0.0,0.0,-0.0631,0.0,0.0,0.0,0.0,0.0,0.0,0.0,0.0,0.0,-0.0247,-0.2874,-0.8631,-0.894,-0.894,-0.894,-0.894,-0.894,-0.894,-0.894,-0.893,-0.8903,-0.8319,-0.8038,-0.8038,-0.8038,-0.8038,-0.8233,-1.3392,-1.554,-1.5534,-1.573,-1.5832,-1.5832,-1.5832,-1.5832,-1.5825,-1.5792,-1.5057,-1.4088,-1.4088,-1.4088,-1.4088,-1.4088,-1.4088,-1.4088,-1.4088,-1.4166,-1.5144,-1.9432,-2.0566,-2.0566,-2.0566,-2.0566,-1.709,-0.3281,0.0,0.0,0.0,0.0,0.0,0.0,0.0,0.0,0.0,0.0,0.0,0.0,0.0,0.0,0.0,0.0,0.0,0.0,0.0,0.0,0.0,0.0,0.0,0.0,0.0,0.0,0.0,0.0,0.0,0.0,0.0,0.0,0.0,0.0,0.0,0.0,0.0,0.0,0.0,0.0,0.0,0.0,0.0,0.0,0.0,0.0,0.0,0.0,0.0,0.0,0.0,0.0,0.0,0.0,-0.6658,-0.5937,-0.0685,0.0,0.0,0.0,0.0,0.0,0.0,0.0,0.0,0.0,-0.4423,-0.7646,-0.886,-0.894,-0.894,-0.894,-0.894,-0.894,-0.894,-0.894,-0.872,-0.8286,-0.8119,-0.8038,-0.8038,-0.8038,-0.8038,-0.8038,-0.9505,-1.0186,-1.0476,-1.4268,-1.5832,-1.5832,-1.5832,-1.5832,-1.5725,-1.4877,-1.4362,-1.4088,-1.4088,-1.4088,-1.4088,-1.4088,-1.4088,-1.4088,-1.4088,-1.6281,-1.9027,-2.0235,-2.0566,-2.0566,-2.0566,-2.0566,-1.709,-0.3281,0.0,0.0,0.0,0.0,0.0,0.0,0.0,0.0,0.0,0.0,0.0,0.0,0.0,0.0,0.0,0.0,0.0,0.0,0.0,0.0,0.0,0.0,0.0,0.0,0.0,0.0,0.0,0.0,0.0,0.0,0.0,0.0,0.0,0.0,0.0,0.0,0.0,0.0,0.0,0.0,0.0,0.0,0.0,0.0,0.0,0.0,0.0,0.0,0.0,0.0,0.0,0.0,0.0,0.0,-0.5912,-0.3575,-0.0422,0.0,0.0,0.0,0.0,0.0,0.0,0.0,0.0,0.0,-0.348,-0.6621,-0.8732,-0.894,-0.894,-0.894,-0.894,-0.8818,-0.8564,-0.856,-0.8387,-0.8038,-0.8038,-0.8038,-0.8038,-0.8038,-0.8038,-0.8038,-0.8038,-0.7896,-0.8037,-1.3049,-1.5097,-1.515,0.0,0.0,0.0,0.0,-1.4088,-1.4088,-1.4088,-1.4088,-1.4088,-1.4088,-1.4088,-1.4088,-1.4088,-1.5876,-1.8301,-2.0079,-2.0566,-2.0566,-2.0566,-2.0566,-1.709,-0.3281,0.0,0.0,0.0,0.0,0.0,0.0,0.0,0.0,0.0,0.0,0.0,0.0,0.0,0.0,0.0,0.0,0.0,0.0,0.0,0.0,0.0,0.0,0.0,0.0,0.0,0.0,0.0,0.0,0.0,0.0,0.0,0.0,0.0,0.0,0.0,0.0,0.0,0.0,0.0,0.0,0.0,0.0,0.0,0.0,0.0,0.0,0.0,0.0,0.0,0.0,0.0,0.0,0.0,0.0,-0.3098,0.0,0.0,0.0,0.0,0.0,0.0,0.0,0.0,0.0,0.0,0.0,-0.0579,-0.3352,-0.8602,-0.894,0.0,0.0,0.0,-0.8648,-0.8045,-0.8038,-0.8038,-0.8038,-0.8038,-0.8038,-0.8038,-0.8038,-0.8001,-0.7936,-0.7936,-0.7914,-0.8181,-1.2345,-1.4088,-1.4188,-1.5224,-1.4997,-1.4088,-1.4088,-1.4088,-1.4088,-1.4088,0.0,0.0,-1.4088,-1.4088,-1.4088,-1.4088,-1.4088,-1.4985,-1.9344,-2.043,-2.0273,-2.0273,-2.0273,-1.6846,-0.3232,0.0,0.0,0.0,0.0,0.0,0.0,0.0,0.0,0.0,0.0,0.0,0.0,0.0,0.0,0.0,0.0,0.0,0.0,0.0,0.0,0.0,0.0,0.0,0.0,0.0,0.0,0.0,0.0,0.0,0.0,0.0,0.0,0.0,0.0,0.0,0.0,0.0,0.0,0.0,0.0,0.0,0.0,0.0,0.0,0.0,0.0,0.0,0.0,0.0,0.0,0.0,0.0,0.0,-0.1401,-0.0643,0.0,0.0,0.0,0.0,0.0,0.0,0.0,0.0,0.0,0.0,0.0,-0.4499,-0.7706,-0.8826,-0.894,-0.894,-0.894,-0.894,-0.8648,-0.8045,-0.8038,-0.8038,-0.8038,-0.8038,0.0,-0.8038,-0.8038,-0.7773,-0.7316,-0.7316,-0.9363,-1.2778,-1.3737,-1.4088,-1.4108,-1.4335,-1.4289,-1.4088,-1.4088,-1.4088,-1.4088,-1.4088,-1.4088,-1.4088,-1.4088,-1.4088,-1.4088,-1.4088,-1.4088,0.0,-1.9344,-1.957,-1.8506,-1.8506,-1.8506,-1.5381,-0.2949,0.0,0.0,0.0,0.0,0.0,0.0,0.0,0.0,0.0,0.0,0.0,0.0,0.0,0.0,0.0,0.0,0.0,0.0,0.0,0.0,0.0,0.0,0.0,0.0,0.0,0.0,0.0,0.0,0.0,0.0,0.0,0.0,0.0,0.0,0.0,0.0,0.0,0.0,0.0,0.0,0.0,0.0,0.0,0.0,0.0,0.0,0.0,0.0,0.0,0.0,0.0,0.0,0.0,0.0,0.0,0.0,0.0,0.0,0.0,0.0,0.0,0.0,0.0,0.0,0.0,0.0,-0.5582,-0.894,-0.894,-0.894,-0.894,-0.894,-0.894,-0.8648,-0.8045,-0.8038,-0.8038,-0.8038,-0.8038,-0.8038,-0.8038,-0.8038,-0.7709,-0.7139,-0.7139,-0.8444,-1.0783,-1.313,-1.4088,-1.4088,-1.4088,-1.4088,-1.4088,-1.4088,-1.4088,-1.4088,-1.4088,-1.4088,-1.4088,-1.4088,-1.4088,-1.4088,-1.4088,-1.4088,-1.4448,-1.5971,-1.7189,-1.8008,-1.8008,-1.8008,-1.4971,-0.2871,0.0,0.0,0.0,0.0,0.0,0.0,0.0,0.0,0.0,0.0,0.0,0.0,0.0,0.0,0.0,0.0,0.0,0.0,0.0,0.0,0.0,0.0,0.0,0.0,0.0,0.0,0.0,0.0,0.0,0.0,0.0,0.0,0.0,0.0,0.0,0.0,0.0,0.0,0.0,0.0,0.0,0.0,0.0,0.0,0.0,0.056,0.0,0.0,0.0,0.0,0.0,0.0,0.0,0.0,0.0,0.0,0.0,0.0,0.0,0.0,0.0,0.0,0.0,0.0,0.0,0.0,-0.4467,-0.7703,-0.8826,-0.894,-0.8886,-0.8767,-0.8764,-0.853,-0.8045,-0.8038,-0.798,-0.7865,-0.7865,-0.7865,-0.7865,-0.7865,-0.76,-0.7139,-0.8097,-0.8444,-0.879,-1.2516,-1.4088,-1.4088,-1.4088,-1.4088,-1.4088,-1.4088,-1.4088,-1.4088,-1.4088,-1.4088,-1.4088,-1.4088,-1.4088,-1.4088,-1.4088,-1.4088,-1.3841,-1.2639,-1.4514,-1.7079,-1.7794,-1.8008,-1.5557,-0.5811,-0.1709,0.0,0.0,0.0,0.0,0.0,0.0,0.0,0.0,0.0,0.0,0.0,0.0,0.0,0.0,0.0,0.0,0.0,0.0,0.0,0.0,0.0,0.0,0.0,0.0,0.0,0.0,0.0,0.0,0.0,0.0,0.0,0.0,0.0,0.0,0.0,0.0,0.0,1.0921,0.8842,0.6285,0.681,0.6244,0.5594,0.0,0.2672,0.0,0.0,0.0,0.0,0.0,0.0,0.0,0.0,0.0,0.0,0.0,0.0,0.0,0.0,0.0,0.0,0.0,0.0,0.0,0.0,-0.0672,-0.3352,-0.8602,-0.894,-0.8693,-0.8157,-0.814,-0.8109,-0.8038,-0.8038,-0.777,-0.7241,-0.7241,-0.7241,-0.7241,-0.7241,-0.7204,-0.7312,-1.1477,-1.33,-1.3385,-1.3913,-1.4088,-1.4088,-1.4088,-1.4088,-1.4088,-1.4088,-1.4088,-1.4088,-1.4088,-1.4088,-1.4088,-1.4088,-1.4088,-1.4088,-1.4088,-1.4088,-1.3841,-1.2639,-1.2586,-1.373,-1.7148,-1.8008,-1.7666,-1.6318,-0.7803,0.0,0.0,0.0,0.0,0.0,0.0,0.0,0.0,0.0,0.0,0.0,0.0,0.0,0.0,0.0,0.0,0.0,0.0,0.0,0.0,0.0,0.0,0.0,0.0,0.0,0.0,0.0,0.0,0.0,0.0,0.0,0.0,0.0,0.0,0.0,0.0,0.0,1.0835,0.8582,0.5881,0.6478,0.6512,0.6461,0.6715,0.5397,0.4256,0.4557,0.462,0.372,0.0605,0.0,0.0,0.0,0.0,0.0,0.0,0.0,0.0,0.0,0.0,0.0,0.0,0.0,0.0,0.0,-0.324,-0.6251,-0.8716,-0.8604,-0.8299,-0.8048,-0.8038,-0.7868,-0.7519,-0.7516,-0.739,-0.7139,-0.7139,-0.7139,-0.7139,-0.7139,-0.8619,-1.13,-1.3215,-1.4088,-1.4088,-1.4088,-1.4088,-1.4088,-1.4088,-1.4088,-1.4088,-1.4088,-1.4088,-1.4088,-1.4088,-1.4088,-1.4088,-1.4088,-1.4088,-1.4088,-1.4088,-1.4088,-1.3841,-1.2639,-1.2305,-1.2659,-1.4299,-1.6367,-1.8008,-1.8008,-0.8789,0.0,0.0,0.0,0.0,0.0,0.0,0.0,0.0,0.0,0.0,0.0,0.0,0.0,0.0,0.0,0.0,0.0,0.0,0.0,0.0,0.0,0.0,0.0,0.0,0.0,0.0,0.0,0.0,0.0,0.0,0.0,0.0,0.0,0.0,0.0,0.0,0.0,0.9846,0.8731,0.7168,0.6449,0.6705,0.7139,0.7139,0.7139,0.7265,0.7702,0.7923,0.683,0.2917,0.2207,0.1751,0.0224,0.0,0.0,0.0,0.0,0.0,0.0,0.0,0.0,0.0,0.0,0.0,0.0,-0.4019,-0.7058,-0.8582,-0.8279,-0.8038,-0.8038,-0.7879,-0.758,-0.7143,-0.7139,-0.7139,-0.7139,-0.7139,-0.7139,-0.7139,-0.8444,-1.0869,-1.4088,-1.4088,-1.4088,-1.4088,-1.4088,-1.4088,-1.4088,-1.4088,-1.4088,-1.4088,-1.4088,-1.4088,-1.4088,-1.4088,-1.4088,-1.4088,-1.4088,-1.4088,-1.4088,-1.4088,-1.4088,-1.3841,-1.2639,-1.2305,-1.2305,-1.2305,-1.4371,-1.6437,-1.6437,-0.8022,0.0,0.0,0.0,0.0,0.0,0.0,0.0,0.0,0.0,0.0,0.0,0.0,0.0,0.0,0.0,0.0,0.0,0.0,0.0,0.0,0.0,0.0,0.0,0.0,0.0,0.0,0.0,0.0,0.0,0.0,0.0,0.0,0.0,0.0,0.0,0.0,0.0,0.8851,1.0451,1.1131,0.7242,0.6705,0.7139,0.7139,0.7139,0.7146,0.7163,0.7631,0.7939,0.7739,0.7753,0.6085,0.0887,0.0,0.0,0.0,0.0,0.0,0.0,0.0,0.0,0.0,0.0,0.0,0.0,-0.0203,-0.2524,-0.7762,-0.8048,-0.8038,-0.8038,-0.7472,-0.7156,-0.7139,-0.7139,-0.7139,-0.7139,-0.7139,-0.7139,-0.7228,-1.1826,-1.3997,-1.4088,-1.4088,-1.4088,-1.4088,-1.4088,-1.4088,-1.4088,-1.4088,-1.4088,-1.4088,-1.4088,-1.4088,-1.4088,-1.4088,-1.4088,-1.4088,-1.4088,-1.4088,-1.4088,-1.4088,-1.4088,-1.3841,-1.2639,-1.2305,-1.2305,-1.2305,-1.2372,-1.2445,-1.2445,-0.6071,0.0,0.0,0.0,0.0,0.0,0.0,0.0,0.0,0.0,0.0,0.0,0.0,0.0,0.0,0.0,0.0,0.0,0.0,0.0,0.0,0.0,0.0,0.0,0.0,0.0,0.0,0.0,0.0,0.0,0.0,0.0,0.0,0.0,0.0,0.0,0.0,0.0,0.9316,1.0514,1.1996,1.064,0.8425,0.6661,0.7051,0.7139,0.7139,0.7139,0.7302,0.6426,0.3288,0.5625,0.6276,0.0833,0.0,0.0,0.0,0.0,0.0,0.0,0.0,0.0,0.0,0.0,0.0,0.0,-0.3318,-0.6126,-0.7939,-0.8038,-0.8038,-0.8038,-0.7841,-0.7543,-0.7143,-0.7139,-0.7139,-0.7139,-0.7139,-0.7139,-0.7228,-1.1997,-1.4088,-1.4088,-1.4088,-1.4088,-1.4088,-1.4088,-1.4088,-1.4088,-1.4088,-1.4088,-1.4088,-1.4088,-1.4088,-1.4088,-1.4088,-1.4088,-1.4088,-1.4088,-1.4088,-1.3941,-1.3146,-1.2906,-1.2819,-1.2412,-1.2305,-1.2305,-1.2305,-1.2305,-1.2945,-1.5508,-0.7843,0.0,0.0,0.0,0.0,0.0,0.0,0.0,0.0,0.0,0.0,0.0,0.0,0.0,0.0,0.0,0.0,0.0,0.0,0.0,0.0,0.0,0.0,0.0,0.0,0.0,0.0,0.0,0.0,0.0,0.0,0.0,0.0,0.0,0.0,0.0,0.0,0.0,1.2222,1.2197,1.2305,1.2305,0.9286,0.6417,0.7007,0.7139,0.7139,0.7139,0.7139,0.6112,0.2859,0.5087,0.6409,0.339,0.2993,0.246,0.0336,0.0,0.0,0.0,0.0,0.0,0.0,0.0,0.0,0.0,-0.4922,-0.8038,-0.8038,-0.8038,-0.8038,-0.8038,-0.7831,-0.7533,-0.7143,-0.7139,-0.7139,-0.7139,-0.7139,-0.7139,-0.7228,-1.1997,-1.4088,-1.4088,-1.4088,-1.4088,-1.4088,-1.4088,-1.4088,-1.4088,-1.4088,-1.4088,-1.4088,-1.4088,-1.4088,-1.4088,-1.4088,-1.4088,-1.4088,-1.4088,-1.3801,-1.3307,-1.2538,-1.2305,-1.2305,-1.2305,-1.2305,-1.2305,-1.2305,-1.2305,-1.323,-1.7079,-1.208,-0.5254,-0.0928,0.0,0.0,0.0,0.0,0.0,0.0,0.0,0.0,0.0,0.0,0.0,0.0,0.0,0.0,0.0,0.0,0.0,0.0,0.0,0.0,0.0,0.0,0.0,0.0,0.0,0.0,0.0,0.0,0.0,0.0,0.0,0.0,0.0,0.0,0.0,1.6831,1.5084,1.2224,1.207,0.9135,0.6417,0.7007,0.7139,0.7139,0.7139,0.7139,0.6949,0.6329,0.6318,0.6641,0.7804,0.8472,0.6738,0.0776,0.0,0.0,0.0,0.0,0.0,0.0,0.0,0.0,0.0,-0.4722,-0.7736,-0.7939,-0.8038,-0.8024,-0.7994,-0.7438,-0.7139,-0.7139,-0.7139,-0.7139,-0.7139,-0.7139,-0.7139,-0.7228,-1.1997,-1.4088,-1.4088,-1.4088,-1.4088,-1.4088,-1.4088,-1.4088,-1.4088,-1.4088,-1.4088,-1.4088,-1.4088,-1.4088,-1.4082,-1.4015,-1.4035,-1.4075,-1.4015,-1.3227,-1.2305,-1.2305,-1.2305,-1.2305,-1.2305,-1.2305,-1.2305,-1.2305,-1.2305,-1.323,-1.6862,-1.7725,-1.4465,-0.2568,0.0,0.0,0.0,0.0,0.0,0.0,0.0,0.0,0.0,0.0,0.0,0.0,0.0,0.0,0.0,0.0,0.0,0.0,0.0,0.0,0.0,0.0,0.0,0.0,0.0,0.0,0.0,0.0,0.0,0.0,0.0,0.0,0.0,0.0,0.0,1.397,1.3018,1.1545,0.8609,0.7022,0.6417,0.7007,0.7139,0.7139,0.7139,0.7139,0.6824,0.5783,0.6033,0.6505,0.7248,0.7499,0.5792,0.0668,0.0,0.0,0.0,0.0,0.0,0.0,0.0,0.0,0.0,-0.131,-0.382,-0.7739,-0.8038,-0.7834,-0.7383,-0.7221,-0.7139,-0.7139,-0.7139,-0.7139,-0.7139,-0.7139,-0.7139,-0.7228,-1.1997,-1.4088,-1.4088,-1.4088,-1.4088,-1.4088,-1.4088,-1.4088,-1.4088,-1.4088,-1.4088,-1.4088,-1.4088,-1.4088,-1.3961,-1.3066,-1.334,-1.3941,-1.3046,-1.2552,-1.2305,-1.2305,-1.2305,-1.2305,-1.2305,-1.2305,-1.2305,-1.2305,-1.2305,-1.2519,-1.3513,-1.373,-1.1211,-0.1988,0.0,0.0,0.0,0.0,0.0,0.0,0.0,0.0,0.0,0.0,0.0,0.0,0.0,0.0,0.0,0.0,0.0,0.0,0.0,0.0,0.0,0.0,0.0,0.0,0.0,0.0,0.0,0.0,0.0,0.0,0.0,0.0,0.0,0.0,0.0,1.0,0.9265,0.8796,0.6798,0.6338,0.6346,0.6678,0.6756,0.6756,0.6756,0.6542,0.6234,0.583,0.6108,0.6539,0.7397,0.7756,0.6044,0.0697,0.0,0.0,0.0,0.0,0.0,0.0,0.0,0.0,0.0,0.0,-0.2182,-0.737,-0.7645,-0.7489,-0.7149,-0.7139,-0.7139,-0.7139,-0.7139,-0.7139,-0.7139,-0.7139,-0.7139,-0.7228,-1.1997,-1.4088,-1.4088,-1.4088,-1.4088,-1.4088,-1.4088,-1.4088,-1.4088,-1.4088,-1.4088,-1.4028,-1.35,-1.3307,-1.3206,-1.2532,-1.2746,-1.3193,-1.2518,-1.2305,-1.2305,-1.2305,-1.2305,-1.2305,-1.2305,-1.2305,-1.2305,-1.2305,-1.3513,-1.4799,-1.4799,-1.4255,-1.1153,-0.1978,0.0,0.0,0.0,0.0,0.0,0.0,0.0,0.0,0.0,0.0,0.0,0.0,0.0,0.0,0.0,0.0,0.0,0.0,0.0,0.0,0.0,0.0,0.0,0.0,0.0,0.0,0.0,0.0,0.0,0.0,0.0,0.0,0.0,0.0,0.0,0.6362,0.5428,0.5416,0.5482,0.5499,0.5476,0.5476,0.5445,0.5569,0.5946,0.5806,0.571,0.6239,0.6338,0.6624,0.774,0.8425,0.696,0.19,0.0445,0.0,0.0,0.0,0.0,0.0,0.0,0.0,0.0,0.0,-0.2119,-0.6808,-0.7139,-0.7139,-0.7139,-0.7139,-0.7139,-0.7139,-0.7139,-0.7139,-0.7139,-0.7139,-0.7139,-0.7228,-1.1997,-1.4088,-1.4088,-1.4088,-1.4088,-1.4088,-1.4088,-1.4088,-1.4075,-1.3915,-1.3848,-1.3721,-1.2685,-1.2305,-1.2305,-1.2305,-1.2305,-1.2305,-1.2305,-1.2305,-1.2305,-1.2305,-1.2305,-1.2305,-1.2305,-1.2305,-1.2305,-1.2305,-1.4728,-1.7364,-1.7872,-1.668,-1.2578,-0.2236,0.0,0.0,0.0,0.0,0.0,0.0,0.0,0.0,0.0,0.0,0.0,0.0,0.0,0.0,0.0,0.0,0.0,0.0,0.0,0.0,0.0,0.0,0.0,0.0,0.0,0.0,0.0,0.0,0.0,0.0,0.0,0.0,0.0,0.0,0.0,0.663,0.5428,0.4712,0.1787,0.1107,0.1097,0.1097,0.11,0.1792,0.4293,0.5552,0.6215,0.6318,0.6338,0.6488,0.7183,0.7801,0.7949,0.7422,0.3087,0.0,0.0,0.0,0.0,0.0,0.0,0.0,0.0,0.0,-0.2091,-0.6877,-0.7139,-0.7139,-0.7139,-0.7139,-0.7139,-0.7139,-0.7139,-0.7139,-0.7139,-0.7139,-0.7139,-0.7228,-1.1997,-1.4088,-1.4088,-1.4088,-1.4088,-1.4088,-1.4088,-1.4088,-1.3988,-1.2999,-1.2612,-1.2585,-1.2378,-1.2305,-1.2305,-1.2305,-1.2305,-1.2305,-1.2305,-1.2305,-1.2305,-1.2305,-1.2305,-1.2305,-1.2305,-1.2305,-1.2305,-1.2305,-1.2806,-1.4091,-1.7226,-1.668,-1.2578,-0.2236,0.0,0.0,0.0,0.0,0.0,0.0,0.0,0.0,0.0,0.0,0.0,0.0,0.0,0.0,0.0,0.0,0.0,0.0,0.0,0.0,0.0,0.0,0.0,0.0,0.0,0.0,0.0,0.0,0.0,0.0,0.0,0.0,0.0,0.0,0.0,0.6037,0.402,0.1741,-0.1874,-0.2788,-0.2316,-0.0436,0.0,0.04,0.1887,0.2629,0.3681,0.5889,0.6338,0.6251,0.622,0.7241,0.814,0.8431,0.626,0.3463,0.0406,0.0,0.0,0.0,0.0,0.0,0.0,0.0,-0.2059,-0.6874,-0.7139,-0.7139,-0.7139,-0.7139,-0.7139,-0.7139,-0.7139,-0.7139,-0.7139,-0.7139,-0.7139,-0.7139,-0.9396,-1.1821,-1.4088,-1.4088,-1.4088,-1.4088,-1.4088,-1.3721,-1.31,-1.2525,-1.2305,-1.2305,-1.2305,-1.2305,-1.2305,-1.2305,-1.2305,-1.2305,-1.2305,-1.2305,-1.2305,-1.2305,-1.2305,-1.2305,-1.2305,-1.2305,-1.2305,-1.2305,-1.2305,-1.323,-1.7079,-1.2568,-0.6035,-0.1074,0.0,0.0,0.0,0.0,0.0,0.0,0.0,0.0,0.0,0.0,0.0,0.0,0.0,0.0,0.0,0.0,0.0,0.0,0.0,0.0,0.0,0.0,0.0,0.0,0.0,0.0,0.0,0.0,0.0,0.0,0.0,0.0,0.0,0.0,0.0,0.4508,0.1567,-0.189,-0.4831,-0.5624,-0.4828,-0.1822,-0.0553,0.0,0.0,0.0,0.1285,0.5555,0.6338,0.618,0.57,0.6739,0.7702,0.7831,0.7318,0.5247,0.0508,0.0,0.0,0.0,0.0,0.0,0.0,-0.093,-0.3129,-0.6871,-0.7139,-0.7139,-0.7139,-0.7139,-0.7139,-0.7139,-0.7139,-0.7139,-0.7139,-0.7139,-0.7139,-0.7139,-0.7139,-0.9135,-1.2693,-1.3652,-1.4088,-1.4088,-1.4088,-1.3534,-1.2659,-1.2398,-1.2305,-1.2305,-1.2305,-1.2305,-1.2305,-1.2305,-1.2305,-1.2305,-1.2305,-1.2305,-1.2305,-1.2305,-1.2305,-1.2305,-1.2305,-1.2872,-1.3513,-1.3513,-1.3513,-1.415,-1.6844,-1.0205,-0.2695,-0.0479,0.0,0.0,0.0,0.0,0.0,0.0,0.0,0.0,0.0,0.0,0.0,0.0,0.0,0.0,0.0,0.0,0.0,0.0,0.0,0.0,0.0,0.0,0.0,0.0,0.0,0.0,0.0,0.0,0.0,0.0,0.0,0.0,0.0,0.0,0.0,0.1545,-0.2164,-0.5148,-0.5966,-0.6256,-0.5959,-0.5073,-0.2387,0.0,0.0,0.0,0.1318,0.5541,0.6338,0.6321,0.6263,0.6318,0.661,0.7146,0.3485,0.061,0.0101,0.0,0.0,0.0,0.0,0.0,0.0,-0.4036,-0.6605,-0.7051,-0.7139,-0.7139,-0.7139,-0.7139,-0.7139,-0.7139,-0.7139,-0.7139,-0.7139,-0.7139,-0.7139,-0.7139,-0.7139,-0.7312,-0.8009,-1.226,-1.4088,-1.4088,-1.4088,-1.4021,-1.3814,-1.2726,-1.2305,-1.2305,-1.2305,-1.2305,-1.2305,-1.2305,-1.2305,-1.2305,-1.2305,-1.2305,-1.2305,-1.2305,-1.2305,-1.2305,-1.2305,-1.4799,-1.751,-1.751,-1.751,-1.7188,-1.5955,-1.4805,-1.1426,-0.2031,0.0,0.0,0.0,0.0,0.0,0.0,0.0,0.0,0.0,0.0,0.0,0.0,0.0,0.0,0.0,0.0,0.0,0.0,0.0,0.0,0.0,0.0,0.0,0.0,0.0,0.0,0.0,0.0,0.0,0.0,0.0,0.0,0.0,0.0,0.0,0.108,-0.1066,-0.2829,-0.5576,-0.6338,-0.6177,-0.5566,-0.3975,-0.2201,-0.0395,0.0,0.1254,0.555,0.6338,0.6338,0.6338,0.6338,0.6342,0.6576,0.5573,0.3618,0.0404,0.0,0.0,0.0,0.0,0.0,0.0,-0.4376,-0.7139,-0.7139,-0.7139,-0.7139,-0.7139,-0.7139,-0.7139,-0.7139,-0.7139,-0.7139,-0.7139,-0.7139,-0.7139,-0.7139,-0.7139,-0.7139,-0.7401,-1.2083,-1.3681,-1.3013,-1.3013,-1.344,-1.3968,-1.2766,-1.2305,-1.2305,-1.2305,-1.2305,-1.2305,-1.2305,-1.2305,-1.2305,-1.2305,-1.2305,-1.2305,-1.2305,-1.2305,-1.2806,-1.5084,-1.6793,-1.7442,-1.5155,-1.5521,-1.6269,-1.5576,-1.541,-1.2578,-0.2236,0.0,0.0,0.0,0.0,0.0,0.0,0.0,0.0,0.0,0.0,0.0,0.0,0.0,0.0,0.0,0.0,0.0,0.0,0.0,0.0,0.0,0.0,0.0,0.0,0.0,0.0,0.0,0.0,0.0,0.0,0.0,0.0,0.0,0.0,0.0,0.2681,0.1041,-0.0711,-0.3724,-0.5459,-0.6271,-0.538,-0.4109,-0.2548,-0.046,0.0,0.1254,0.555,0.6338,0.6338,0.6338,0.6338,0.6338,0.6338,0.5885,0.4277,0.0488,0.0,0.0,0.0,0.0,0.0,0.0,-0.3129,-0.5622,-0.7051,-0.7139,-0.7139,-0.7139,-0.7139,-0.7139,-0.7139,-0.7139,-0.7139,-0.7139,-0.7139,-0.7139,-0.7139,-0.7139,-0.7044,-0.7133,-1.1634,-1.308,-1.2305,-1.2305,-1.2799,-1.3474,-1.2632,-1.2305,-1.2305,-1.2305,-1.2305,-1.2305,-1.2305,-1.2305,-1.2305,-1.2305,-1.2305,-1.2238,-1.1891,-1.2799,-1.4514,-1.7226,-1.7637,-1.6619,-1.3897,-1.4319,-1.541,-1.541,-1.541,-1.2578,-0.2236,0.0,0.0,0.0,0.0,0.0,0.0,0.0,0.0,0.0,0.0,0.0,0.0,0.0,0.0,0.0,0.0,0.0,0.0,0.0,0.0,0.0,0.0,0.0,0.0,0.0,0.0,0.0,0.0,0.0,0.0,0.0,0.0,0.0,0.0,0.0,0.6723,0.3601,0.0,-0.0088,-0.357,-0.6664,-0.4877,-0.2178,-0.0058,0.0,0.0,0.1254,0.555,0.6338,0.6338,0.6338,0.6338,0.6338,0.6338,0.2714,0.009,0.0,0.0,0.0,0.0,0.0,0.0,0.0,-0.009,-0.2149,-0.6871,-0.7139,-0.7139,-0.7139,-0.7139,-0.7139,-0.7139,-0.7139,-0.7139,-0.7139,-0.7139,-0.7139,-0.7139,-0.7139,-0.682,-0.65,-1.0582,-1.2311,-1.2305,-1.2305,-1.2311,-1.2318,-1.2305,-1.2305,-1.2305,-1.2305,-1.2305,-1.2305,-1.2305,-1.2305,-1.2305,-1.2305,-1.2305,-1.2091,-1.0929,-1.4024,-1.794,-1.8008,-1.6768,-1.5439,-1.5381,-1.5362,-1.541,-1.541,-1.541,-1.2578,-0.2236,0.0,0.0,0.0,0.0,0.0,0.0,0.0,0.0,0.0,0.0,0.0,0.0,0.0,0.0,0.0,0.0,0.0,0.0,0.0,0.0,0.0,0.0,0.0,0.0,0.0,0.0,0.0,0.0,0.0,0.0,0.0,0.0,0.0,0.0,0.0,0.6213,0.3358,0.0,0.0,-0.1166,-0.2089,-0.1525,-0.0659,0.0,0.0,0.0,0.0392,0.1722,0.4377,0.6338,0.6338,0.3908,0.2002,0.1961,0.0882,0.0,0.0,0.0,0.0,0.0,0.0,-0.1345,-0.4643,-0.188,-0.2059,-0.6874,-0.7139,-0.7139,-0.7139,-0.7139,-0.7139,-0.7139,-0.7139,-0.6939,-0.6539,-0.6539,-0.6539,-0.6539,-0.6539,-0.6437,-0.649,-1.0565,-1.2305,-1.2305,-1.2305,-1.183,-1.1109,-1.1109,-1.1109,-1.1109,-1.1109,-1.1617,-1.2191,-1.139,-1.1109,-1.1109,-1.1109,-1.2653,-1.4345,-1.3986,-1.499,-1.623,-1.623,-1.584,-1.541,-1.541,-1.541,-1.541,-1.541,-1.541,-1.2578,-0.2236,0.0,0.0,0.0,0.0,0.0,0.0,0.0,0.0,0.0,0.0,0.0,0.0,0.0,0.0,0.0,0.0,0.0,0.0,0.0,0.0,0.0,0.0,0.0,0.0,0.0,0.0,0.0,0.0,0.0,0.0,0.0,0.0,0.0,0.0,0.0,0.4076,0.2014,0.0,0.0,0.0,0.0,0.0,0.0,0.0,0.0,0.0,0.0,0.0,0.2113,0.3908,0.3908,0.1722,0.0,0.0,0.0,0.0,0.0,0.0,0.0,0.0,0.0,-0.197,-0.6782,-0.4374,-0.3877,-0.6648,-0.6807,-0.6807,-0.6807,-0.7024,-0.7034,-0.681,-0.6807,-0.6624,-0.6338,-0.6338,-0.6338,-0.6254,-0.6098,-0.6714,-0.8078,-1.0572,-1.1643,0.0,-1.1643,-1.1216,-1.0624,-1.0624,-1.0624,-1.0624,-1.0624,-1.1022,-1.1543,-1.088,-1.0624,-1.0624,-1.0624,-1.281,-1.541,-1.541,-1.541,-1.541,-1.541,-1.541,-1.541,-1.541,-1.541,-1.541,-1.541,-1.541,-1.3652,-0.7207,-0.2754,0.0,0.0,0.0,0.0,0.0,0.0,0.0,0.0,0.0,0.0,0.0,0.0,0.0,0.0,0.0,0.0,0.0,0.0,0.0,0.0,0.0,0.0,0.0,0.0,0.0,0.0,0.0,0.0,0.0,0.0,0.0,0.0,0.0,0.0,0.0,0.0,0.0,0.0,0.0,0.0,0.0,0.0,0.0,0.0,0.0,0.0,0.0,0.0,0.0,0.0,0.0,0.0,0.0,0.0,0.0,0.0,0.0,0.0,0.0,0.0,-0.1791,-0.6245,-0.6874,-0.6902,-0.6352,-0.6285,-0.6338,-0.6338,-0.6749,-0.677,-0.6268,-0.6338,-0.6338,-0.6261,-0.6294,-0.6273,-0.6256,-0.5686,-0.7312,-1.0618,-1.0537,-1.0497,-1.0497,-1.0497,-1.0497,-1.0497,-1.0497,-1.0551,-1.0611,-1.053,-1.0551,-1.0624,-1.0624,-1.0624,-1.0611,-1.0524,-1.2474,-1.4994,-1.5167,-1.5312,-1.541,-1.541,-1.541,-1.541,-1.541,-1.541,-1.541,-1.541,-1.541,-1.541,-1.541,-0.7295,0.0,0.0,0.0,0.0,0.0,0.0,0.0,0.0,0.0,0.0,0.0,0.0,0.0,0.0,0.0,0.0,0.0,0.0,0.0,0.0,0.0,0.0,0.0,0.0,0.0,0.0,0.0,0.0,0.0,0.0,0.0,0.0,0.0,0.0,0.0976,0.0,0.0,0.0,0.0,0.0,0.0,0.0,0.0,0.0,0.0,0.0,0.0,0.0,0.0,0.0,0.0,0.0,0.0,0.0,0.0,0.0,0.0,0.0,0.0,0.0,-0.0449,-0.1613,-0.4999,-0.7082,-0.6943,-0.6505,-0.6338,-0.6338,-0.5949,-0.5935,-0.6335,-0.6338,-0.6338,-0.6254,-0.5864,-0.5641,-0.5638,-0.5494,-0.7312,-1.0571,-0.9613,-0.9218,-0.9218,-0.9218,-0.9218,-0.9218,-0.9218,-0.9766,-1.0517,-0.9552,-0.9786,-1.0624,-1.0624,-1.0624,-1.0477,-0.9512,-0.9748,-1.0762,-1.2833,-1.4385,-1.541,-1.541,-1.541,-1.541,-1.541,-1.541,-1.541,-1.541,-1.541,-1.541,-1.541,-0.7295,0.0,0.0,0.0,0.0,0.0,0.0,0.0,0.0,0.0,0.0,0.0,0.0,0.0,0.0,0.0,0.0,0.0,0.0,0.0,0.0,0.0,0.0,0.0,0.0,0.0,0.0,0.0,0.0,0.0,0.0,0.0,0.0,0.0,0.0,0.3015,0.1276,0.0,0.0,0.0,0.0,0.0,0.0,0.0,0.0,0.0,0.0,0.0,0.0,0.0,0.0,0.0,0.0,0.0,0.0,0.0,0.0,0.0,0.0,0.0,0.0,0.0,0.0,-0.421,-0.6736,-0.6736,-0.6434,-0.6338,-0.6338,-0.5744,-0.5586,-0.5916,-0.5919,-0.5919,-0.5916,-0.5586,-0.5428,-0.5428,-0.7051,-0.7802,-0.786,-0.8519,-0.8804,-0.8804,-0.8804,-0.8804,-0.8804,-0.8804,-0.9192,-0.9679,-0.9038,-0.9212,-0.976,-0.976,-0.976,-0.9653,-0.9018,-0.8804,-0.9316,-1.2067,-1.3516,-1.4248,-1.4248,-1.4814,-1.5234,-1.4453,-1.4248,-1.4443,-1.5225,-1.541,-1.5195,-1.4414,-0.9853,-0.4736,-0.0771,0.0,0.0,0.0,0.0,0.0,0.0,0.0,0.0,0.0,0.0,0.0,0.0,0.0,0.0,0.0,0.0,0.0,0.0,0.0,0.0,0.0,0.0,0.0,0.0,0.0,0.0,0.0,0.0,0.0,0.0,0.0,0.0,0.5428,0.2748,0.0,0.0,0.0,0.0,0.0,0.0,0.0,0.0,0.046,0.0847,0.0938,0.0941,0.0788,0.008,0.0,0.0,0.0,0.0,0.0,0.0,0.0,0.0,0.0,0.0,0.0,0.0,-0.3908,-0.6297,-0.6204,-0.6197,-0.6197,-0.6197,-0.5696,-0.5428,-0.5428,-0.5428,-0.5428,-0.5428,-0.5428,-0.5428,-0.5491,-0.8392,-0.7763,-0.468,-0.7557,-0.8804,-0.8804,-0.8804,-0.8804,-0.8804,-0.8804,-0.8697,-0.8557,-0.8744,-0.8804,-0.8804,-0.8804,-0.8804,-0.8804,-0.8804,-0.8804,-0.9316,-1.2067,-1.2881,-1.2881,-1.2881,-1.3916,-1.4697,-1.3252,-1.2881,-1.3311,-1.501,-1.541,-1.4941,-1.3252,-1.3086,-1.0635,-0.1729,0.0,0.0,0.0,0.0,0.0,0.0,0.0,0.0,0.0,0.0,0.0,0.0,0.0,0.0,0.0,0.0,0.0,0.0,0.0,0.0,0.0,0.0,0.0,0.0,0.0,0.0,0.0,0.0,0.0,0.0,0.0,0.0,0.5428,0.2748,0.0,0.0,0.0,0.0,0.0,0.0,0.0,0.0,0.2408,0.4731,0.5237,0.5318,0.4174,0.0609,0.0,0.0,0.0,0.0,0.0,0.0,0.0,0.0,0.0,0.0,0.0,0.0,-0.3908,-0.6112,-0.5597,-0.5566,-0.5566,-0.5566,-0.5476,-0.5428,-0.5428,-0.5428,-0.5428,-0.5428,-0.5428,-0.5428,-0.5411,-0.5422,-0.5102,-0.468,-0.7557,-0.8804,-0.8804,-0.8804,-0.8804,-0.8804,-0.8804,-0.819,-0.7422,-0.843,-0.8804,-0.8804,-0.8804,-0.8804,-0.8804,-0.8804,-0.8804,-0.9316,-1.2067,-1.2881,-1.2881,-1.2881,-1.3076,-1.3203,-1.2949,-1.2881,-1.3311,-1.501,-1.541,-1.4941,-1.3252,-1.4004,-1.2041,-0.1953,0.0,0.0,0.0,0.0,0.0,0.0,0.0,0.0,0.0,0.0,0.0,0.0,0.0,0.0,0.0,0.0,0.0,0.0,0.0,0.0,0.0,0.0,0.0,0.0,0.0,0.0,0.0,0.0,0.0,0.0,0.0,0.0,0.5339,0.2748,0.0,0.0,0.0,0.0,0.0,0.0,0.0539,0.2549,0.422,0.5514,0.5792,0.6302,0.5288,0.0754,0.0,0.0,0.0,0.0,0.0,0.0,0.0,0.0,0.0,0.0,0.0,0.0,-0.3606,-0.5724,-0.5442,-0.5428,-0.5428,-0.5428,-0.5109,-0.4934,-0.4934,-0.4934,-0.4934,-0.4934,-0.4934,-0.5708,-0.7234,-0.693,-0.6853,-0.6876,-0.7517,-0.7842,-0.7842,-0.7842,-0.7842,-0.7842,-0.7842,-0.7508,-0.7088,-0.7642,-0.7842,-0.7842,-0.7842,-0.8263,-0.8804,-0.8804,-0.8804,-0.9316,-1.2067,-1.2881,-1.2881,-1.2881,-1.2881,-1.2881,-1.2881,-1.2881,-1.3076,-1.3857,-1.4043,-1.3828,-1.3047,-1.3496,-1.2637,-0.7881,-0.3193,0.0,0.0,0.0,0.0,0.0,0.0,0.0,0.0,0.0,0.0,0.0,0.0,0.0,0.0,0.0,0.0,0.0,0.0,0.0,0.0,0.0,0.0,0.0,0.0,0.0,0.0,0.0,0.0,0.0,0.0,0.0,0.4018,0.2127,0.0,0.0,0.0,0.0319,0.1401,0.1664,0.244,0.5038,0.5528,0.5428,0.5428,0.5384,0.4282,0.0574,0.0,0.0,0.0,0.0,0.0,0.0,0.0,0.0,0.0,0.0,0.0,0.0,-0.2547,-0.4489,-0.5359,-0.5291,-0.5216,-0.5216,-0.4762,-0.4519,-0.4519,-0.4519,-0.4519,-0.4519,-0.4519,-0.6036,-0.8804,-0.8804,-0.8657,-0.8337,-0.7422,-0.6979,-0.6979,-0.6979,-0.6979,-0.6979,-0.6979,-0.6979,-0.6979,-0.6979,-0.6979,-0.6979,-0.6979,-0.7802,-0.8804,-0.8804,-0.8617,-0.8833,-1.1247,-1.2372,-1.2881,-1.2881,-1.2881,-1.2881,-1.2881,-1.2881,-1.2881,-1.2881,-1.2881,-1.2881,-1.2881,-1.2881,-1.2881,-1.2881,-0.5908,0.0,0.0,0.0,0.0,0.0,0.0,0.0,0.0,0.0,0.0,0.0,0.0,0.0,0.0,0.0,0.0,0.0,0.0,0.0,0.0,0.0,0.0,0.0,0.0,0.0,0.0,0.0,0.0,0.0,0.0,0.0,0.0397,0.0171,0.0,0.0,0.0,0.1153,0.5616,0.6573,0.6512,0.6308,0.5823,0.5428,0.5428,0.2697,0.0358,0.0089,0.0,0.0,0.0,0.0,0.0,0.0,0.0,0.0,0.0,0.0,0.0,0.0,-0.0269,-0.1879,-0.5226,-0.4889,-0.4584,-0.4584,-0.4539,-0.4519,-0.4519,-0.4519,-0.4519,-0.4519,-0.4519,-0.6036,-0.8804,-0.8804,-0.8203,-0.7148,-0.7061,-0.6979,-0.6979,-0.6979,-0.6979,-0.6979,-0.6979,-0.6979,-0.6979,-0.6979,-0.6979,-0.6979,-0.6979,-0.7802,-0.8804,-0.8804,-0.8056,-0.7355,-0.8717,-1.0897,-1.2881,-1.2881,-1.2881,-1.2881,-1.2881,-1.2881,-1.2881,-1.2881,-1.2881,-1.2881,-1.2881,-1.2881,-1.2881,-1.2881,-0.5908,0.0,0.0,0.0,0.0,0.0,0.0,0.0,0.0,0.0,0.0,0.0,0.0,0.0,0.0,0.0,0.0,0.0,0.0,0.0,0.0,0.0,0.0,0.0,0.0,0.0,0.0,0.0,0.0,0.0,0.0,0.0,0.0,0.0,0.0,0.0,0.0,0.106,0.5127,0.6607,0.7078,0.6854,0.6627,0.624,0.5498,0.2439,0.0,0.0,0.0,0.0,0.0,0.0,0.0,0.0,0.0,0.0,0.0,0.0,0.0,0.0,0.0,-0.0587,-0.1991,-0.3607,-0.4519,-0.4519,-0.4519,-0.4519,-0.4519,-0.4519,-0.433,-0.3966,-0.434,-0.6036,-0.8784,-0.8036,-0.7448,-0.6979,-0.6979,-0.6979,-0.6979,-0.6979,-0.6979,-0.6979,-0.6979,-0.6979,-0.6979,-0.6979,-0.6979,-0.6979,-0.6979,-0.7802,-0.8684,-0.7943,-0.7388,-0.7108,-0.7562,-1.0111,-1.2881,-1.2881,-1.2881,-1.2881,-1.2881,-1.2881,-1.2881,-1.2881,-1.2881,-1.2881,-1.2881,-1.2881,-1.3193,-1.4248,-1.1816,-0.7549,-0.1104,0.0,0.0,0.0,0.0,0.0,0.0,0.0,0.0,0.0,0.0,0.0,0.0,0.0,0.0,0.0,0.0,0.0,0.0,0.0,0.0,0.0,0.0,0.0,0.0,0.0,0.0,0.0,0.0,0.0,0.0,0.0,0.0,0.0,0.0,0.0673,0.3149,0.5497,0.7139,0.7139,0.7139,0.6404,0.415,0.2609,0.1308,0.0222,0.0,0.0,0.0,0.0,0.0,0.0,0.0,0.0,0.0,0.0,0.0,0.0,0.0,0.0,0.0,-0.1953,-0.3511,-0.446,-0.4333,-0.4234,-0.4234,-0.4234,-0.4031,-0.3585,-0.4041,-0.5255,-0.7162,-0.7033,-0.6979,-0.6979,-0.6979,-0.6979,-0.6979,-0.6979,-0.6979,-0.6979,-0.6979,-0.6979,-0.6979,-0.6979,-0.6979,-0.6979,-0.6979,-0.7555,-0.811,-0.7288,-0.6979,-0.6979,-0.6979,-0.9396,-1.2178,-1.2725,-1.2881,-1.2881,-1.2881,-1.2881,-1.2881,-1.2881,-1.2881,-1.3027,-1.3564,-1.3262,-1.3462,-1.5353,-1.6328,-1.3203,-0.1943,0.0,0.0,0.0,0.0,0.0,0.0,0.0,0.0,0.0,0.0,0.0,0.0,0.0,0.0,0.0,0.0,0.0,0.0,0.0,0.0,0.0,0.0,0.0,0.0,0.0,0.0,0.0,0.0,0.0,0.0,0.0,0.0,0.0,0.0,0.0,0.0,0.3618,0.7051,0.7051,0.7048,0.5556,0.0875,0.295,0.4154,0.0606,0.0,0.0,0.0,0.0,0.0,0.0,0.0,0.0,0.0,0.0,0.0,0.0,0.0,0.0,0.0,0.0,-0.1397,-0.4405,-0.3938,-0.3581,-0.3581,-0.3581,-0.3581,-0.3581,-0.3581,-0.3581,-0.3667,-0.5947,-0.6979,-0.6979,-0.6979,-0.6979,-0.6979,-0.6979,-0.6979,-0.6979,-0.6979,-0.6979,-0.6979,-0.6979,-0.6979,-0.6979,-0.6979,-0.6979,-0.7021,-0.7021,-0.7021,-0.6979,-0.6979,-0.8529,-1.0645,-1.2373,-1.2861,-1.2861,-1.2861,-1.2871,-1.2881,-1.2881,-1.2881,-1.334,-1.5029,-1.4062,-1.3658,-1.602,-1.8279,-1.5593,-0.2423,-0.0075,0.0,0.0,0.0,0.0,0.0,0.0,0.0,0.0,0.0,0.0,0.0,0.0,0.0,0.0,0.0,0.0,0.0,0.0,0.0,0.0,0.0,0.0,0.0,0.0,0.0,0.0,0.0,0.0,0.0,0.0,0.0,0.0,0.0,0.0,0.0,0.1124,0.304,0.6425,0.4422,0.1709,0.026,0.0847,0.1276,0.0202,0.0,0.0,0.0,0.0,0.0,0.0,0.0,0.0,0.0,0.0,0.0,0.0,0.0,0.0,0.0,0.0,-0.1397,-0.4405,-0.3938,-0.3581,-0.3581,-0.3581,-0.3581,-0.3581,-0.3581,-0.3581,-0.3667,-0.5947,-0.6979,-0.6979,-0.6979,-0.6979,-0.6979,-0.6979,-0.6979,-0.6979,-0.6979,-0.6979,-0.6979,-0.6979,-0.6979,-0.6979,-0.6979,-0.6979,-0.7266,-0.8812,-0.8285,-0.6979,-0.6979,-0.8529,-1.0391,-1.0949,-1.1055,-1.1055,-1.1055,-1.1963,-1.2881,-1.2881,-1.2881,-1.3018,-1.3525,-1.459,-1.5656,-1.638,-1.7049,-1.6245,-1.2271,-0.516,0.0,0.0,0.0,0.0,0.0,0.0,0.0,0.0,0.0,0.0,0.0,0.0,0.0,0.0,0.0,0.0,0.0,0.0,0.0,0.0,0.0,0.0,0.0,0.0,0.0,0.0,0.0,0.0,0.0,0.0,0.0,0.0,0.0,0.0,0.0,0.1077,0.301,0.6152,0.3158,0.0,0.0,0.0,0.0,0.0,0.0,0.0,0.0,0.0,0.0,0.0,0.0,0.0,0.0,0.0,-0.0413,-0.1338,-0.1679,-0.1691,-0.1445,-0.144,-0.2261,-0.406,-0.3811,-0.3581,-0.3581,-0.3581,-0.3581,-0.3581,-0.3581,-0.4056,-0.5005,-0.6374,-0.6979,-0.6979,-0.6979,-0.6979,-0.6979,-0.6979,-0.6979,-0.6979,-0.6979,-0.7551,-0.8325,-0.8325,-0.8325,-0.8325,-0.8325,-0.8325,-0.8529,-0.9873,-0.9381,-0.8325,-0.8325,-0.9262,-1.0283,-1.0283,-1.0283,-1.0283,-1.0283,-1.1064,-1.2021,-1.2725,-1.2353,-1.2338,-1.3946,-1.4709,-1.5332,-1.6293,-1.6522,-1.6522,-1.6522,-0.7332,0.0,0.0,0.0,0.0,0.0,0.0,0.0,0.0,0.0,0.0,0.0,0.0,0.0,0.0,0.0,0.0,0.0,0.0,0.0,0.0,0.0,0.0,0.0,0.0,0.0,0.0,0.0,0.0,-0.0392,-0.0452,-0.0515,-0.0579,-0.0273,0.0,0.0,0.2534,0.5033,0.561,0.2657,0.0,0.0,0.0,0.0,0.0,0.0,0.0,0.0,0.0,0.0,0.0,0.0,0.0,0.0,0.0,-0.0986,-0.3401,-0.4127,-0.4199,-0.3609,-0.3581,-0.3581,-0.3581,-0.3581,-0.3581,-0.3581,-0.3581,-0.3581,-0.3581,-0.3581,-0.4792,-0.6979,-0.6979,-0.6979,-0.6979,-0.6979,-0.6979,-0.6979,-0.6979,-0.6979,-0.6979,-0.6979,-0.8366,-1.0283,-1.0283,-1.0283,-1.0283,-1.0283,-1.0283,-1.0283,-1.0283,-1.0283,-1.0283,-1.0283,-1.0283,-1.0283,-1.0283,-1.0283,-1.0283,-1.0283,-1.0283,-1.0723,-1.2471,-1.1553,-1.1323,-1.5121,-1.4529,-1.3789,-1.5788,-1.6151,-1.625,-1.6479,-0.7968,-0.0908,-0.0117,0.0,0.0,0.0,0.0,0.0,0.0,0.0,0.0,0.0,0.0,0.0,0.0,0.0,0.0,0.0,0.0,0.0,0.0,0.0,0.0,0.0,0.0,0.0,0.0,0.0,0.0,-0.3511,-0.3903,-0.4355,-0.4816,-0.2428,0.0,0.0,0.0581,0.1218,0.1317,0.0616,0.0,0.0,0.0,0.0,0.0,0.0,0.0,0.0,0.0,0.0,0.0,0.0,0.0,0.0,0.0,-0.0986,-0.3401,-0.3697,-0.3714,-0.3588,-0.3581,-0.3581,-0.3581,-0.3581,-0.3581,-0.3581,-0.3581,-0.3581,-0.3581,-0.3581,-0.4792,-0.6979,-0.6979,-0.6979,-0.6979,-0.6979,-0.6979,-0.6979,-0.6979,-0.6979,-0.6979,-0.6979,-0.8366,-1.0283,-1.0283,-1.0283,-1.0283,-1.0283,-1.0283,-1.0283,-1.0283,-1.0283,-1.0283,-1.0283,-1.0283,-1.0283,-1.0283,-1.0283,-1.0283,-1.0283,-1.0283,-1.0723,-1.2471,-1.1553,-1.0537,-1.1444,-1.3769,-1.5332,-1.3931,-1.3658,-1.4294,-1.6151,-1.295,-0.7812,-0.1016,0.0,0.0,0.0,0.0,0.0,0.0,0.0,0.0,0.0,0.0,0.0,0.0,0.0,0.0,0.0,0.0,0.0,0.0,0.0,0.0,0.0,0.0,0.0,0.0,0.0,0.0,-0.4519,-0.4965,-0.5573,-0.6187,-0.4613,-0.2935,-0.2651,-0.126,0.0,0.0,0.0,0.0,0.0,0.0,0.0,0.0,0.0,0.0,0.0,0.0,0.0,0.0,0.0,0.0,0.0,0.0,-0.0986,-0.3401,-0.3581,-0.3581,-0.3581,-0.3581,-0.3581,-0.3581,-0.3581,-0.3581,-0.3581,-0.3581,-0.3581,-0.3581,-0.3581,-0.4792,-0.6979,-0.6979,-0.6979,-0.6979,-0.6979,-0.6979,-0.6979,-0.6979,-0.6979,-0.7105,-0.8162,-0.9301,-1.0283,-1.0283,-1.0283,-1.0283,-1.0283,-1.0283,-1.0283,-1.0283,-1.0283,-1.0283,-1.0283,-1.0283,-1.0283,-1.0283,-1.0283,-1.0283,-1.0283,-1.0283,-1.0518,-1.1416,-1.0937,-1.0283,-1.0283,-1.2648,-1.4158,-1.2053,-1.2314,-1.3296,-1.4571,-1.0289,-0.5186,-0.0674,0.0,0.0,0.0,0.0,0.0,0.0,0.0,0.0,0.0,0.0,0.0,0.0,0.0,0.0,0.0,0.0,0.0,0.0,0.0,0.0,0.0,0.0,0.0,0.0,0.0,0.0,-0.4519,-0.5381,-0.6312,-0.6335,-0.671,-0.6776,-0.5677,-0.3082,-0.0941,-0.0941,-0.0429,0.0,0.0,0.0,0.0,0.0,0.0,0.0,0.0,0.0,0.0,0.0,0.0,0.0,0.0,0.0,-0.0986,-0.3401,-0.3581,-0.3581,-0.3581,-0.3581,-0.3581,-0.3581,-0.3581,-0.3581,-0.3581,-0.3581,-0.3581,-0.3581,-0.3581,-0.4574,-0.6422,-0.6803,-0.6979,-0.6979,-0.6979,-0.6979,-0.6979,-0.6979,-0.6979,-0.7189,-0.9013,-0.9952,-1.0283,-1.0283,-1.0283,-1.0283,-1.0283,-1.0283,-1.0283,-1.0283,-1.0283,-1.0283,-1.0283,-1.0283,-1.0283,-1.0283,-1.0544,-1.0725,-1.04,-1.0283,-1.0283,-1.0283,-1.0283,-1.0283,-1.0283,-1.1416,-1.2002,-1.0557,-1.1689,-1.2881,-1.2881,-0.7297,-0.2197,-0.0289,0.0,0.0,0.0,0.0,0.0,0.0,0.0,0.0,0.0,0.0,0.0,0.0,0.0,0.0,0.0,0.0,0.0,0.0,0.0,0.0,0.0,0.0,0.0,0.0,0.0,0.0,-0.4519,-0.7161,-0.9305,-0.6926,-0.8146,-0.9231,-0.6102,-0.5024,-0.4688,-0.4688,-0.2197,0.0,0.0,0.0,0.0,0.0,0.0,0.0,0.0,0.0,0.0,0.0,0.0,0.0,0.0,0.0,-0.0986,-0.3401,-0.3581,-0.3581,-0.3581,-0.3581,-0.3581,-0.3581,-0.3581,-0.3581,-0.3581,-0.3581,-0.3581,-0.3581,-0.3581,-0.3755,-0.41,-0.6118,-0.6979,-0.6979,-0.6979,-0.6979,-0.6979,-0.6979,-0.6979,-0.7021,-0.7308,-0.861,-1.0283,-1.0283,-1.0283,-1.0283,-1.0283,-1.0283,-1.0283,-1.0283,-1.0283,-1.0283,-1.0283,-1.0283,-1.0283,-1.0283,-1.1494,-1.2413,-1.0725,-1.0283,-1.0283,-1.0283,-1.0283,-1.0283,-1.0283,-1.0469,-1.0557,-1.0371,-1.1689,-1.2881,-1.2881,-1.3696,-1.1032,-0.1444,0.0,0.0,0.0,0.0,0.0,0.0,0.0,0.0,0.0,0.0,0.0,0.0,0.0,0.0,0.0,0.0,0.0,0.0,0.0,0.0,0.0,0.0,0.0,0.0,0.0,0.0,-0.7298,-0.9223,-1.029,-0.9001,-0.9663,-1.0168,-0.8672,-0.8285,-0.8138,-0.7444,-0.6023,-0.446,-0.2837,-0.1118,0.0,0.0,0.0,0.0,0.0,0.0,0.0,0.0,0.0,0.0,0.0,0.0,-0.0449,-0.1521,-0.1566,-0.1566,-0.1566,-0.2862,-0.2996,-0.1611,-0.2907,-0.3581,-0.3581,-0.3581,-0.3581,-0.3581,-0.3581,-0.3581,-0.3622,-0.4618,-0.5776,-0.6979,-0.6979,-0.6979,-0.6979,-0.6979,-0.6979,-0.6979,-0.6979,-0.8366,-1.0283,-1.0283,-1.0283,-1.0283,-1.0283,-1.0283,-1.0283,-1.0283,-1.0283,-1.0283,-1.0283,-1.0283,-1.0544,-1.1616,-1.1763,-1.1394,-1.0505,-1.0283,-1.0283,-1.0283,-1.0283,-1.0283,-1.0283,-1.0283,-1.0621,-1.1726,-1.2546,-1.3451,-1.4688,-1.5788,-1.2768,-0.167,0.0,0.0,0.0,0.0,0.0,0.0,0.0,0.0,0.0,0.0,0.0,0.0,0.0,0.0,0.0,0.0,0.0,0.0,0.0,0.0,0.0,0.0,0.0,0.0,0.0,0.0,-0.9326,-1.0114,-1.0248,-1.0551,-1.0624,-1.0624,-1.0624,-1.0327,-0.9866,-0.8985,-0.8804,-0.7937,-0.5007,-0.2676,-0.0895,-0.0112,0.0,0.0,0.0,0.0,0.0,0.0,0.0,0.0,0.0,0.0,0.0,0.0,0.0,0.0,0.0,-0.17,-0.1878,-0.0045,-0.1744,-0.2996,-0.3581,-0.3581,-0.3581,-0.3581,-0.3581,-0.3581,-0.3581,-0.3581,-0.453,-0.6161,-0.6761,-0.6979,-0.6979,-0.6979,-0.6979,-0.6979,-0.6979,-0.8366,-1.0283,-1.0283,-1.0283,-1.0283,-1.0283,-1.0283,-1.0283,-1.0283,-1.0283,-1.0283,-1.0283,-1.0283,-1.0611,-1.2054,-1.1752,-1.0905,-1.0428,-1.0283,-1.0283,-1.0283,-1.0283,-1.0438,-1.0916,-1.1019,-1.1319,-1.2282,-1.2861,-1.3724,-1.5364,-1.6145,-1.3722,-0.5436,-0.1803,0.0,0.0,0.0,0.0,0.0,0.0,0.0,0.0,0.0,0.0,0.0,0.0,0.0,0.0,0.0,0.0,0.0,0.0,0.0,0.0,0.0,0.0,0.0,0.0,0.0,-0.8825,-0.8898,-0.9165,-1.0281,-1.0624,-1.0624,-1.0624,-0.9699,-0.8878,-0.8818,-0.8804,-0.7937,-0.5007,-0.4349,-0.3345,-0.0448,0.0,0.0,0.0,0.0,0.0,0.0,0.0,0.0,0.0,0.0,0.0,0.0,0.0,0.0,0.0,-0.0135,-0.0135,0.0,-0.0135,-0.1298,-0.3578,-0.3581,-0.3581,-0.3581,-0.3581,-0.3581,-0.3581,-0.3581,-0.3667,-0.3884,-0.6076,-0.6979,-0.6979,-0.6979,-0.6979,-0.6979,-0.6979,-0.8366,-1.0283,-1.0283,-1.0283,-1.0283,-1.0283,-1.0283,-1.0283,-1.0283,-1.0283,-1.0283,-1.0283,-1.0283,-1.0322,-1.0428,-1.1726,-1.2603,-1.0764,-1.0283,-1.0283,-1.0283,-1.0283,-1.0802,-1.265,-1.3047,-1.2532,-1.0802,-1.1945,-1.3235,-1.3348,-1.5101,-1.6278,-1.5743,-0.6729,0.0,0.0,0.0,0.0,0.0,0.0,0.0,0.0,0.0,0.0,0.0,0.0,0.0,0.0,0.0,0.0,0.0,0.0,0.0,0.0,0.0,0.0,0.0,0.0,0.0,-0.8804,-0.8804,-0.8911,-0.9332,-1.0745,-1.2055,-1.2055,-1.174,-1.0947,-0.9166,-0.8804,-0.848,-0.745,-0.5764,-0.4125,-0.3065,-0.2899,-0.2899,-0.2899,-0.1232,0.0,0.0,0.0,0.0,0.0,0.0,0.0,0.0,0.0,0.0,0.0,0.0,0.0,0.0,0.0,-0.1164,-0.3578,-0.3581,-0.3581,-0.3581,-0.3581,-0.3581,-0.3581,-0.3581,-0.3581,-0.3711,-0.599,-0.6979,-0.6979,-0.6979,-0.6979,-0.6979,-0.6979,-0.7467,-0.8366,-0.9795,-1.0283,-1.0283,-1.0283,-1.0283,-1.0283,-1.0283,-1.0283,-1.0283,-1.0283,-1.0283,-1.0283,-1.0283,-1.1678,-1.2756,-1.0802,-1.0283,-1.0283,-1.0283,-1.1244,-1.2342,-1.3047,-1.3198,-1.2978,-1.2306,-1.272,-1.3198,-1.3198,-1.5014,-1.6045,-1.4588,-0.6173,0.0,0.0,0.0,0.0,0.0,0.0,0.0,0.0,0.0,0.0,0.0,0.0,0.0,0.0,0.0,0.0,0.0,0.0,0.0,0.0,0.0,0.0,0.0,0.0,0.0,-0.8804,-0.9472,-1.0182,-1.0182,-1.215,-1.4118,-1.4118,-1.3478,-1.2116,-0.9368,-0.8804,-0.8804,-0.8804,-0.723,-0.5605,-0.468,-0.4519,-0.4519,-0.4519,-0.2788,-0.1434,-0.1233,-0.1208,-0.1208,-0.1208,-0.0494,0.0,0.0,0.0,0.0,0.0,0.0,0.0,0.0,0.0,-0.1164,-0.3578,-0.3581,-0.3581,-0.3581,-0.3581,-0.3581,-0.3581,-0.3581,-0.3581,-0.3711,-0.599,-0.6979,-0.6979,-0.6979,-0.6979,-0.6979,-0.6979,-0.6979,-0.7266,-0.95,-1.0283,-1.0283,-1.0283,-1.0283,-1.0283,-1.0283,-1.0283,-1.0283,-1.0283,-1.0764,-1.1282,-1.1282,-1.2198,-1.2908,-1.1616,-1.0802,-1.0283,-1.0283,-1.1282,-1.2425,-1.3047,-1.3198,-1.3198,-1.3198,-1.3198,-1.3198,-1.3198,-1.4413,-1.5139,-1.4413,-0.9291,-0.4206,-0.0477,0.0,0.0,0.0,0.0,0.0,0.0,0.0,0.0,0.0,0.0,0.0,0.0,0.0,0.0,0.0,0.0,0.0,0.0,0.0,0.0,0.0,0.0,0.0,0.0,0.0,0.0,-1.2978,-1.4699,-1.6446,-1.6509,-1.4709,-1.2206,-0.9472,-0.8857,-0.8804,-0.8804,-0.8804,-0.7877,-0.5062,-0.4625,-0.4625,-0.4625,-0.4625,-0.4348,-0.3694,-0.3595,-0.3598,-0.3581,-0.1477,-0.009,0.0,0.0,0.0,0.0,0.0,0.0,0.0,0.0,-0.112,-0.349,-0.3578,-0.3581,-0.3581,-0.3581,-0.3581,-0.3581,-0.3581,-0.3581,-0.3711,-0.599,-0.6979,-0.6979,-0.6979,-0.6979,-0.6979,-0.6979,-0.7021,-0.7349,-0.9509,-1.0283,-1.0283,-1.0283,-1.0361,-1.04,-1.0322,-1.0361,-1.04,-1.04,-1.1678,-1.3198,-1.3198,-1.3198,-1.3198,-1.3198,-1.1763,-1.0283,-1.0283,-1.0283,-1.084,-1.272,-1.3163,-1.3198,-1.3198,-1.3198,-1.3198,-1.3198,-1.3198,-1.3924,-1.6095,-1.6471,-1.2484,-0.1419,0.0,0.0,0.0,0.0,0.0,0.0,0.0,0.0,0.0,0.0,0.0,0.0,0.0,0.0,0.0,0.0,0.0,0.0,0.0,0.0,0.0,0.0,0.0,-1.125,0.0,0.0,0.0,0.0,0.0,-1.6158,-1.5976,-1.4767,-1.2276,-1.0182,-0.8804,-0.8804,-0.8804,-0.8533,-0.7717,-0.761,-0.761,-0.761,-0.761,-0.6616,-0.392,-0.4007,-0.41,-0.3622,-0.2996,-0.1878,-0.0135,0.0,0.0,0.0,0.0,0.0,0.0,0.0,-0.0314,-0.0986,-0.2726,-0.3581,-0.3581,-0.3581,-0.3581,-0.3581,-0.3581,-0.3581,-0.3711,-0.599,-0.6979,-0.6979,-0.6979,-0.6979,-0.6979,-0.6979,-0.7957,-0.946,-1.0079,-1.0283,-1.0283,-1.0283,-1.1207,-1.2162,-1.0764,-1.1244,-1.2389,-1.2389,-1.2791,-1.3198,-1.3198,-1.3198,-1.3198,-1.3198,-1.1763,-1.0283,-1.0283,-1.0283,-1.0428,-1.0992,-1.2198,-1.3198,-1.3198,-1.3198,-1.3198,-1.3198,-1.3198,-1.3411,-1.4012,-1.5464,-1.2484,-0.1419,0.0,0.0,0.0,0.0,0.0,0.0,0.0,0.0,0.0,0.0,0.0,0.0,0.0,0.0,0.0,0.0,0.0,0.0,0.0,0.0,0.0,0.0,0.0,-1.2166,-1.3658,-1.4744,-1.6151,0.0,0.0,-1.622,-1.57,-1.4606,-1.32,-1.0685,-0.8804,-0.8804,-0.8804,-0.8804,-0.8804,-0.8804,-0.8804,-0.8804,-0.8804,-0.8023,-0.6026,-0.5028,-0.4381,-0.4031,-0.3997,-0.3265,-0.1618,-0.0583,0.0,0.0,-0.0941,-0.103,-0.0045,0.0,-0.0494,-0.1477,-0.2907,-0.3581,-0.3581,-0.3581,-0.3581,-0.3581,-0.3581,-0.41,-0.5091,-0.6422,-0.6979,-0.6979,-0.6979,-0.6979,-0.6979,-0.6979,-0.8366,-1.0283,-1.0283,-1.0283,-1.0283,-1.0283,-1.1568,-1.3012,-1.1872,-1.2282,-1.3198,-1.3198,-1.3198,-1.3198,-1.3198,-1.3198,-1.3198,-1.3198,-1.2354,-1.1505,-1.1505,-1.1505,-1.1505,-1.1505,-1.2389,-1.3198,-1.3198,-1.3937,-1.4563,-1.4563,-1.3799,-1.3198,-1.3198,-1.5064,-1.4186,-0.7721,-0.2862,0.0,0.0,0.0,0.0,0.0,0.0,0.0,0.0,0.0,0.0,0.0,0.0,0.0,0.0,0.0,0.0,0.0,0.0,0.0,0.0,0.0,0.0,-1.2215,-1.4663,-1.6522,-1.6522,-1.6522,0.0,-1.6522,-1.4485,-1.2646,-1.2842,-1.0685,-0.8804,-0.8804,-0.8804,-0.891,-0.9218,-0.9271,-0.9166,-0.8857,-0.9061,-0.9166,-0.8857,-0.6524,-0.4842,-0.4515,-0.4519,-0.4268,-0.3626,-0.1611,-0.0404,-0.0404,-0.2415,-0.2637,-0.0449,-0.0135,-0.1164,-0.3578,-0.3581,-0.3711,-0.3972,-0.3972,-0.3972,-0.3972,-0.3972,-0.5091,-0.6979,-0.6979,-0.6979,-0.6979,-0.6979,-0.6979,-0.7021,-0.7266,-0.8569,-1.0283,-1.0283,-1.0283,-1.0322,-1.0544,-1.1763,-1.3198,-1.3198,-1.3198,-1.3198,-1.3198,-1.3198,-1.3198,-1.3198,-1.3198,-1.3198,-1.3198,-1.3198,-1.3198,-1.3198,-1.3198,-1.3198,-1.3198,-1.3198,-1.3198,-1.3198,-1.4776,-1.6233,-1.6471,-1.4851,-1.3561,-1.3561,-1.5226,-1.6522,-1.6522,-0.6855,0.0,0.0,0.0,0.0,0.0,0.0,0.0,0.0,0.0,0.0,0.0,0.0,0.0,0.0,0.0,0.0,0.0,0.0,0.0,0.0,0.0,0.0,-1.2725,-1.4663,-1.6522,-1.6522,-1.6522,0.0,-1.6522,-1.3549,-1.1191,-1.2588,-1.0685,-0.8804,-0.8804,-0.8804,-0.9517,-1.176,-1.2116,-1.1351,-0.9113,-1.0694,-1.1301,-0.9061,-0.8315,-0.7069,-0.4736,-0.4519,-0.4268,-0.3626,-0.3176,-0.2907,-0.2907,-0.3353,-0.3401,-0.2907,-0.1031,-0.1164,-0.3578,-0.3581,-0.453,-0.6337,-0.6337,-0.6337,-0.6337,-0.6337,-0.6592,-0.6979,-0.6979,-0.6979,-0.6979,-0.6979,-0.6979,-0.7182,-0.8973,-0.9913,-1.0283,-1.0283,-1.0283,-1.0505,-1.209,-1.2861,-1.3198,-1.3198,-1.3198,-1.3198,-1.3198,-1.3198,-1.3198,-1.3198,-1.3198,-1.3198,-1.3198,-1.3198,-1.3198,-1.3198,-1.3198,-1.3198,-1.3198,-1.3198,-1.3198,-1.3198,-1.3549,-1.44,-1.6166,-1.6115,-1.5881,-1.5881,-1.6245,-1.6522,-1.6522,-0.6855,0.0,0.0,0.0,0.0,0.0,0.0,0.0,0.0,0.0,0.0,0.0,0.0,0.0,0.0,0.0,0.0,0.0,0.0,0.0,0.0,0.0,0.0,-1.2881,-1.3789,-1.4698,-1.4698,-1.4045,0.0,0.0,-1.2489,-1.1826,-1.2705,-1.181,-1.0438,-0.9061,-0.9932,-1.1301,-1.2676,-1.2881,-1.2421,-1.1049,-1.2008,-1.2372,-1.0998,-0.9621,-0.8209,-0.6794,-0.6126,-0.5169,-0.3691,-0.3581,-0.3581,-0.3581,-0.3581,-0.3581,-0.3581,-0.2415,-0.237,-0.3578,-0.3581,-0.4744,-0.6979,-0.6979,-0.6979,-0.6979,-0.6979,-0.6979,-0.6979,-0.6979,-0.6979,-0.6979,-0.6979,-0.6979,-0.7224,-0.9421,-1.0283,-1.0283,-1.0283,-1.0283,-1.0582,-1.2532,-1.3198,-1.3198,-1.3198,-1.3198,-1.3198,-1.3198,-1.3198,-1.3198,-1.3198,-1.3198,-1.3198,-1.3198,-1.3198,-1.3198,-1.3198,-1.3198,-1.3198,-1.3198,-1.3198,-1.3198,-1.3198,-1.3198,-1.3899,-1.6145,-1.6522,-1.6522,-1.6522,-1.6522,-1.6522,-1.6522,-1.1676,-0.6127,-0.059,0.0,0.0,0.0,0.0,0.0,0.0,0.0,0.0,0.0,0.0,0.0,0.0,0.0,0.0,0.0,0.0,0.0,0.0,0.0,0.0,-1.2881,-1.2881,-1.2881,-1.2881,-1.1572,-1.041,0.0,0.0,0.0,-1.2881,-1.2617,-1.1844,-0.9931,-1.1401,-1.2881,-1.2881,-1.2881,-1.2881,-1.2881,-1.2881,-1.2881,-1.2881,-1.0947,-0.9368,-0.8857,-0.7722,-0.6246,-0.4403,-0.384,-0.3581,-0.3581,-0.3581,-0.3581,-0.3581,-0.3581,-0.3581,-0.3581,-0.4056,-0.5178,-0.6979,-0.6979,-0.6979,-0.6979,-0.6979,-0.6979,-0.6979,-0.6979,-0.6979,-0.6979,-0.6979,-0.7045,-0.7331,-0.947,-1.0283,-1.0283,-1.0283,-1.0283,-1.0582,-1.2532,-1.3198,-1.3198,-1.3198,-1.3198,-1.3198,-1.3198,-1.3198,-1.3198,-1.3198,-1.3198,-1.3198,-1.3198,-1.3198,-1.3198,-1.3198,-1.3198,-1.3198,-1.3198,-1.3198,-1.3198,-1.3198,-1.3198,-1.3761,-1.5539,-1.584,-1.584,-1.584,-1.584,-1.6045,-1.6471,-1.6522,-1.2278,-0.118,0.0,0.0,0.0,0.0,0.0,0.0,0.0,0.0,0.0,0.0,0.0,0.0,0.0,0.0,0.0,0.0,0.0,0.0,0.0,0.0,-1.2881,-1.2881,-1.2881,-1.2881,-1.1572,-1.0684,-1.2236,0.0,-1.2881,-1.2881,0.0,-1.0961,-1.2196,0.0,0.0,-1.2881,-1.2881,-1.2881,-1.2881,-1.2881,-1.2881,-1.2881,-1.2627,-1.1501,-0.9008,-0.7722,-0.6894,-0.6634,-0.4744,-0.3581,-0.3581,-0.3581,-0.3581,-0.3581,-0.3581,-0.3581,-0.3581,-0.5604,-0.6725,-0.6979,-0.6979,-0.6979,-0.6979,-0.6979,-0.6979,-0.6979,-0.6979,-0.6979,-0.6979,-0.6979,-0.7228,-0.7813,-0.9614,-1.0283,-1.0283,-1.0283,-1.0283,-1.0582,-1.2532,-1.3198,-1.3198,-1.3198,-1.3198,-1.3198,-1.3198,-1.3198,-1.3198,-1.3198,-1.3198,-1.3198,-1.3198,-1.3198,-1.3198,-1.3198,-1.3198,-1.3198,-1.3198,-1.3198,-1.3198,-1.3198,-1.3198,-1.3273,-1.3523,-1.3574,-1.3574,-1.3574,-1.3574,-1.4275,-1.6271,-1.6522,-1.2278,-0.118,0.0,0.0,0.0,0.0,0.0,0.0,0.0,0.0,0.0,0.0,0.0,0.0,0.0,0.0,0.0,0.0,0.0,0.0,0.0,0.0,-1.2655,-1.2139,-1.1377,-1.1377,-1.1582,-1.1982,-1.2715,-1.2881,-1.2881,-1.2881,0.0,0.0,0.0,0.0,0.0,0.0,-1.2881,-1.2881,-1.2881,-1.2881,-1.25,-1.1494,-1.2266,-1.181,-0.9061,-0.835,-0.8056,-0.8056,-0.6507,-0.5005,-0.3667,-0.3581,-0.3581,-0.3581,-0.3581,-0.3581,-0.3581,-0.5862,-0.6979,-0.6979,-0.6979,-0.6979,-0.6979,-0.6979,-0.6979,-0.6979,-0.6979,-0.6979,-0.7009,-0.7313,-0.7516,-0.787,-0.9619,-1.0283,-1.0283,-1.0283,-1.0283,-1.0582,-1.2532,-1.3198,-1.3198,-1.3198,-1.3198,-1.3198,-1.3198,-1.3198,-1.3198,-1.3198,-1.3198,-1.3198,-1.3198,-1.3198,-1.3198,-1.3198,-1.3198,-1.3198,-1.3198,-1.3198,-1.3198,-1.3198,-1.3198,-1.3198,-1.3198,-1.3198,-1.3198,-1.3198,-1.3198,-1.3536,-1.4463,-1.6779,-1.599,-0.9832,-0.3672,0.0,0.0,0.0,0.0,0.0,0.0,0.0,0.0,0.0,0.0,0.0,0.0,0.0,0.0,0.0,0.0,0.0,0.0,0.0,-1.1826,-1.125,-1.04,-1.0879,-1.1943,-1.2881,-1.2881,-1.2881,-1.2744,-1.2266,-1.1162,0.0,0.0,0.0,-1.0895,-1.2692,0.0,-1.2334,-1.2812,-1.2881,-1.2412,-1.1143,-1.252,-1.2595,-1.0169,-0.8954,-0.8457,-0.8784,-0.7702,-0.6289,-0.4618,-0.453,-0.4228,-0.3622,-0.4184,-0.453,-0.453,-0.6161,-0.6979,-0.6979,-0.6979,-0.6979,-0.6979,-0.6979,-0.7349,-0.7915,-0.7915,-0.7915,-0.7899,-0.7765,-0.7695,-0.7822,-0.9102,-0.958,-0.9639,-1.0107,-1.0283,-1.0505,-1.1909,-1.2756,-1.3198,-1.3198,-1.3198,-1.3198,-1.3198,-1.3198,-1.3198,-1.3198,-1.3198,-1.3198,-1.3198,-1.3198,-1.3198,-1.3198,-1.3198,-1.3198,-1.3198,-1.3198,-1.3198,-1.3198,-1.3198,-1.3198,-1.3198,-1.3198,-1.3198,-1.3198,-1.3615,-1.3735,-1.3267,-1.638,-1.7912,-1.6008,-0.6325,0.0,0.0,0.0,0.0,0.0,0.0,0.0,0.0,0.0,0.0,0.0,0.0,0.0,0.0,0.0,0.0,0.0,0.0,0.0,-1.0352,-1.0322,-1.0724,-1.2383,-1.2842,-1.2881,-1.2881,-1.2881,-1.2402,-1.0713,-1.0322,-1.0283,-1.0283,-1.0283,-1.0926,-1.2888,-1.1593,0.0,0.0,-1.2881,-1.2861,-1.2803,-1.4297,-1.4632,-1.2929,-0.9281,-0.7562,-0.8717,-0.7702,-0.6979,-0.6894,-0.6894,-0.5862,-0.3667,-0.5733,-0.6894,-0.6894,-0.6979,-0.6979,-0.6979,-0.6979,-0.6979,-0.6979,-0.6979,-0.8162,-1.0196,-1.0196,-1.0196,-1.007,-0.8396,-0.7695,-0.7705,-0.7754,-0.7783,-0.7978,-0.9668,-1.0283,-1.0322,-1.0361,-1.1616,-1.3198,-1.3198,-1.3198,-1.3198,-1.3198,-1.3198,-1.3198,-1.3198,-1.3198,-1.3198,-1.3198,-1.3198,-1.3198,-1.3198,-1.3198,-1.3198,-1.3198,-1.3198,-1.3198,-1.3198,-1.3198,-1.3198,-1.3198,-1.3198,-1.3198,-1.3198,-1.4627,-1.5104,-1.3425,-1.4791,-1.5888,-1.5814,-0.6325,0.0,0.0,0.0,0.0,0.0,0.0,0.0,0.0,0.0,0.0,0.0,0.0,0.0,0.0,0.0,0.0,0.0,0.0,0.0,-1.2002,-1.1162,-1.042,-1.1016,-1.2031,-1.2881,-1.2881,-1.2881,-1.243,-1.0645,-1.0283,-1.0687,-1.1982,-1.1169,-1.0954,-1.2861,-1.1579,-1.0488,0.0,-1.3125,-1.4551,-1.4551,-1.4072,-1.3516,-1.2939,-1.1705,-1.1084,-1.1466,-0.8723,-0.7634,-0.9093,-0.7799,-0.6634,-0.5862,-0.6592,-0.6979,-0.6979,-0.6979,-0.6979,-0.6979,-0.6979,-0.6979,-0.6979,-0.6979,-0.8203,-1.0283,-1.0283,-0.9639,-0.8545,-0.7939,-0.7695,-0.7695,-0.7695,-0.7695,-0.7909,-0.9648,-1.0283,-1.0283,-1.0283,-1.1568,-1.3198,-1.3198,-1.3198,-1.3198,-1.3198,-1.3198,-1.3198,-1.3198,-1.3198,-1.3198,-1.3198,-1.3198,-1.3198,-1.3198,-1.3198,-1.3198,-1.3198,-1.3198,-1.3198,-1.3198,-1.4117,-1.4907,-1.4907,-1.4907,-1.4907,-1.4907,-1.5418,-1.558,-1.5013,-1.5448,-1.6458,-1.8212,-1.364,-0.7614,-0.06,0.0,0.0,0.0,0.0,0.0,0.0,0.0,0.0,0.0,0.0,0.0,0.0,0.0,0.0,0.0,0.0,0.0,-1.2881,-1.2061,-1.1201,-1.1201,-1.1582,-1.2119,-1.2744,-1.2881,-1.243,-1.0645,-1.084,-1.1715,-1.2978,-1.2162,-1.1505,-1.209,-1.1625,-1.1201,0.0,-1.3115,-1.4736,-1.5342,-1.3916,-1.2881,-1.2881,-1.2881,-1.2627,-1.2002,-0.9615,-0.9089,-1.113,-0.8553,-0.6979,-0.6979,-0.6979,-0.6979,-0.6979,-0.6979,-0.6979,-0.6979,-0.6979,-0.6979,-0.7021,-0.7799,-0.8933,-1.0293,-0.9639,-0.875,-0.7695,-0.7695,-0.7695,-0.7695,-0.7695,-0.7695,-0.7909,-0.9648,-1.0283,-1.0283,-1.0283,-1.1132,-1.227,-1.2978,-1.3198,-1.3198,-1.3198,-1.3198,-1.3198,-1.3198,-1.3198,-1.3198,-1.3198,-1.3198,-1.3198,-1.3198,-1.3198,-1.3198,-1.3198,-1.3198,-1.3391,-1.4,-1.5043,-1.5799,-1.5799,-1.5799,-1.5799,-1.5799,-1.5799,-1.5799,-1.5799,-1.5799,-1.6458,-1.8137,-1.6818,-1.1512,-0.0899,0.0,0.0,0.0,0.0,0.0,0.0,0.0,0.0,0.0,0.0,0.0,0.0,0.0,0.0,0.0,0.0,0.0]}]]